Date StartTime U_cm/s V_cm/s W_cm/s Ustd_cm/s Vstd_cm/s Wstd_cm/s Uvar_(cm/s)^2 Vvar_(cm/s)^2 Wvar_(cm/s)^2 KE_(m/s)^2 TurbulentKE_(m/s)^2 HorizWindSpeed_cm/s FrictionSpeec_cm/s DragCoef SpeedOfSound_m/s SonicTemperature_C Pressure_mb 
09/16/2013  00:00:00       32.946       81.647       -5.390       42.751       45.598       39.112     1827.628     2079.211     1529.765        0.661        0.272       88.044       35.196        0.160      344.992       22.205      857.723
09/16/2013  00:01:00       29.827       88.155       -1.286       44.789       64.171       38.874     2006.043     4117.936     1511.150        0.815        0.382       93.064       44.053        0.224      344.899       22.045      857.731
09/16/2013  00:02:00      -24.644      139.691      -10.578       28.715       39.430       26.263      824.541     1554.744      689.756        1.165        0.153      141.848       23.813        0.028      344.711       21.722      857.748
09/16/2013  00:03:00      -94.338       88.343      -14.154       42.679       43.960       26.603     1821.491     1932.523      707.722        1.068        0.223      129.245       16.108        0.016      344.642       21.606      857.751
09/16/2013  00:04:00      -99.798       35.883      -13.585       31.147       31.398       21.098      970.146      985.844      445.115        0.692        0.120      106.053       20.195        0.036      344.740       21.774      857.764
09/16/2013  00:05:00     -163.150       -2.182      -20.111       50.717       35.078       22.263     2572.186     1230.433      495.661        1.566        0.215      163.164       13.949        0.007      344.520       21.397      857.760
09/16/2013  00:06:00     -176.859       48.184      -31.126       51.754       49.154       28.135     2678.440     2416.124      791.606        2.023        0.294      183.306       25.717        0.020      344.552       21.449      857.766
09/16/2013  00:07:00     -130.369      108.406      -19.472       49.463       46.664       25.321     2446.626     2177.512      641.137        1.720        0.263      169.553       15.421        0.008      344.670       21.653      857.759
09/16/2013  00:08:00      -96.509       82.106      -13.118       39.981       41.513       23.112     1598.467     1723.340      534.149        1.004        0.193      126.709       23.474        0.034      344.653       21.623      857.763
09/16/2013  00:09:00     -137.795       16.839      -11.324       39.290       48.905       24.699     1543.713     2391.693      610.065        1.197        0.227      138.821       17.547        0.016      344.250       20.935      857.786
09/16/2013  00:10:00     -165.828      -25.146      -15.520       43.617       47.044       36.075     1902.412     2213.164     1301.379        1.689        0.271      167.723       25.789        0.024      344.033       20.563      857.812
09/16/2013  00:11:00     -123.514       40.169      -16.356       28.651       28.319       24.899      820.889      801.977      619.956        0.969        0.112      129.882       14.417        0.012      344.211       20.868      857.829
09/16/2013  00:12:00     -103.181       43.732       -9.626       36.402       33.866       22.559     1325.106     1146.873      508.908        0.782        0.149      112.066       16.150        0.021      344.103       20.685      857.824
09/16/2013  00:13:00      -96.835       73.840      -18.298       38.077       29.114       22.164     1449.883      847.650      491.232        0.898        0.139      121.776       15.596        0.016      344.108       20.692      857.808
09/16/2013  00:14:00     -112.695      226.495      -29.560       61.858       86.053       41.417     3826.382     7405.148     1715.361        3.891        0.647      252.982       44.251        0.031      344.573       21.483      857.803
09/16/2013  00:15:00      -71.955      205.925      -18.845       37.210       72.481       32.034     1384.617     5253.483     1026.169        2.780        0.383      218.135       29.187        0.018      344.772       21.825      857.782
09/16/2013  00:16:00      -79.138      225.930      -32.055       77.488       71.873       41.727     6004.319     5165.698     1741.161        3.562        0.646      239.389       38.555        0.026      344.822       21.910      857.788
09/16/2013  00:17:00      -34.167      250.748      -25.677       74.651      110.143       41.077     5572.821    12131.514     1687.343        4.204        0.970      253.065       47.909        0.036      344.954       22.137      857.782
09/16/2013  00:18:00     -130.359      161.747      -29.182       93.826       90.326       28.938     8803.407     8158.817      837.383        3.090        0.890      207.739       26.586        0.016      345.275       22.684      857.799
09/16/2013  00:19:00      -53.728       96.577        0.534       65.418      110.046       47.930     4279.566    12110.146     2297.298        1.545        0.934      110.517       44.281        0.161      344.720       21.738      857.784
09/16/2013  00:20:00      -91.159      130.856      -31.613       57.283       53.835       25.131     3281.351     2898.239      631.543        1.662        0.341      159.478       23.467        0.022      344.317       21.049      857.809
09/16/2013  00:21:00     -118.987       86.174      -20.413       41.577       48.745       28.503     1728.636     2376.099      812.398        1.346        0.246      146.915       28.455        0.038      344.317       21.049      857.820
09/16/2013  00:22:00     -117.757       61.893      -13.509       60.067       63.176       30.729     3608.096     3991.188      944.262        1.321        0.427      133.031       29.584        0.049      344.245       20.927      857.839
09/16/2013  00:23:00      -15.866       20.010       19.470       33.854       22.081       21.538     1146.089      487.570      463.902        0.156        0.105       25.537       22.177        0.754      343.910       20.353      857.857
09/16/2013  00:24:00      -29.788       11.373       -2.141       42.486       47.614       31.672     1805.087     2267.074     1003.145        0.305        0.254       31.885       26.998        0.717      344.014       20.532      857.885
09/16/2013  00:25:00       18.323       35.366       -2.462       37.164       36.269       22.236     1381.196     1315.441      494.442        0.239        0.160       39.830       11.788        0.088      343.553       19.745      857.896
09/16/2013  00:26:00       21.599        9.246       19.042       22.231       15.643       18.866      494.223      244.713      355.913        0.100        0.055       23.494       11.297        0.231      342.973       18.757      857.905
09/16/2013  00:27:00        7.519       11.745        9.914       20.579       19.580       17.401      423.498      383.364      302.790        0.070        0.055       13.945       11.006        0.623      343.489       19.638      857.904
09/16/2013  00:28:00       26.902       16.636       17.776       45.976       35.096       42.592     2113.820     1231.703     1814.040        0.324        0.258       31.630       34.323        1.178      343.140       19.041      857.909
09/16/2013  00:29:00       32.022        1.903       14.137       36.726       37.029       28.068     1348.821     1371.157      787.806        0.237        0.175       32.078       16.596        0.268      343.010       18.821      857.916
09/16/2013  00:30:00       32.297       39.671       -8.019       36.047       35.054       26.247     1299.394     1228.788      688.892        0.295        0.161       51.155       12.950        0.064      343.494       19.646      857.922
09/16/2013  00:31:00      -14.124       12.483       -0.291       20.873       10.315        9.873      435.677      106.404       97.473        0.050        0.032       18.850        6.236        0.109      343.727       20.043      857.926
09/16/2013  00:32:00      -32.888       15.357        2.576       21.483        8.504        8.100      461.510       72.322       65.610        0.096        0.030       36.296        7.311        0.041      343.816       20.196      857.914
09/16/2013  00:33:00      -35.830       56.382       -5.979       28.824       23.310       15.757      830.799      543.346      248.293        0.306        0.081       66.804       18.761        0.079      343.869       20.285      857.898
09/16/2013  00:34:00      -53.567       10.432       -6.926       31.757       17.048        9.636     1008.510      290.631       92.854        0.221        0.070       54.573       10.256        0.035      343.735       20.056      857.899
09/16/2013  00:35:00     -118.057      -30.624       -5.854       45.321       34.925       23.002     2054.018     1219.788      529.112        0.936        0.190      121.964       22.169        0.033      343.410       19.502      857.940
09/16/2013  00:36:00     -160.080      -38.405        2.147       41.671       40.231       24.744     1736.480     1618.556      612.244        1.554        0.198      164.622       24.561        0.022      343.521       19.690      857.950
09/16/2013  00:37:00     -125.366       41.002       -8.933       38.603       39.928       25.649     1490.209     1594.232      657.874        1.061        0.187      131.901       20.554        0.024      343.676       19.955      857.947
09/16/2013  00:38:00     -130.992       99.561      -20.611       41.418       45.196       28.340     1715.461     2042.703      803.180        1.603        0.228      164.533       28.834        0.031      343.934       20.394      857.927
09/16/2013  00:39:00     -136.370      180.043      -29.852       36.778       50.031       26.252     1352.649     2503.132      689.177        2.822        0.227      225.859       20.713        0.008      344.207       20.860      857.907
09/16/2013  00:40:00     -151.581      175.038      -33.714       42.540       49.507       31.904     1809.624     2450.978     1017.853        3.001        0.264      231.549       29.166        0.016      344.267       20.960      857.892
09/16/2013  00:41:00     -155.621      119.852      -31.803       49.282       65.560       27.614     2428.759     4298.151      762.526        2.354        0.374      196.424       28.075        0.020      344.216       20.875      857.914
09/16/2013  00:42:00     -107.093      187.620      -37.369       66.974       79.723       40.950     4485.498     6355.822     1676.910        3.029        0.626      216.032       42.532        0.039      344.273       20.973      857.938
09/16/2013  00:43:00     -103.710      158.294      -22.872       53.682       63.945       38.225     2881.743     4088.971     1461.125        2.238        0.422      189.242       32.571        0.030      344.237       20.910      857.980
09/16/2013  00:44:00      -80.962       48.126        1.129       43.798       41.936       23.948     1918.294     1758.613      573.529        0.656        0.213       94.186       22.955        0.059      344.129       20.730      857.996
09/16/2013  00:45:00      -73.018       10.443        6.528       57.280       45.873       29.835     3281.038     2104.356      890.113        0.588        0.314       73.761       31.278        0.180      344.229       20.899      858.007
09/16/2013  00:46:00      -53.825      -38.806        4.723       52.147       48.336       24.548     2719.320     2336.384      602.620        0.504        0.283       66.355       16.307        0.060      343.976       20.468      858.030
09/16/2013  00:47:00     -123.393      -90.104        4.647       96.689       48.400       41.893     9348.758     2342.589     1755.004        1.840        0.672      152.789       43.398        0.081      343.798       20.162      858.057
09/16/2013  00:48:00     -201.901     -135.354       -1.432       88.473       94.679       51.027     7827.499     8964.178     2603.734        3.924        0.970      243.074       55.935        0.053      343.535       19.711      858.074
09/16/2013  00:49:00     -190.235      -84.040       10.585       73.750       67.824       41.421     5439.119     4600.142     1715.728        2.756        0.588      207.972       37.325        0.032      343.643       19.894      858.067
09/16/2013  00:50:00     -191.176      -35.752       -8.502       68.287       38.933       35.886     4663.118     1515.779     1287.831        2.268        0.373      194.491       35.245        0.033      343.513       19.674      858.044
09/16/2013  00:51:00     -214.981      -17.732      -24.246       63.101       52.197       31.829     3981.709     2724.489     1013.087        2.742        0.386      215.711       33.397        0.024      343.466       19.594      858.033
09/16/2013  00:52:00     -158.414       -9.632      -13.036       45.572       47.530       24.045     2076.766     2259.084      578.181        1.513        0.246      158.707       20.411        0.017      343.552       19.742      858.044
09/16/2013  00:53:00     -141.463      -43.483       -9.598       33.011       33.692       26.599     1089.706     1135.144      707.484        1.246        0.147      147.995       23.920        0.026      343.652       19.915      858.058
09/16/2013  00:54:00     -139.453       -0.878      -15.975       36.469       42.041       20.147     1330.022     1767.421      405.894        1.160        0.175      139.456       15.451        0.012      343.712       20.015      858.069
09/16/2013  00:55:00     -168.859       63.420      -20.300       46.416       31.312       25.496     2154.459      980.449      650.050        1.837        0.189      180.376       25.193        0.020      343.939       20.404      858.065
09/16/2013  00:56:00     -147.001       55.659      -11.849       47.687       26.708       20.391     2274.065      713.335      415.806        1.412        0.170      157.185       19.282        0.015      343.974       20.463      858.055
09/16/2013  00:57:00     -139.410       57.682      -17.505       34.104       32.415       20.243     1163.093     1050.713      409.792        1.285        0.131      150.872       14.395        0.009      344.155       20.775      858.060
09/16/2013  00:58:00     -150.742       54.745       -5.806       41.481       27.223       23.867     1720.702      741.103      569.620        1.439        0.152      160.375       18.413        0.013      344.296       21.013      858.049
09/16/2013  00:59:00     -134.725       30.688       -7.346       23.874       30.367       15.015      569.960      922.176      225.443        1.043        0.086      138.176        5.861        0.002      344.108       20.693      858.034
09/16/2013  01:00:00      -92.433       49.296       -2.663       57.659       32.533       33.475     3324.577     1058.382     1120.589        0.824        0.275      104.756       28.391        0.073      344.237       20.914      858.012
09/16/2013  01:01:00      -94.491       16.207       -8.604       47.795       49.452       27.483     2284.399     2445.538      755.340        0.737        0.274       95.871       22.118        0.053      343.992       20.496      857.997
09/16/2013  01:02:00      -91.768       42.382      -10.329       48.679       49.390       21.865     2369.681     2439.410      478.078        0.780        0.264      101.083       24.033        0.057      343.786       20.142      857.980
09/16/2013  01:03:00      -83.595       92.422      -21.959       51.799       48.831       29.543     2683.160     2384.428      872.763        1.098        0.297      124.619       30.417        0.060      344.031       20.561      857.978
09/16/2013  01:04:00      -60.212       21.892       -9.135       43.192       25.064       17.061     1865.571      628.197      291.080        0.349        0.139       64.068       21.358        0.111      343.940       20.406      857.996
09/16/2013  01:05:00      -21.040      -17.449        3.998       33.669       35.021       19.821     1133.608     1226.489      392.853        0.176        0.138       27.334       12.686        0.215      343.775       20.126      858.045
09/16/2013  01:06:00      -20.576      -26.775        4.166       29.979       29.338       18.158      898.762      860.746      329.704        0.162        0.104       33.767       21.243        0.396      343.429       19.533      858.096
09/16/2013  01:07:00        9.174      -21.832       11.110       16.199       30.846       16.065      262.393      951.500      258.091        0.108        0.074       23.681       11.279        0.227      343.549       19.738      858.128
09/16/2013  01:08:00       35.931      -15.884        4.864       34.067       28.082       19.898     1160.578      788.571      395.934        0.196        0.117       39.286       11.009        0.079      342.703       18.298      858.134
09/16/2013  01:09:00      -27.161      -21.403        7.732       38.392       22.893       21.630     1473.920      524.071      467.850        0.186        0.123       34.580       18.457        0.285      342.855       18.557      858.130
09/16/2013  01:10:00      -89.833      -35.443       -5.251       33.978       27.553       17.449     1154.529      759.187      304.483        0.579        0.111       96.572       13.375        0.019      343.199       19.142      858.101
09/16/2013  01:11:00      -42.709      -21.814       -2.690       21.179       17.915        7.202      448.559      320.940       51.862        0.156        0.041       47.958        3.941        0.007      343.235       19.204      858.058
09/16/2013  01:12:00      -71.393      -13.639       -8.929       35.671       17.143       13.164     1272.452      293.866      173.298        0.355        0.087       72.684       15.216        0.044      343.627       19.872      858.013
09/16/2013  01:13:00     -133.367        3.507      -11.640       46.581       34.779       16.055     2169.786     1209.592      257.773        1.079        0.182      133.413       12.892        0.009      343.424       19.526      858.012
09/16/2013  01:14:00     -155.850      -37.713      -15.841       40.299       46.525       27.560     1623.998     2164.587      759.543        1.525        0.227      160.348       21.930        0.019      343.429       19.534      858.041
09/16/2013  01:15:00     -118.522      -19.126       -1.027       49.322       51.430       22.936     2432.647     2645.041      526.068        1.001        0.280      120.055       20.670        0.030      343.131       19.026      858.084
09/16/2013  01:16:00     -117.296        2.472       -2.145       41.729       43.555       23.916     1741.286     1897.007      571.999        0.899        0.211      117.322       23.969        0.042      343.146       19.053      858.097
09/16/2013  01:17:00     -153.849       31.437      -14.789       27.094       29.421       17.342      734.103      865.612      300.729        1.339        0.095      157.028       13.219        0.007      343.175       19.103      858.082
09/16/2013  01:18:00     -148.342       14.685      -11.269       29.748       26.596       17.181      884.955      707.337      295.174        1.212        0.094      149.067       15.009        0.010      343.324       19.356      858.077
09/16/2013  01:19:00     -148.162        9.973      -15.715       35.979       35.709       23.836     1294.479     1275.133      568.158        1.272        0.157      148.497       17.287        0.014      343.240       19.212      858.082
09/16/2013  01:20:00     -158.662       26.454      -15.131       25.424       32.458       16.360      646.403     1053.504      267.653        1.403        0.098      160.852       12.337        0.006      343.347       19.394      858.088
09/16/2013  01:21:00      -96.290       27.158       -4.952       35.412       24.175       18.037     1254.018      584.407      325.324        0.610        0.108      100.047       14.567        0.021      343.430       19.536      858.086
09/16/2013  01:22:00      -16.828       44.061        1.928       52.358       19.418       21.005     2741.317      377.058      441.206        0.289        0.178       47.166       27.395        0.337      343.747       20.077      858.072
09/16/2013  01:23:00       32.645       36.565        5.478       23.316       18.420       18.061      543.656      339.302      326.197        0.182        0.060       49.017       13.205        0.073      343.138       19.038      858.066
09/16/2013  01:24:00      -28.452       18.885        4.064       35.191       25.972       15.619     1238.387      674.522      243.960        0.167        0.108       34.149       20.718        0.368      343.000       18.803      858.066
09/16/2013  01:25:00     -132.797      -43.957       -8.920       49.833       45.074       22.885     2483.355     2031.705      523.740        1.234        0.252      139.883       15.242        0.012      342.875       18.590      858.095
09/16/2013  01:26:00     -123.650      -10.213        0.844       53.587       37.118       29.761     2871.579     1377.736      885.702        1.026        0.257      124.071       31.373        0.064      342.825       18.505      858.120
09/16/2013  01:27:00     -107.443      -20.026       -3.862       39.359       46.991       21.077     1549.159     2208.131      444.242        0.808        0.210      109.294       19.068        0.030      342.810       18.480      858.162
09/16/2013  01:28:00      -63.844      -52.994        0.187       55.209       25.849       15.895     3048.024      668.192      252.648        0.543        0.198       82.972       18.149        0.048      343.029       18.853      858.208
09/16/2013  01:29:00       19.260      -99.653       -8.742       23.859       38.372       18.024      569.272     1472.425      324.854        0.637        0.118      101.497       16.892        0.028      343.239       19.211      858.270
09/16/2013  01:30:00       86.792     -128.548      -28.388       90.699       93.613       49.770     8226.273     8763.450     2477.070        2.216        0.973      155.105       47.785        0.095      342.882       18.602      858.296
09/16/2013  01:31:00       85.576      -88.191       15.020       84.982      100.846       41.746     7221.891    10169.862     1742.707        1.723        0.957      122.885       55.635        0.205      342.878       18.594      858.330
09/16/2013  01:32:00       15.996      -52.427       20.935       27.957       59.970       33.268      781.594     3596.441     1106.789        0.446        0.274       54.813       31.120        0.322      342.671       18.243      858.327
09/16/2013  01:33:00       59.077      -30.082       23.056       57.757       63.060       33.829     3335.841     3976.597     1144.380        0.669        0.423       66.295       41.339        0.389      342.500       17.953      858.320
09/16/2013  01:34:00       16.958       13.204       33.479       28.403       27.663       19.437      806.744      765.255      377.787        0.177        0.097       21.492       13.753        0.409      342.212       17.463      858.306
09/16/2013  01:35:00       46.004       -1.733       18.998       45.414       25.331       18.910     2062.427      641.657      357.574        0.277        0.153       46.037       16.087        0.122      342.103       17.278      858.285
09/16/2013  01:36:00       -5.224        0.474       15.419       26.125       11.801       13.834      682.540      139.265      191.369        0.064        0.051        5.245       13.107        6.244      342.157       17.369      858.274
09/16/2013  01:37:00      -38.864       -2.842        1.034       14.804       15.311        9.231      219.148      234.439       85.207        0.103        0.027       38.968        7.001        0.032      342.709       18.308      858.265
09/16/2013  01:38:00       19.806      -21.277       10.128       30.833       14.876       19.836      950.699      221.304      393.483        0.126        0.078       29.069       11.903        0.168      342.125       17.315      858.267
09/16/2013  01:39:00       36.757      -13.890       -0.311       40.048       19.931       21.713     1603.813      397.228      471.433        0.201        0.124       39.294       14.903        0.144      342.134       17.332      858.281
09/16/2013  01:40:00        1.262        8.222       -1.795       38.506       14.707       18.895     1482.745      216.283      357.016        0.106        0.103        8.318        5.449        0.429      342.643       18.197      858.307
09/16/2013  01:41:00      -77.886       -2.493       -5.726       26.109       13.692       12.292      681.657      187.466      151.093        0.356        0.051       77.926       12.053        0.024      342.679       18.257      858.322
09/16/2013  01:42:00      -55.503       -4.593       -1.990       24.576       20.077       13.147      603.961      403.073      172.848        0.214        0.059       55.693       12.579        0.051      342.516       17.982      858.332
09/16/2013  01:43:00      -42.670       39.957       -8.550       21.732       27.830       12.358      472.289      774.482      152.724        0.244        0.070       58.458       10.312        0.031      342.562       18.060      858.304
09/16/2013  01:44:00       13.503       45.359        3.082       30.218       16.974       11.060      913.116      288.103      122.318        0.179        0.066       47.326       16.134        0.116      342.801       18.464      858.297
09/16/2013  01:45:00       50.300        3.177        9.507       25.968       18.543       19.111      674.346      343.826      365.241        0.201        0.069       50.400       10.665        0.045      342.562       18.058      858.329
09/16/2013  01:46:00      -17.194        6.960        0.972       21.045       10.486        6.932      442.911      109.948       48.047        0.047        0.030       18.549        6.944        0.140      342.826       18.507      858.350
09/16/2013  01:47:00      -71.601       -5.043      -11.119       25.709       14.232       10.587      660.958      202.545      112.080        0.313        0.049       71.779       12.316        0.029      342.688       18.273      858.366
09/16/2013  01:48:00     -133.512      -27.300      -14.169       29.965       21.576       11.734      897.883      465.541      137.678        1.014        0.075      136.275        8.860        0.004      342.447       17.864      858.387
09/16/2013  01:49:00     -154.809      -42.828      -12.669       24.999       25.456       17.336      624.927      648.006      300.528        1.377        0.079      160.624       12.070        0.006      342.331       17.667      858.391
09/16/2013  01:50:00      -82.528      -31.159       -3.701       48.038       28.903       17.561     2307.696      835.377      308.405        0.562        0.173       88.215       19.000        0.046      342.321       17.649      858.382
09/16/2013  01:51:00      -69.645        2.681       -2.580       29.676       24.123       15.996      880.647      581.928      255.861        0.329        0.086       69.697       15.520        0.050      342.372       17.735      858.371
09/16/2013  01:52:00      -98.324        1.063       -7.128       28.038       24.821       14.573      786.127      616.081      212.372        0.567        0.081       98.330       11.658        0.014      342.473       17.906      858.345
09/16/2013  01:53:00      -68.390      -16.367       -5.081       30.537       24.922       15.856      932.532      621.121      251.419        0.339        0.090       70.321       14.373        0.042      342.390       17.766      858.323
09/16/2013  01:54:00      -56.467      -28.339        9.989       42.039       37.975       23.103     1767.285     1442.131      533.762        0.392        0.187       63.180       23.359        0.137      342.364       17.722      858.294
09/16/2013  01:55:00      -21.926      -38.760       -0.379       33.275       26.655       16.481     1107.215      710.469      271.610        0.204        0.104       44.531       11.910        0.072      342.465       17.894      858.305
09/16/2013  01:56:00      -50.108       -6.137       -0.401       32.749       23.309       14.976     1072.496      543.318      224.287        0.219        0.092       50.482       12.819        0.064      342.384       17.757      858.348
09/16/2013  01:57:00      -26.796       37.083       -4.809       25.327       28.191       13.305      641.457      794.734      177.011        0.186        0.081       45.751       18.384        0.161      342.385       17.758      858.363
09/16/2013  01:58:00       -7.504       -0.513       -0.983       25.978       24.734       13.677      674.868      611.757      187.067        0.077        0.074        7.522       11.406        2.300      342.419       17.817      858.384
09/16/2013  01:59:00       15.215        1.613       14.539       21.013       23.326       22.325      441.527      544.093      498.424        0.096        0.074       15.300       18.699        1.494      342.360       17.714      858.407
09/16/2013  02:00:00       -6.773       29.709       44.937       11.763       20.890       12.674      138.366      436.375      160.624        0.184        0.037       30.472       10.841        0.127      342.316       17.641      858.410
09/16/2013  02:01:00       17.473       30.298       39.175       21.170       14.100       12.101      448.177      198.796      146.423        0.178        0.040       34.975       13.392        0.147      342.333       17.668      858.373
09/16/2013  02:02:00       59.411       22.441       13.201       17.573       13.963       12.700      308.802      194.966      161.295        0.244        0.033       63.508        8.156        0.016      342.432       17.837      858.350
09/16/2013  02:03:00       48.165       25.557       21.884       18.123       19.222       16.947      328.434      369.482      287.188        0.222        0.049       54.526       10.018        0.034      342.391       17.769      858.366
09/16/2013  02:04:00       -0.064        3.037       24.010       20.021       34.008       16.868      400.821     1156.558      284.520        0.121        0.092        3.038       22.031       52.590      342.358       17.711      858.386
09/16/2013  02:05:00      -33.221      -21.703       -1.556       17.388       14.321        8.650      302.344      205.081       74.821        0.108        0.029       39.682        6.102        0.024      342.455       17.877      858.405
09/16/2013  02:06:00      -51.174       13.241       -9.538        7.841       11.605        6.180       61.478      134.678       38.195        0.156        0.012       52.859        3.521        0.004      342.578       18.086      858.419
09/16/2013  02:07:00      -85.863       52.196      -19.939       17.325       15.935        8.741      300.143      253.920       76.401        0.556        0.032      100.483       11.766        0.014      342.700       18.295      858.392
09/16/2013  02:08:00      -89.710       32.645       -9.840       22.896       20.005       18.755      524.247      400.180      351.753        0.524        0.064       95.465       13.966        0.021      342.352       17.701      858.343
09/16/2013  02:09:00      -95.975       35.016      -15.897       31.400       30.202       20.788      985.961      912.133      432.145        0.651        0.117      102.163       13.350        0.017      342.395       17.775      858.294
09/16/2013  02:10:00      -64.773       13.996       -6.955       26.054       30.267       15.468      678.822      916.093      239.264        0.314        0.092       66.268        9.246        0.019      342.439       17.849      858.293
09/16/2013  02:11:00       10.355       27.280        0.185       20.626       31.347       21.153      425.412      982.661      447.436        0.135        0.093       29.179       17.024        0.340      342.439       17.850      858.344
09/16/2013  02:12:00        6.665        1.964       11.880       16.655       29.916       18.228      277.374      894.981      332.249        0.085        0.075        6.948       16.211        5.443      342.205       17.452      858.404
09/16/2013  02:13:00      -34.847      -38.969      -11.755       45.689       25.421       19.768     2087.500      646.223      390.768        0.300        0.156       52.278       21.524        0.170      342.367       17.726      858.443
09/16/2013  02:14:00     -157.527      -47.817      -13.652       39.941       24.094       20.339     1595.300      580.520      413.684        1.494        0.129      164.625       19.283        0.014      342.238       17.508      858.463
09/16/2013  02:15:00     -188.222      -87.428      -11.783       27.189       22.019       15.639      739.215      484.844      244.571        2.234        0.073      207.536       11.130        0.003      342.181       17.410      858.468
09/16/2013  02:16:00     -167.318      -66.943       -9.712       43.800       28.191       23.683     1918.415      794.715      560.872        1.792        0.164      180.213       23.428        0.017      342.149       17.356      858.471
09/16/2013  02:17:00     -156.910      -12.029      -11.154       46.191       32.651       21.215     2133.647     1066.058      450.068        1.427        0.182      157.371       21.605        0.019      342.009       17.118      858.444
09/16/2013  02:18:00      -91.658       16.043       -0.715       54.090       37.576       35.987     2925.722     1411.965     1295.062        0.714        0.282       93.052       31.289        0.113      341.904       16.942      858.409
09/16/2013  02:19:00     -188.457       35.215      -19.642       50.906       46.971       31.273     2591.379     2206.280      978.015        2.146        0.289      191.718       25.008        0.017      341.953       17.021      858.375
09/16/2013  02:20:00     -169.540       -6.596      -15.516       45.155       44.236       28.876     2038.981     1956.864      833.841        1.693        0.241      169.668       24.602        0.021      341.893       16.922      858.332
09/16/2013  02:21:00     -162.288       30.668       -8.807       61.654       57.714       27.659     3801.176     3330.963      765.024        1.762        0.395      165.161       20.983        0.016      341.975       17.058      858.311
09/16/2013  02:22:00     -161.880      -28.107      -25.175       61.009       68.211       34.649     3722.145     4652.679     1200.547        1.860        0.479      164.302       34.710        0.045      342.052       17.191      858.352
09/16/2013  02:23:00     -155.454      -77.077      -13.898       35.765       33.351       25.584     1279.112     1112.274      654.536        1.667        0.152      173.513       17.700        0.010      341.963       17.039      858.389
09/16/2013  02:24:00     -109.320      -37.926        1.585       55.011       38.226       22.520     3026.237     1461.233      507.163        0.919        0.250      115.711       24.542        0.045      341.909       16.949      858.422
09/16/2013  02:25:00     -113.109      -31.012       -7.472       29.190       37.882       21.444      852.063     1435.061      459.857        0.828        0.137      117.283       20.217        0.030      341.972       17.057      858.449
09/16/2013  02:26:00      -48.468      -42.245        1.452       34.762       17.948       16.697     1208.388      322.147      278.774        0.297        0.090       64.295       14.014        0.048      342.079       17.237      858.499
09/16/2013  02:27:00      -34.716      -47.652        2.827       31.089       22.574       16.243      966.509      509.581      263.831        0.261        0.087       58.957       16.385        0.077      342.271       17.564      858.516
09/16/2013  02:28:00      -82.315       -8.896       -5.104       28.017       25.260       16.417      784.937      638.086      269.531        0.429        0.085       82.794       17.429        0.044      342.195       17.436      858.530
09/16/2013  02:29:00      -84.346       16.494       -3.654       27.404       20.638       12.553      750.973      425.911      157.588        0.437        0.067       85.944        9.258        0.012      342.083       17.246      858.524
09/16/2013  02:30:00     -115.594      -17.362        0.001       27.786       26.604       15.130      772.035      707.793      228.926        0.769        0.085      116.890       13.340        0.013      342.060       17.205      858.498
09/16/2013  02:31:00     -121.419      -35.090       -9.319       21.152       20.410       12.161      447.419      416.576      147.890        0.854        0.051      126.388        8.000        0.004      342.051       17.188      858.475
09/16/2013  02:32:00     -114.742      -41.057       -5.426       25.754       24.955       13.514      663.293      622.767      182.633        0.817        0.073      121.867        7.635        0.004      341.957       17.029      858.468
09/16/2013  02:33:00     -119.114      -50.684       -4.381       18.965       21.673       12.881      359.662      469.717      165.911        0.889        0.050      129.449        7.585        0.003      341.867       16.878      858.468
09/16/2013  02:34:00     -107.702      -29.709       -6.069       27.317       26.678       14.973      746.241      711.693      224.183        0.710        0.084      111.724       16.422        0.022      341.836       16.826      858.484
09/16/2013  02:35:00     -101.431      -17.425       -5.063       35.446       18.210       17.342     1256.426      331.613      300.751        0.625        0.094      102.917       19.976        0.038      341.778       16.726      858.501
09/16/2013  02:36:00      -78.236      -24.448       -2.875       19.082       13.444        8.422      364.123      180.748       70.926        0.367        0.031       81.967        7.635        0.009      341.758       16.693      858.503
09/16/2013  02:37:00      -92.439      -41.955       -7.768       19.483       14.335        9.788      379.572      205.488       95.803        0.552        0.034      101.514        9.348        0.008      341.861       16.868      858.507
09/16/2013  02:38:00     -126.993      -55.003      -10.299       15.412       18.490       12.279      237.539      341.863      150.766        0.999        0.037      138.393       10.118        0.005      341.934       16.992      858.523
09/16/2013  02:39:00      -65.000      -40.796        4.246       36.324       24.080       19.067     1319.462      579.823      363.561        0.408        0.113       76.742       14.265        0.035      341.856       16.859      858.541
09/16/2013  02:40:00      -99.196      -31.032       -0.952       40.119       20.951       17.598     1609.534      438.938      309.692        0.658        0.118      103.936       18.123        0.030      341.882       16.902      858.536
09/16/2013  02:41:00      -62.083      -41.445       -4.954       25.170       18.001       15.451      633.538      324.053      238.733        0.340        0.060       74.645       10.772        0.021      341.696       16.588      858.519
09/16/2013  02:42:00      -26.310       -7.151       -8.221       20.245       24.601        9.649      409.871      605.231       93.100        0.096        0.055       27.265        7.846        0.083      341.709       16.611      858.518
09/16/2013  02:43:00      -10.883        5.626       -5.714        8.584        6.316        5.360       73.685       39.892       28.729        0.016        0.007       12.251        3.172        0.067      341.766       16.706      858.516
09/16/2013  02:44:00        9.506       12.408       -0.755       12.705       11.562        6.527      161.419      133.671       42.608        0.029        0.017       15.631        4.745        0.092      341.773       16.718      858.507
09/16/2013  02:45:00      -28.735       43.980        5.105       54.163       23.847       25.637     2933.608      568.698      657.272        0.347        0.208       52.535       23.399        0.198      341.781       16.734      858.497
09/16/2013  02:46:00        7.722       78.640      -11.683       22.153       20.011       12.259      490.757      400.452      150.290        0.371        0.052       79.018        8.553        0.012      341.607       16.437      858.510
09/16/2013  02:47:00       25.080       52.492      -13.924       15.029       30.301       13.448      225.884      918.155      180.839        0.245        0.066       58.175       14.996        0.066      341.599       16.422      858.525
09/16/2013  02:48:00      -20.079       46.213       -9.107       22.549       22.319        9.318      508.461      498.154       86.833        0.186        0.055       50.387        7.595        0.023      341.707       16.605      858.547
09/16/2013  02:49:00      -68.166      -13.276      -13.816       28.978       32.095       17.222      839.708     1030.104      296.582        0.359        0.108       69.447       16.465        0.056      341.824       16.805      858.582
09/16/2013  02:50:00     -142.593      -88.296       -0.262       78.446       50.919       32.662     6153.758     2592.710     1066.809        1.897        0.491      167.716       36.651        0.048      341.577       16.383      858.626
09/16/2013  02:51:00     -142.137      -64.907       -7.790       66.240       43.446       22.831     4387.767     1887.573      521.246        1.564        0.340      156.255       22.108        0.020      341.649       16.506      858.661
09/16/2013  02:52:00      -67.805      -31.796       -3.823       43.425       26.836       18.928     1885.767      720.162      358.264        0.429        0.148       74.890       15.249        0.041      341.669       16.541      858.644
09/16/2013  02:53:00     -105.391       -2.488      -12.239       31.389       18.350       15.423      985.268      336.729      237.881        0.641        0.078      105.421       14.336        0.018      341.830       16.817      858.619
09/16/2013  02:54:00     -111.433      -46.622       -3.971       25.200       27.562       15.511      635.051      759.638      240.607        0.812        0.082      120.793       11.068        0.008      341.718       16.625      858.600
09/16/2013  02:55:00     -121.523      -22.208       -7.533       30.954       22.526       14.324      958.161      507.421      205.186        0.849        0.084      123.535       15.970        0.017      341.595       16.414      858.604
09/16/2013  02:56:00     -167.668      -46.176      -16.584       24.125       23.879       13.302      582.038      570.229      176.950        1.592        0.066      173.910       11.003        0.004      341.564       16.363      858.608
09/16/2013  02:57:00     -124.312      -56.549       -4.585       22.047       21.222       16.978      486.055      450.358      288.252        0.995        0.061      136.570       11.742        0.007      341.527       16.302      858.600
09/16/2013  02:58:00     -152.982      -41.660      -10.148       44.498       44.950       23.953     1980.032     2020.510      573.748        1.491        0.229      158.553       19.667        0.015      341.473       16.209      858.584
09/16/2013  02:59:00     -234.790       39.444      -14.207       58.543       37.623       27.102     3427.316     1415.494      734.525        3.123        0.279      238.080       30.885        0.017      341.564       16.359      858.572
09/16/2013  03:00:00     -181.233       34.903      -13.563       76.896       48.914       24.574     5912.979     2392.535      603.872        2.158        0.445      184.564       27.247        0.022      341.625       16.464      858.578
09/16/2013  03:01:00      -54.269        7.575        3.570       41.760       35.962       23.905     1743.865     1293.269      571.452        0.331        0.180       54.795       22.266        0.165      341.640       16.493      858.546
09/16/2013  03:02:00      -74.902        2.390      -11.238       40.749       46.284       25.178     1660.471     2142.170      633.925        0.509        0.222       74.940       29.615        0.156      341.777       16.726      858.529
09/16/2013  03:03:00       -1.507      -56.240        7.935       50.236       27.768       24.965     2523.676      771.036      623.253        0.357        0.196       56.260       25.148        0.200      341.664       16.535      858.541
09/16/2013  03:04:00      -37.161      -44.247        2.548       45.279       24.886       18.720     2050.158      619.323      350.421        0.318        0.151       57.781        8.347        0.021      341.595       16.416      858.564
09/16/2013  03:05:00      -28.160      -59.858       -2.115       48.656       27.797       22.798     2367.381      772.650      519.746        0.402        0.183       66.151       16.541        0.063      341.695       16.587      858.605
09/16/2013  03:06:00      -60.151      -42.397        2.004       41.248       27.274       23.858     1701.424      743.873      569.199        0.422        0.151       73.591       23.435        0.101      341.802       16.768      858.633
09/16/2013  03:07:00      -65.347      -21.016        4.200       40.560       17.384       11.791     1645.121      302.208      139.025        0.341        0.104       68.643       15.903        0.054      341.911       16.954      858.622
09/16/2013  03:08:00      -26.969      -16.417       -0.579       15.090       22.301        9.659      227.718      497.331       93.287        0.091        0.041       31.573        9.063        0.082      341.997       17.097      858.596
09/16/2013  03:09:00      -42.436      -30.959        0.695       33.360       17.584       13.465     1112.919      309.191      181.315        0.218        0.080       52.529       10.549        0.040      341.976       17.063      858.588
09/16/2013  03:10:00     -105.480      -31.838      -10.800       19.865       19.965        9.947      394.631      398.583       98.946        0.657        0.045      110.181        6.630        0.004      341.836       16.824      858.595
09/16/2013  03:11:00     -138.797      -56.420       -8.474       32.588       32.862       16.154     1061.948     1079.932      260.949        1.246        0.120      149.826       12.201        0.007      341.629       16.474      858.606
09/16/2013  03:12:00     -191.322      -84.010        1.469       47.485       48.423       28.018     2254.793     2344.750      785.019        2.452        0.269      208.954       23.946        0.013      341.549       16.335      858.613
09/16/2013  03:13:00     -178.494      -85.482       -3.199       45.187       35.694       24.054     2041.906     1274.040      578.575        2.154        0.195      197.907       19.538        0.010      341.644       16.496      858.623
09/16/2013  03:14:00      -92.706      -32.210        5.818       40.710       35.994       20.897     1657.270     1295.569      436.679        0.653        0.169       98.142       21.291        0.047      341.655       16.518      858.609
09/16/2013  03:15:00     -136.654        5.743      -10.700       43.353       27.748       24.656     1879.483      769.956      607.898        1.104        0.163      136.775       24.471        0.032      341.595       16.417      858.589
09/16/2013  03:16:00      -59.096      -11.799        0.348       48.098       35.075       21.931     2313.444     1230.283      480.980        0.383        0.201       60.262       18.972        0.099      341.568       16.371      858.557
09/16/2013  03:17:00      -42.781       -4.997       -5.942       27.678       22.882       14.419      766.077      523.574      207.914        0.169        0.075       43.071       10.416        0.058      341.759       16.694      858.547
09/16/2013  03:18:00        9.310      -27.869       -1.086       36.405       25.450       11.267     1325.350      647.700      126.956        0.148        0.105       29.383        9.391        0.102      341.729       16.641      858.544
09/16/2013  03:19:00        7.710       66.565      103.181       45.682       52.005       33.399     2086.843     2704.529     1115.482        1.052        0.295       67.010       33.907        0.256      341.472       16.208      858.571
09/16/2013  03:20:00      115.948       19.805       28.797       71.859       54.410       52.418     5163.773     2960.403     2747.669        1.277        0.544      117.627       28.149        0.057      341.114       15.602      858.601
09/16/2013  03:21:00        2.993        3.540       28.526       58.832       55.298       38.867     3461.254     3057.915     1510.657        0.443        0.401        4.636       33.110       51.017      341.249       15.833      858.629
09/16/2013  03:22:00      -40.993       -2.099       -2.070       36.630       21.484       19.014     1341.734      461.580      361.547        0.193        0.108       41.046       19.235        0.220      341.260       15.848      858.641
09/16/2013  03:23:00      -43.342      -10.855       -6.970       12.266       22.258       10.772      150.467      495.402      116.041        0.140        0.038       44.681       10.112        0.051      341.268       15.862      858.675
09/16/2013  03:24:00      -17.658       -6.861       -6.485       12.948       16.321        8.045      167.639      266.363       64.718        0.045        0.025       18.944        7.338        0.150      341.379       16.050      858.690
09/16/2013  03:25:00      -58.287       26.950       -6.034       27.628       10.301        9.469      763.334      106.119       89.669        0.256        0.048       64.216       11.835        0.034      341.452       16.174      858.660
09/16/2013  03:26:00      -11.989       64.426       -4.714       27.208       26.114       13.495      740.270      681.942      182.112        0.296        0.080       65.532        6.374        0.009      341.431       16.138      858.616
09/16/2013  03:27:00       12.022       88.344      -18.149       27.126       30.116       14.915      735.837      906.997      222.471        0.507        0.093       89.158       10.664        0.014      341.182       15.718      858.596
09/16/2013  03:28:00        1.236       76.032       -4.726       18.376       33.394       16.949      337.660     1115.174      287.270        0.377        0.087       76.042       14.919        0.038      341.127       15.624      858.620
09/16/2013  03:29:00       -2.985       70.766      -11.796       11.167       16.996        7.644      124.697      288.855       58.424        0.281        0.024       70.829        4.712        0.004      341.510       16.273      858.648
09/16/2013  03:30:00      -32.225       30.756      -10.002       27.044       37.193        9.347      731.374     1383.327       87.359        0.214        0.110       44.546       13.765        0.095      341.585       16.401      858.680
09/16/2013  03:31:00      -48.336       16.314       -9.158        9.595       16.038        7.313       92.062      257.221       53.486        0.154        0.020       51.015        3.426        0.005      341.397       16.082      858.695
09/16/2013  03:32:00        2.416       68.307      -12.871       15.609       11.986        7.030      243.632      143.665       49.420        0.264        0.022       68.350        5.730        0.007      341.783       16.734      858.675
09/16/2013  03:33:00      -71.084       72.022      -15.434       38.384       44.061       15.112     1473.310     1941.403      228.364        0.706        0.182      101.194       22.020        0.047      341.545       16.331      858.656
09/16/2013  03:34:00      -61.862       21.830      -11.205       20.518       20.027       12.298      421.005      401.062      151.246        0.270        0.049       65.601        6.467        0.010      341.298       15.914      858.637
09/16/2013  03:35:00      -27.491       39.553      -10.992       16.986       21.171       11.865      288.525      448.225      140.774        0.166        0.044       48.168       11.632        0.058      341.513       16.278      858.606
09/16/2013  03:36:00       -5.086       52.249       -2.530       25.104       13.901       10.546      630.200      193.237      111.219        0.185        0.047       52.496       11.168        0.045      341.516       16.282      858.603
09/16/2013  03:37:00        3.249       37.341       -0.347       20.745       22.858       15.901      430.351      522.486      252.829        0.131        0.060       37.482        9.383        0.063      341.424       16.125      858.615
09/16/2013  03:38:00      -19.147       23.854      -10.856       13.013       40.061        9.758      169.335     1604.849       95.218        0.146        0.093       30.588       15.087        0.243      341.610       16.443      858.662
09/16/2013  03:39:00        8.896       -3.287       13.844       14.473       15.715        7.304      209.481      246.968       53.347        0.040        0.025        9.484        4.031        0.181      341.485       16.231      858.675
09/16/2013  03:40:00        8.642       -2.626       -3.001       12.967       14.977        8.588      168.136      224.301       73.750        0.028        0.023        9.032        7.081        0.615      341.449       16.170      858.686
09/16/2013  03:41:00       -3.819      -11.065        0.129        9.124        7.386        8.917       83.255       54.559       79.512        0.018        0.011       11.706        5.649        0.233      341.432       16.141      858.680
09/16/2013  03:42:00      -40.930      -12.870       -2.846       25.236       10.714        8.676      636.846      114.787       75.278        0.134        0.041       42.906        5.667        0.017      341.420       16.118      858.665
09/16/2013  03:43:00      -71.907      -10.747      -12.581       13.334       16.202       13.082      177.809      262.497      171.128        0.303        0.031       72.706        6.966        0.009      341.369       16.033      858.650
09/16/2013  03:44:00      -54.396        1.918       -8.279       11.651        7.801        6.337      135.747       60.858       40.159        0.163        0.012       54.430        4.451        0.007      341.407       16.098      858.610
09/16/2013  03:45:00      -64.739       12.069      -10.033        8.310        7.879        6.397       69.049       62.079       40.922        0.230        0.009       65.854        4.414        0.004      341.380       16.052      858.577
09/16/2013  03:46:00      -20.491       20.686       -5.069       17.645        7.099        5.287      311.337       50.393       27.956        0.063        0.019       29.117        7.011        0.058      341.453       16.176      858.575
09/16/2013  03:47:00       -2.517       25.549       -2.086       13.465       11.708       11.016      181.302      137.071      121.347        0.055        0.022       25.673        8.417        0.107      341.529       16.304      858.605
09/16/2013  03:48:00      -45.835       -4.215       -4.788       20.734       15.360       10.788      429.898      235.930      116.389        0.146        0.039       46.029        8.500        0.034      341.342       15.988      858.656
09/16/2013  03:49:00      -59.914      -24.629       -8.646       13.866       18.579        9.131      192.277      345.186       83.379        0.245        0.031       64.778        8.107        0.016      341.181       15.716      858.689
09/16/2013  03:50:00      -12.043       -6.996       -4.926       15.009        5.081        7.500      225.275       25.817       56.257        0.026        0.015       13.927        6.499        0.218      341.268       15.862      858.683
09/16/2013  03:51:00        6.015       -1.353        2.130        6.444        7.257        6.585       41.525       52.670       43.360        0.009        0.007        6.165        3.859        0.392      341.282       15.886      858.670
09/16/2013  03:52:00       26.249       21.596       23.066       19.351       12.600       11.826      374.470      158.765      139.844        0.118        0.034       33.991       10.981        0.104      341.434       16.144      858.672
09/16/2013  03:53:00        2.675       12.002       18.444       11.926       13.920       15.012      142.241      193.763      225.346        0.053        0.028       12.297       12.893        1.099      341.410       16.103      858.679
09/16/2013  03:54:00       40.091       33.190       26.174       20.431       11.078       11.792      417.419      122.724      139.059        0.204        0.034       52.047       12.536        0.058      341.517       16.282      858.669
09/16/2013  03:55:00       61.949       36.763        9.624       23.144       11.343        9.687      535.623      128.656       93.831        0.302        0.038       72.036        5.076        0.005      341.630       16.476      858.647
09/16/2013  03:56:00       10.737       40.746       -4.580       23.756       20.187        9.852      564.349      407.521       97.056        0.143        0.053       42.137       11.312        0.072      341.658       16.524      858.636
09/16/2013  03:57:00      -35.122       35.584       -7.412       12.823       16.907        9.176      164.440      285.841       84.201        0.154        0.027       49.998        7.603        0.023      341.480       16.220      858.641
09/16/2013  03:58:00      -25.606       19.032       -2.764       23.136       18.218        8.197      535.283      331.911       67.198        0.098        0.047       31.904        7.659        0.058      341.416       16.113      858.661
09/16/2013  03:59:00      -32.971        1.406       -4.058        7.965       12.679        6.305       63.447      160.764       39.752        0.068        0.013       33.001        4.566        0.019      341.244       15.823      858.685
09/16/2013  04:00:00      -26.695       -1.354       -2.243        8.992        9.442        5.003       80.859       89.158       25.032        0.046        0.010       26.730        4.919        0.034      341.325       15.960      858.715
09/16/2013  04:01:00      -29.211        7.776       -5.933        5.597        9.273        4.864       31.323       85.996       23.661        0.054        0.007       30.228        5.187        0.029      341.405       16.094      858.718
09/16/2013  04:02:00      -18.357       16.223       -3.260       12.731       17.829        5.686      162.068      317.889       32.335        0.056        0.026       24.498        4.956        0.041      341.501       16.257      858.702
09/16/2013  04:03:00        3.908        9.746        2.289       14.053        7.735        8.303      197.495       59.824       68.941        0.022        0.016       10.501        5.977        0.324      341.412       16.107      858.701
09/16/2013  04:04:00       17.000        9.612        4.103       10.147        5.945        5.508      102.962       35.339       30.343        0.028        0.008       19.529        4.918        0.063      341.393       16.074      858.683
09/16/2013  04:05:00      -24.148       40.450      -12.575       17.655       15.313        7.156      311.717      234.473       51.204        0.149        0.030       47.110        7.969        0.029      341.574       16.380      858.657
09/16/2013  04:06:00      -33.678        0.824       -9.562       15.031        9.611        4.869      225.923       92.368       23.704        0.078        0.017       33.688        2.955        0.008      341.317       15.946      858.633
09/16/2013  04:07:00      -25.797       59.660      -12.872       11.555       33.927        8.839      133.513     1151.018       78.124        0.288        0.068       64.998       13.505        0.043      341.602       16.429      858.604
09/16/2013  04:08:00      -53.441       79.489      -19.175       18.591       18.497        8.532      345.626      342.149       72.792        0.515        0.038       95.784        5.223        0.003      341.680       16.561      858.595
09/16/2013  04:09:00      -45.548       86.861      -15.862       17.351       18.508       11.026      301.054      342.528      121.564        0.532        0.038       98.079        8.559        0.008      341.597       16.419      858.601
09/16/2013  04:10:00      -48.028       63.788      -11.111       18.024       34.973       13.798      324.868     1223.087      190.392        0.412        0.087       79.848        9.120        0.013      341.547       16.336      858.617
09/16/2013  04:11:00      -73.174      -19.435      -12.860       16.013       15.240       10.877      256.421      232.256      118.307        0.325        0.030       75.711        4.916        0.004      340.839       15.137      858.638
09/16/2013  04:12:00      -59.906      -29.916       -7.875       15.807       20.013       12.223      249.875      400.531      149.407        0.267        0.040       66.960        9.438        0.020      340.844       15.145      858.657
09/16/2013  04:13:00      -57.837      -35.193       -9.691       29.515       16.781       14.904      871.127      281.609      222.141        0.303        0.069       67.703        4.525        0.004      341.011       15.427      858.667
09/16/2013  04:14:00      -80.832      -12.353      -15.144        9.452       15.582       12.085       89.346      242.791      146.057        0.370        0.024       81.771        3.019        0.001      340.953       15.330      858.669
09/16/2013  04:15:00      -42.693      -23.217       -0.818       21.020       13.326       11.662      441.857      177.595      136.003        0.156        0.038       48.598       12.828        0.070      340.865       15.180      858.673
09/16/2013  04:16:00        2.697      -38.766      -13.401       10.436       12.043       10.328      108.900      145.025      106.663        0.103        0.018       38.859        8.252        0.045      340.928       15.287      858.687
09/16/2013  04:17:00      -17.283      -17.972        2.927       22.203       15.089       12.705      492.990      227.669      161.417        0.076        0.044       24.933        8.226        0.109      340.971       15.358      858.690
09/16/2013  04:18:00     -117.523      -40.571      -12.458       28.968       21.222       11.121      839.132      450.393      123.687        0.851        0.071      124.329        5.965        0.002      340.824       15.112      858.678
09/16/2013  04:19:00     -136.203      -19.868      -17.743       20.485       16.411       11.004      419.654      269.318      121.095        1.004        0.041      137.645        8.845        0.004      340.749       14.985      858.647
09/16/2013  04:20:00     -120.971      -25.414      -16.856       18.609       20.006       16.007      346.295      400.224      256.221        0.828        0.050      123.612       11.669        0.009      340.745       14.978      858.626
09/16/2013  04:21:00      -90.049       -0.639      -13.540       16.394       16.512       14.306      268.755      272.657      204.664        0.452        0.037       90.052        9.516        0.011      340.666       14.844      858.603
09/16/2013  04:22:00      -79.077        5.236      -12.430       15.510       18.849       11.200      240.546      355.294      125.440        0.358        0.036       79.250        8.271        0.011      340.930       15.291      858.589
09/16/2013  04:23:00      -67.497      -10.040      -12.823        9.110       22.074        9.588       82.995      487.245       91.932        0.274        0.033       68.240        4.679        0.005      341.021       15.446      858.600
09/16/2013  04:24:00      -71.936      -42.697      -18.164       15.088       15.866        9.614      227.653      251.744       92.436        0.395        0.029       83.653        7.075        0.007      340.834       15.128      858.632
09/16/2013  04:25:00     -103.053      -45.458      -18.894       17.827       26.960       17.552      317.803      726.860      308.074        0.720        0.068      112.634        6.543        0.003      340.706       14.912      858.661
09/16/2013  04:26:00     -106.578      -48.972      -19.029       13.086       23.712       14.691      171.253      562.251      215.834        0.753        0.047      117.291        7.239        0.004      340.674       14.859      858.680
09/16/2013  04:27:00     -111.062      -34.830      -17.489       10.348       11.683        8.300      107.073      136.499       68.894        0.708        0.016      116.395        6.227        0.003      340.596       14.726      858.671
09/16/2013  04:28:00     -100.042      -28.642      -20.188       11.624        9.106        7.429      135.128       82.918       55.189        0.575        0.014      104.061        2.935        0.001      340.682       14.872      858.659
09/16/2013  04:29:00     -127.187      -43.682      -15.571       17.213       12.407       11.277      296.277      153.929      127.174        0.945        0.029      134.479        8.396        0.004      340.744       14.977      858.659
09/16/2013  04:30:00      -87.369      -26.239       -6.566       20.834       19.993       13.429      434.066      399.733      180.346        0.469        0.051       91.224        8.805        0.009      340.764       15.009      858.660
09/16/2013  04:31:00      -43.914      -19.550       -8.644       19.094        9.678        7.967      364.582       93.669       63.468        0.145        0.026       48.069        8.657        0.032      340.945       15.315      858.649
09/16/2013  04:32:00      -47.242      -20.918      -11.890        7.578        9.301        6.006       57.429       86.504       36.068        0.150        0.009       51.666        3.854        0.006      341.305       15.925      858.630
09/16/2013  04:33:00     -109.592       -9.004      -19.672       26.411        8.393        7.585      697.553       70.441       57.534        0.665        0.041      109.961        6.866        0.004      340.954       15.331      858.614
09/16/2013  04:34:00     -112.050       -9.001      -19.038       19.092       11.297       11.704      364.487      127.627      136.982        0.681        0.031      112.411        8.219        0.005      340.810       15.089      858.601
09/16/2013  04:35:00      -92.789        9.022      -19.813       13.829       13.041       11.804      191.237      170.060      139.333        0.479        0.025       93.227        5.718        0.004      341.092       15.565      858.587
09/16/2013  04:36:00      -78.806       -0.229      -12.161       10.805       13.244       11.483      116.748      175.401      131.859        0.339        0.021       78.806        5.903        0.006      340.936       15.301      858.581
09/16/2013  04:37:00      -60.196      -11.208      -12.360       11.616       11.506        7.223      134.927      132.399       52.169        0.211        0.016       61.231        4.492        0.005      341.033       15.465      858.600
09/16/2013  04:38:00     -109.207      -24.050      -17.147       18.152        9.422        8.265      329.486       88.772       68.310        0.664        0.024      111.824        3.249        0.001      340.864       15.177      858.607
09/16/2013  04:39:00     -129.471      -54.300      -22.204       17.839       22.330       15.071      318.236      498.650      227.137        1.062        0.052      140.397        8.814        0.004      340.636       14.793      858.611
09/16/2013  04:40:00      -88.923      -40.422      -12.229       29.314       33.721       24.832      859.288     1137.099      616.652        0.615        0.131       97.679       18.421        0.036      340.577       14.694      858.628
09/16/2013  04:41:00      -80.437      -12.377      -13.185       34.952       25.455       16.607     1221.649      647.968      275.786        0.447        0.107       81.383        8.712        0.011      340.513       14.585      858.632
09/16/2013  04:42:00      -86.700      -14.318      -14.712       17.854       23.329       15.359      318.763      544.233      235.893        0.452        0.055       87.874        9.147        0.011      340.569       14.680      858.627
09/16/2013  04:43:00      -87.164      -26.919      -11.039       12.485       16.772       12.195      155.875      281.293      148.716        0.451        0.029       91.226        8.317        0.008      340.597       14.728      858.616
09/16/2013  04:44:00      -74.729      -42.443       -7.082       15.938       17.524       13.805      254.021      307.091      190.568        0.409        0.038       85.941        5.395        0.004      340.572       14.686      858.621
09/16/2013  04:45:00      -80.947      -35.497      -15.179       13.618       15.835       10.850      185.446      250.754      117.717        0.430        0.028       88.388       10.010        0.013      340.522       14.600      858.625
09/16/2013  04:46:00     -101.493      -25.674      -19.754       14.681       13.929       10.138      215.533      194.010      102.773        0.593        0.026      104.690        6.678        0.004      340.475       14.521      858.630
09/16/2013  04:47:00     -122.954      -28.211      -24.586       16.255       14.970       11.387      264.228      224.090      129.674        0.857        0.031      126.149        7.160        0.003      340.477       14.523      858.641
09/16/2013  04:48:00     -122.564       -2.567      -21.646       18.418       19.848       19.439      339.224      393.958      377.889        0.830        0.056      122.591        9.572        0.006      340.505       14.572      858.622
09/16/2013  04:49:00      -93.745      -14.109      -24.618       18.273       15.886       11.109      333.903      252.352      123.417        0.515        0.035       94.801       10.215        0.012      340.532       14.618      858.589
09/16/2013  04:50:00      -99.865      -39.933      -13.516       21.675       19.677       13.874      469.822      387.198      192.492        0.640        0.052      107.553        9.936        0.009      340.567       14.677      858.587
09/16/2013  04:51:00     -109.335      -15.734      -11.901       16.693       28.158       16.421      278.641      792.850      269.636        0.684        0.067      110.461       11.101        0.010      340.555       14.655      858.599
09/16/2013  04:52:00     -111.169       -8.063       -7.841       35.193       25.118       17.559     1238.545      630.899      308.305        0.733        0.109      111.461        9.378        0.007      340.671       14.854      858.601
09/16/2013  04:53:00      -93.633      -16.422      -12.496       30.492       20.385       15.840      929.744      415.533      250.897        0.539        0.080       95.062       14.205        0.022      340.608       14.747      858.621
09/16/2013  04:54:00      -71.991      -25.224      -11.781       51.248       25.814       25.480     2626.369      666.341      649.248        0.495        0.197       76.282       15.512        0.041      340.540       14.632      858.633
09/16/2013  04:55:00      -66.716      -19.903      -17.355       56.405       35.379       26.916     3181.472     1251.638      724.448        0.515        0.258       69.622       28.917        0.173      340.440       14.463      858.644
09/16/2013  04:56:00     -125.526      -67.751      -14.709       51.226       44.403       31.033     2624.075     1971.626      963.046        1.306        0.278      142.643       16.787        0.014      340.310       14.242      858.666
09/16/2013  04:57:00     -135.773      -45.625       -4.917       45.484       59.561       24.629     2068.762     3547.515      606.610        1.338        0.311      143.234       24.744        0.030      340.292       14.212      858.671
09/16/2013  04:58:00     -108.384       22.426      -13.285       55.633       49.340       32.655     3095.042     2434.461     1066.334        0.951        0.330      110.680       25.275        0.052      340.394       14.383      858.655
09/16/2013  04:59:00      -93.733       71.474       -9.937       47.115       58.769       29.045     2219.823     3453.756      843.597        1.025        0.326      117.875       18.799        0.025      340.696       14.895      858.633
09/16/2013  05:00:00      -72.994        7.507      -18.429       18.530       30.710       16.299      343.368      943.099      265.664        0.364        0.078       73.379       11.046        0.023      340.705       14.910      858.630
09/16/2013  05:01:00      -51.260      -31.452      -10.092       14.674       17.528       16.309      215.312      307.214      265.975        0.225        0.039       60.140        9.917        0.027      340.769       15.018      858.640
09/16/2013  05:02:00      -36.612      -29.486       -5.342       17.410       27.993       17.117      303.097      783.606      293.003        0.181        0.069       47.009       15.599        0.110      340.648       14.814      858.647
09/16/2013  05:03:00      -56.981      -41.724      -14.838       36.994       29.316       23.547     1368.588      859.405      554.466        0.399        0.139       70.624       22.119        0.098      340.546       14.641      858.656
09/16/2013  05:04:00     -106.730      -26.955      -19.984       25.590       27.957       22.724      654.837      781.588      516.369        0.723        0.098      110.081       17.226        0.024      340.611       14.751      858.679
09/16/2013  05:05:00     -106.098      -28.370        1.296       23.199       26.895       22.975      538.205      723.332      527.842        0.693        0.089      109.826       18.505        0.028      340.584       14.706      858.690
09/16/2013  05:06:00     -158.156      -10.212      -20.142       18.039       18.583       11.487      325.393      345.343      131.961        1.316        0.040      158.485       10.754        0.005      340.602       14.735      858.697
09/16/2013  05:07:00      -97.206      -34.361      -16.736       21.612       18.265       17.468      467.059      333.607      305.128        0.601        0.055      103.100       12.949        0.016      340.563       14.670      858.704
09/16/2013  05:08:00     -102.410      -14.817      -14.650       26.017       19.596       15.003      676.881      384.021      225.093        0.610        0.064      103.476       11.712        0.013      340.509       14.578      858.707
09/16/2013  05:09:00      -62.328        7.027      -10.666       22.765       20.371       17.021      518.237      414.983      289.700        0.264        0.061       62.723        8.173        0.017      340.684       14.875      858.707
09/16/2013  05:10:00      -46.016        1.774      -13.864        9.386       10.422       10.337       88.088      108.615      106.853        0.131        0.015       46.051        6.785        0.022      340.831       15.123      858.703
09/16/2013  05:11:00      -69.494      -13.884      -10.829       15.777       16.040        7.819      248.916      257.296       61.139        0.285        0.028       70.867        3.396        0.002      340.780       15.037      858.701
09/16/2013  05:12:00     -107.287      -56.384      -16.767       27.324       24.134       11.275      746.625      582.432      127.121        0.821        0.073      121.201        6.088        0.003      340.738       14.967      858.730
09/16/2013  05:13:00     -151.361      -77.090      -18.821       18.595       28.141       15.563      345.769      791.891      242.205        1.529        0.069      169.862       10.364        0.004      340.700       14.901      858.756
09/16/2013  05:14:00     -179.219      -40.664      -11.311       34.926       25.201       23.863     1219.806      635.089      569.453        1.816        0.121      183.774       19.971        0.012      340.691       14.888      858.774
09/16/2013  05:15:00     -132.875      -31.783      -15.633       31.623       35.306       17.716     1000.017     1246.515      313.846        1.073        0.128      136.623       11.376        0.007      340.638       14.798      858.782
09/16/2013  05:16:00      -93.763      -11.302      -16.214       33.911       24.368       16.666     1149.984      593.823      277.740        0.560        0.101       94.442       16.813        0.032      340.631       14.784      858.767
09/16/2013  05:17:00     -113.728       15.481      -19.302       23.023       21.796       15.465      530.070      475.083      239.177        0.740        0.062      114.776        8.514        0.006      340.720       14.935      858.733
09/16/2013  05:18:00      -87.258      -27.272      -10.800       19.741       26.897       15.955      389.704      723.458      254.556        0.492        0.068       91.421        9.774        0.011      340.753       14.990      858.731
09/16/2013  05:19:00     -132.284      -47.298      -23.028       24.700       36.716       18.812      610.074     1348.072      353.901        1.129        0.116      140.486       19.621        0.020      340.838       15.134      858.747
09/16/2013  05:20:00     -128.679      -77.286      -14.790       29.398       34.159       23.553      864.250     1166.864      554.738        1.267        0.129      150.105       12.787        0.007      340.696       14.895      858.743
09/16/2013  05:21:00     -103.653      -70.678       -6.349       52.775       39.503       26.273     2785.160     1560.478      690.246        1.041        0.252      125.456       24.616        0.038      340.613       14.755      858.742
09/16/2013  05:22:00      -65.977      -18.964        9.201       74.542       35.280       29.935     5556.540     1244.659      896.079        0.625        0.385       68.648       37.124        0.292      340.508       14.577      858.740
09/16/2013  05:23:00      -94.318      -45.284      -12.390       47.279       39.358       28.413     2235.290     1549.087      807.302        0.784        0.230      104.625       25.262        0.058      340.527       14.608      858.754
09/16/2013  05:24:00     -113.724        5.674      -13.233       34.484       27.037       21.904     1189.169      731.013      479.765        0.777        0.120      113.865       16.342        0.021      340.533       14.619      858.760
09/16/2013  05:25:00      -87.879        2.319      -13.875       23.571       33.381       23.977      555.577     1114.311      574.897        0.508        0.112       87.910       14.928        0.029      340.575       14.691      858.765
09/16/2013  05:26:00     -101.821      -42.211        2.485       24.583       37.094       19.762      604.346     1375.932      390.533        0.726        0.119      110.224        8.035        0.005      340.712       14.922      858.780
09/16/2013  05:27:00      -90.707      -54.999       -4.617       62.280       37.974       27.964     3878.853     1442.038      781.999        0.869        0.305      106.079       22.522        0.045      340.583       14.702      858.811
09/16/2013  05:28:00     -118.835      -68.849       -6.815       47.811       38.215       27.954     2285.873     1460.393      781.436        1.172        0.226      137.338       24.539        0.032      340.471       14.513      858.837
09/16/2013  05:29:00      -84.084      -30.352       -5.352       16.164       17.620       13.355      261.266      310.472      178.355        0.438        0.038       89.395       10.218        0.013      340.586       14.709      858.846
09/16/2013  05:30:00      -89.667      -13.247      -17.875       11.453       16.046        9.820      131.172      257.490       96.426        0.451        0.024       90.640        5.467        0.004      340.647       14.812      858.826
09/16/2013  05:31:00     -107.818       -2.310      -20.880       26.088       25.296       14.551      680.579      639.879      211.727        0.680        0.077      107.843       12.129        0.013      340.671       14.854      858.810
09/16/2013  05:32:00      -89.522      -21.339      -11.843       22.574       27.904       12.373      509.600      778.632      153.096        0.503        0.072       92.030        8.772        0.009      340.640       14.801      858.794
09/16/2013  05:33:00     -121.247      -43.181       -7.521       36.461       38.936       26.866     1329.390     1515.991      721.793        1.009        0.178      128.706       17.956        0.019      340.595       14.726      858.801
09/16/2013  05:34:00      -78.953      -57.295       -5.131       51.365       54.947       25.786     2638.319     3019.176      664.939        0.793        0.316       97.552       23.955        0.060      340.446       14.472      858.823
09/16/2013  05:35:00     -128.094      -33.544       -2.886       42.338       42.518       23.542     1792.514     1807.805      554.209        1.085        0.208      132.414       24.402        0.034      340.514       14.587      858.836
09/16/2013  05:36:00     -124.959      -49.022      -13.784       39.238       33.502       20.002     1539.653     1122.377      400.065        1.063        0.153      134.231       19.391        0.021      340.480       14.531      858.842
09/16/2013  05:37:00     -109.965       -5.748        6.111       45.999       37.372       23.100     2115.922     1396.699      533.615        0.810        0.202      110.115       21.067        0.037      340.625       14.773      858.840
09/16/2013  05:38:00      -75.903      -13.457       -6.300       62.364       33.204       22.564     3889.316     1102.507      509.135        0.574        0.275       77.086       24.329        0.100      340.557       14.660      858.825
09/16/2013  05:39:00      -46.955       -6.174       -8.637       35.650       41.686       18.334     1270.892     1737.756      336.147        0.283        0.167       47.359       10.771        0.052      340.780       15.037      858.796
09/16/2013  05:40:00      -72.139      -23.201       -9.945       23.121       23.938       18.269      534.589      573.038      333.742        0.364        0.072       75.778       14.506        0.037      340.753       14.992      858.770
09/16/2013  05:41:00      -59.280      -35.973      -10.544       41.199       27.336       26.230     1697.363      747.242      688.001        0.403        0.157       69.341       15.972        0.053      340.567       14.676      858.761
09/16/2013  05:42:00      -77.265      -39.349      -15.082       49.218       39.759       33.329     2422.457     1580.806     1110.797        0.643        0.256       86.708       29.486        0.116      340.508       14.577      858.787
09/16/2013  05:43:00     -133.976      -55.566      -28.862       24.295       36.674       17.954      590.262     1344.960      322.345        1.206        0.113      145.042       13.137        0.008      340.513       14.586      858.824
09/16/2013  05:44:00     -138.074      -55.179      -16.687       37.821       28.493       19.576     1430.421      811.850      383.231        1.251        0.131      148.691       13.847        0.009      340.520       14.596      858.856
09/16/2013  05:45:00     -121.267      -44.470      -11.376       31.254       23.018       25.200      976.807      529.850      635.023        0.948        0.107      129.163       22.014        0.029      340.679       14.866      858.867
09/16/2013  05:46:00     -112.441      -35.575       -5.893       37.355       24.027       22.604     1395.405      577.296      510.951        0.821        0.124      117.935       18.452        0.024      340.636       14.793      858.859
09/16/2013  05:47:00      -26.243      -12.564       -2.023       42.200       22.001       14.723     1780.863      484.049      216.766        0.167        0.124       29.095       15.543        0.285      340.866       15.183      858.846
09/16/2013  05:48:00      -43.852      -11.928      -12.436       20.017       11.051       11.165      400.668      122.129      124.664        0.143        0.032       45.445        9.183        0.041      340.823       15.110      858.844
09/16/2013  05:49:00      -20.131       -5.930        4.955       20.830       14.723       17.835      433.887      216.755      318.080        0.072        0.048       20.986       15.545        0.549      341.430       16.136      858.853
09/16/2013  05:50:00       -6.272      -34.768       -2.133       43.146       11.386       15.741     1861.612      129.632      247.789        0.175        0.112       35.329       15.690        0.197      340.782       15.040      858.864
09/16/2013  05:51:00      -76.788      -45.259       -6.946       20.341       24.004       15.989      413.751      576.175      255.647        0.462        0.062       89.134        8.034        0.008      340.819       15.103      858.867
09/16/2013  05:52:00     -136.437      -58.575      -20.474       24.774       30.097       14.884      613.749      905.811      221.547        1.210        0.087      148.479       12.872        0.008      340.684       14.876      858.869
09/16/2013  05:53:00     -107.609      -60.236      -10.767       32.298       25.179       25.688     1043.188      633.984      659.853        0.883        0.117      123.321        8.615        0.005      340.596       14.725      858.890
09/16/2013  05:54:00     -117.222      -70.001      -11.425       63.991       50.221       31.674     4094.906     2522.133     1003.214        1.319        0.381      136.532       29.392        0.046      340.542       14.633      858.908
09/16/2013  05:55:00     -153.761      -65.665       -4.251       44.154       55.057       26.153     1949.539     3031.263      683.994        1.682        0.283      167.196       21.562        0.017      340.528       14.610      858.916
09/16/2013  05:56:00      -67.357      -11.519        7.963       64.802       39.989       29.488     4199.306     1599.139      869.556        0.570        0.333       68.335       34.413        0.254      340.566       14.676      858.913
09/16/2013  05:57:00      -55.308       -8.071        4.089       38.494       37.332       31.873     1481.817     1393.704     1015.909        0.352        0.195       55.894       23.679        0.179      340.696       14.895      858.918
09/16/2013  05:58:00     -103.651      -66.172        0.066       55.396       39.543       30.302     3068.682     1563.647      918.230        1.034        0.278      122.972       28.762        0.055      340.550       14.648      858.922
09/16/2013  05:59:00      -69.848      -40.495        6.842       51.690       34.756       24.217     2671.828     1207.989      586.483        0.551        0.223       80.738       20.924        0.067      340.524       14.604      858.934
09/16/2013  06:00:00     -111.008      -54.659       -9.746       33.633       22.811       21.089     1131.174      520.348      444.753        0.875        0.105      123.736       16.225        0.017      340.583       14.704      858.941
09/16/2013  06:01:00     -137.919      -34.953      -20.581       22.726       21.652       14.879      516.477      468.823      221.380        1.094        0.060      142.279        7.387        0.003      340.645       14.810      858.937
09/16/2013  06:02:00     -133.960      -37.558      -13.370       42.498       33.202       21.836     1806.113     1102.362      476.829        1.146        0.169      139.126       19.784        0.020      340.736       14.963      858.932
09/16/2013  06:03:00      -45.569       19.054       11.869       61.818       37.011       32.896     3821.496     1369.830     1082.179        0.443        0.314       49.392       36.356        0.542      340.732       14.955      858.924
09/16/2013  06:04:00      -72.972       43.650      -12.988       54.881       49.427       35.223     3011.899     2442.980     1240.682        0.705        0.335       85.031       26.796        0.099      341.074       15.535      858.905
09/16/2013  06:05:00      -57.976       80.743      -15.106       30.490       28.413       19.954      929.619      807.301      398.158        0.612        0.107       99.401       16.083        0.026      341.304       15.924      858.884
09/16/2013  06:06:00       36.769        6.366       16.028       29.138       36.835       19.336      849.044     1356.803      373.887        0.211        0.129       37.316       16.693        0.200      340.986       15.386      858.872
09/16/2013  06:07:00       16.560      -48.257       -6.104       25.386       33.903       19.089      644.466     1149.410      364.375        0.240        0.108       51.019        4.740        0.009      340.924       15.281      858.874
09/16/2013  06:08:00       18.595      -64.631      -14.695       47.475       28.596       21.528     2253.841      817.724      463.463        0.414        0.177       67.253       12.325        0.034      340.624       14.773      858.888
09/16/2013  06:09:00     -145.109      -44.401      -16.256       47.942       20.049       22.699     2298.472      401.981      515.260        1.325        0.161      151.750       13.007        0.007      340.692       14.889      858.880
09/16/2013  06:10:00     -172.833      -57.147       -8.947       32.633       28.282       21.055     1064.913      799.886      443.294        1.776        0.115      182.036       12.706        0.005      340.655       14.825      858.875
09/16/2013  06:11:00     -172.484      -54.011       -8.727       38.352       36.113       24.134     1470.889     1304.130      582.471        1.805        0.168      180.743       21.407        0.014      340.603       14.737      858.877
09/16/2013  06:12:00     -179.703      -61.800       -1.123       50.712       37.926       28.806     2571.658     1438.358      829.805        2.048        0.242      190.033       27.989        0.022      340.561       14.665      858.883
09/16/2013  06:13:00     -165.774      -58.862       -4.325       68.843       63.025       32.998     4739.402     3972.163     1088.845        2.038        0.490      175.914       33.560        0.036      340.504       14.569      858.883
09/16/2013  06:14:00     -155.205      -42.153        1.455       50.333       57.899       31.114     2533.433     3352.296      968.097        1.636        0.343      160.828       29.856        0.034      340.328       14.273      858.882
09/16/2013  06:15:00     -131.885      -38.808       -5.543       49.480       42.637       24.088     2448.306     1817.896      580.243        1.189        0.242      137.476       23.967        0.030      340.390       14.378      858.886
09/16/2013  06:16:00      -62.384      -42.842        1.532       55.351       31.071       20.724     3063.685      965.385      429.500        0.509        0.223       75.678       23.357        0.095      340.384       14.368      858.901
09/16/2013  06:17:00      -76.969      -42.411       -4.732       29.912       23.158       17.993      894.721      536.288      323.746        0.475        0.088       87.880       15.899        0.033      340.471       14.514      858.925
09/16/2013  06:18:00      -95.863      -38.456       -9.291       20.035       39.581       15.500      401.420     1566.675      240.252        0.648        0.110      103.289        9.294        0.008      340.506       14.573      858.923
09/16/2013  06:19:00      -53.770        8.861        0.053       22.671       24.408       11.182      513.969      595.728      125.045        0.210        0.062       54.495       11.556        0.045      340.450       14.478      858.915
09/16/2013  06:20:00      -63.861      -16.492       -1.046       15.393       17.324       11.041      236.949      300.109      121.913        0.251        0.033       65.956        8.562        0.017      340.592       14.720      858.914
09/16/2013  06:21:00      -52.843      -27.172      -11.409       20.203       14.338       12.405      408.148      205.585      153.881        0.221        0.038       59.420        9.161        0.024      340.667       14.846      858.918
09/16/2013  06:22:00      -93.238      -58.299      -17.417       32.873       29.408       16.392     1080.612      864.855      268.713        0.730        0.111      109.964       11.780        0.011      340.670       14.851      858.928
09/16/2013  06:23:00     -142.549      -89.678       -0.125       45.467       35.743       25.959     2067.226     1277.550      673.869        1.619        0.201      168.411       21.009        0.016      340.494       14.553      858.940
09/16/2013  06:24:00     -157.583      -42.747       -1.081       51.428       44.600       25.972     2644.876     1989.170      674.549        1.598        0.265      163.278       18.761        0.013      340.344       14.301      858.949
09/16/2013  06:25:00     -124.479        3.485       -2.165       55.036       48.321       23.558     3028.953     2334.882      554.966        1.071        0.296      124.528       23.029        0.034      340.409       14.409      858.940
09/16/2013  06:26:00     -163.170       44.539      -11.748       55.317       51.223       32.182     3059.950     2623.756     1035.706        1.773        0.336      169.140       28.249        0.028      340.639       14.797      858.928
09/16/2013  06:27:00     -110.932       -6.058       -8.165       44.873       42.257       20.996     2013.597     1785.680      440.839        0.832        0.212      111.097       16.068        0.021      340.608       14.746      858.923
09/16/2013  06:28:00      -48.895      -10.054        5.212       30.030       27.536       14.637      901.829      758.249      214.253        0.220        0.094       49.918       13.231        0.070      340.501       14.565      858.933
09/16/2013  06:29:00      -11.810      -21.664       -1.765       24.503       12.050        9.456      600.393      145.201       89.420        0.072        0.042       24.674        4.706        0.036      340.522       14.600      858.943
09/16/2013  06:30:00       -8.739       -8.027       -6.859       21.392       10.345       13.892      457.611      107.021      192.990        0.047        0.038       11.866       13.130        1.224      340.509       14.579      858.951
09/16/2013  06:31:00      -80.579      -21.545       -8.081       25.232       18.681       13.292      636.674      348.975      176.682        0.409        0.058       83.410        8.316        0.010      340.608       14.748      858.958
09/16/2013  06:32:00     -119.586      -46.395      -14.895       14.239       16.078       11.342      202.757      258.510      128.639        0.863        0.029      128.271        6.965        0.003      340.494       14.554      858.970
09/16/2013  06:33:00      -39.394      -51.835       12.750       62.742       59.672       36.765     3936.537     3560.734     1351.693        0.662        0.442       65.106       35.932        0.305      340.345       14.301      859.003
09/16/2013  06:34:00       -4.066        6.857       18.556       37.968       28.130       24.019     1441.535      791.272      576.894        0.161        0.140        7.972       21.349        7.173      340.398       14.391      859.035
09/16/2013  06:35:00      -20.140       26.371       -5.228       32.786       38.282       25.393     1074.946     1465.483      644.807        0.216        0.159       33.182       14.738        0.197      340.419       14.428      859.051
09/16/2013  06:36:00       -8.241      -10.332        6.732       14.044       24.722       19.220      197.247      611.158      369.407        0.070        0.059       13.216       14.190        1.153      340.256       14.150      859.055
09/16/2013  06:37:00      -70.941      -19.581       -4.423       26.463       21.034       16.932      700.272      442.428      286.678        0.343        0.071       73.594       13.868        0.036      340.411       14.413      859.031
09/16/2013  06:38:00      -39.173      -23.614        1.331       21.736       14.605       12.192      472.470      213.313      148.646        0.146        0.042       45.740        7.976        0.030      340.469       14.508      859.032
09/16/2013  06:39:00       -8.757        2.984        4.423       16.909        9.423        7.016      285.911       88.792       49.225        0.026        0.021        9.252        4.514        0.238      340.446       14.470      859.037
09/16/2013  06:40:00        0.002        1.220        5.237       13.535       16.712       12.087      183.188      279.276      146.089        0.032        0.030        1.220        8.398       47.347      340.294       14.214      859.054
09/16/2013  06:41:00      -69.881      -23.895       -0.034       35.797       12.817        9.446     1281.395      164.263       89.231        0.349        0.077       73.853       14.495        0.039      340.471       14.512      859.073
09/16/2013  06:42:00      -96.889      -42.251      -12.082       20.507       13.970        9.872      420.523      195.169       97.457        0.602        0.036      105.701        4.192        0.002      340.513       14.587      859.086
09/16/2013  06:43:00     -119.724      -49.260      -11.749       14.652       14.964        8.815      214.686      223.915       77.700        0.871        0.026      129.462        6.630        0.003      340.511       14.582      859.101
09/16/2013  06:44:00     -122.205      -45.798       -9.640       14.893       16.503       10.716      221.805      272.333      114.828        0.887        0.030      130.504        7.141        0.003      340.390       14.377      859.117
09/16/2013  06:45:00     -118.193      -36.138       -9.578       25.634       17.755       11.842      657.117      315.235      140.242        0.824        0.056      123.594       10.367        0.007      340.425       14.436      859.136
09/16/2013  06:46:00     -102.640      -18.365       -5.044       16.197       17.493       11.519      262.338      306.010      132.676        0.580        0.035      104.270        6.045        0.003      340.478       14.526      859.146
09/16/2013  06:47:00      -72.495      -19.633        1.133       28.569       21.306       13.554      816.206      453.940      183.705        0.355        0.073       75.106       15.277        0.041      340.433       14.452      859.151
09/16/2013  06:48:00      -46.828      -27.186        0.690       32.965       12.737       13.112     1086.673      162.238      171.920        0.218        0.071       54.148        8.909        0.027      340.510       14.580      859.160
09/16/2013  06:49:00      -38.231      -20.807       -0.001       21.379       13.751        8.733      457.067      189.079       76.260        0.131        0.036       43.526        8.760        0.041      340.540       14.631      859.166
09/16/2013  06:50:00      -64.023      -14.101       -7.496       12.035       14.191        8.497      144.829      201.372       72.207        0.239        0.021       65.557        6.383        0.009      340.555       14.654      859.176
09/16/2013  06:51:00      -85.141      -29.291      -10.382       10.967       15.647        7.316      120.276      244.844       53.519        0.432        0.021       90.039        1.463        0.000      340.530       14.614      859.191
09/16/2013  06:52:00      -69.557      -29.896      -11.368       14.800       15.702        9.277      219.038      246.558       86.059        0.321        0.028       75.710        6.553        0.007      340.529       14.613      859.224
09/16/2013  06:53:00      -78.323      -44.985       -7.634       20.181       19.123       14.209      407.284      365.697      201.902        0.460        0.049       90.322        8.169        0.008      340.442       14.466      859.250
09/16/2013  06:54:00      -15.603      -22.245        6.251       33.981       19.805       10.112     1154.739      392.256      102.257        0.121        0.082       27.171       12.183        0.201      340.305       14.234      859.270
09/16/2013  06:55:00        3.140      -12.118       21.502       13.575       16.808       10.035      184.291      282.513      100.701        0.059        0.028       12.518        8.083        0.417      340.338       14.289      859.289
09/16/2013  06:56:00       39.409      -43.867        0.989       44.518       40.849       37.985     1981.840     1668.607     1442.838        0.428        0.255       58.970       33.788        0.328      340.279       14.190      859.281
09/16/2013  06:57:00        7.644        2.106       12.267       21.438       33.420       21.187      459.583     1116.881      448.899        0.112        0.101        7.928       16.560        4.363      340.200       14.056      859.270
09/16/2013  06:58:00        0.769      -23.170        5.163       14.241       15.037       12.856      202.808      226.109      165.270        0.058        0.030       23.183       10.384        0.201      340.180       14.022      859.261
09/16/2013  06:59:00      -57.066       -5.607      -12.716       30.669       17.298        8.034      940.575      299.206       64.540        0.238        0.065       57.341        8.723        0.023      340.459       14.494      859.247
09/16/2013  07:00:00     -156.731      -40.515      -14.497       38.376       23.985       13.155     1472.695      575.276      173.058        1.432        0.111      161.883       10.407        0.004      340.446       14.470      859.252
09/16/2013  07:01:00     -145.445        6.152       -9.048       31.975       26.767       20.178     1022.387      716.471      407.167        1.171        0.107      145.575       16.145        0.012      340.383       14.366      859.267
09/16/2013  07:02:00     -145.244       19.153      -17.372       20.809       14.493       11.653      433.025      210.042      135.794        1.127        0.039      146.502        6.274        0.002      340.384       14.367      859.266
09/16/2013  07:03:00     -180.856        8.190      -19.377       24.905       16.004       15.555      620.246      256.138      241.960        1.713        0.056      181.042        6.338        0.001      340.501       14.565      859.262
09/16/2013  07:04:00     -145.576      -15.702      -14.527       47.516       30.635       22.444     2257.735      938.509      503.734        1.267        0.185      146.420       21.460        0.021      340.421       14.432      859.273
09/16/2013  07:05:00     -151.315      -17.456      -11.820       36.639       36.647       24.966     1342.428     1342.989      623.300        1.332        0.165      152.318       23.855        0.025      340.387       14.373      859.281
09/16/2013  07:06:00      -87.525      -29.523       -6.995       32.543       40.496       25.331     1059.036     1639.922      641.683        0.596        0.167       92.370       20.010        0.047      340.464       14.503      859.280
09/16/2013  07:07:00        9.245       -5.290       22.420       22.364       27.456       22.529      500.141      753.815      507.536        0.119        0.088       10.652       16.248        2.327      340.571       14.684      859.277
09/16/2013  07:08:00       45.378      -26.177        1.489       25.703       26.061       26.087      660.664      679.178      680.508        0.238        0.101       52.387       18.455        0.124      340.287       14.204      859.285
09/16/2013  07:09:00       24.272      -22.855       18.437       26.809       31.543       22.648      718.696      994.937      512.915        0.184        0.111       33.339       13.539        0.165      340.593       14.721      859.293
09/16/2013  07:10:00       10.175      -22.970       20.886       24.585       26.227       19.657      604.441      687.852      386.380        0.137        0.084       25.123       17.838        0.504      340.499       14.561      859.289
09/16/2013  07:11:00        3.391      -16.674      -11.303       18.683       15.468       13.489      349.045      239.272      181.960        0.059        0.039       17.016       10.167        0.357      340.520       14.597      859.290
09/16/2013  07:12:00        1.189      -15.597       -3.456       10.800       11.000       11.615      116.635      120.994      134.908        0.031        0.019       15.642        7.363        0.222      340.610       14.750      859.298
09/16/2013  07:13:00        1.384       -0.534       -7.245       10.135        8.007        8.514      102.713       64.115       72.492        0.015        0.012        1.484        6.193       17.421      340.609       14.748      859.302
09/16/2013  07:14:00        1.042      -27.191       -1.354       20.226       21.033       16.044      409.097      442.375      257.424        0.093        0.055       27.211        4.516        0.028      340.494       14.553      859.293
09/16/2013  07:15:00      -43.688       -2.664       -0.884       28.932       11.135       11.845      837.036      123.978      140.296        0.151        0.055       43.769       14.780        0.114      340.659       14.832      859.283
09/16/2013  07:16:00      -37.616       -9.176       -5.903       18.441        8.665        9.877      340.083       75.085       97.560        0.102        0.026       38.719       12.456        0.103      340.678       14.865      859.295
09/16/2013  07:17:00       12.224      -25.421       -8.827       17.247       19.453       12.934      297.474      378.420      167.301        0.086        0.042       28.207       11.164        0.157      340.714       14.925      859.309
09/16/2013  07:18:00       24.894      -44.213        8.853       17.065       22.792       19.258      291.198      519.458      370.882        0.192        0.059       50.739       13.567        0.071      340.560       14.665      859.329
09/16/2013  07:19:00       74.544      -43.647        5.991       43.696       26.184       25.259     1909.369      685.580      638.041        0.536        0.162       86.382        6.166        0.005      340.538       14.627      859.353
09/16/2013  07:20:00        4.460       -6.198        8.031       23.089       15.162       15.246      533.097      229.882      232.436        0.056        0.050        7.636       11.408        2.232      340.594       14.723      859.347
09/16/2013  07:21:00      -74.912       -7.996      -10.247       31.493       14.275       12.147      991.812      203.783      147.551        0.356        0.067       75.338       13.319        0.031      340.708       14.915      859.350
09/16/2013  07:22:00      -99.914      -24.774       -6.833       19.887       22.719       12.985      395.512      516.137      168.614        0.586        0.054      102.940        7.818        0.006      340.600       14.733      859.362
09/16/2013  07:23:00      -91.905      -41.809        4.193       31.649       32.529       22.674     1001.645     1058.110      514.101        0.639        0.129      100.968       18.917        0.035      340.685       14.876      859.397
09/16/2013  07:24:00      -96.165       -6.768       -0.477       37.001       37.342       25.696     1369.057     1394.410      660.288        0.636        0.171       96.403       26.719        0.077      340.724       14.942      859.411
09/16/2013  07:25:00      -80.099      -17.302        0.859       24.003       26.797       17.002      576.123      718.090      289.082        0.415        0.079       81.947        9.388        0.013      340.772       15.025      859.413
09/16/2013  07:26:00      -57.235       -7.659       -3.503       33.742       14.090       14.106     1138.504      198.539      198.982        0.244        0.077       57.745       16.914        0.086      340.712       14.922      859.395
09/16/2013  07:27:00     -126.610      -41.556       -9.888       23.954       37.598       14.781      573.778     1413.603      218.483        1.003        0.110      133.255       10.794        0.007      340.693       14.891      859.385
09/16/2013  07:28:00     -130.011      -49.642       -7.368       22.487       27.532       19.908      505.681      758.007      396.336        1.054        0.083      139.166       14.750        0.011      340.747       14.984      859.376
09/16/2013  07:29:00     -103.489      -59.448        3.955       31.083       22.341       19.163      966.174      499.104      367.228        0.805        0.092      119.348       17.865        0.022      340.769       15.019      859.372
09/16/2013  07:30:00      -41.216      -15.847        6.739       37.733       27.057       19.591     1423.758      732.067      383.824        0.227        0.127       44.157       17.923        0.165      340.944       15.314      859.390
09/16/2013  07:31:00        5.358      -22.073       14.453       29.007       22.272       19.530      841.390      496.024      381.408        0.122        0.086       22.714       16.051        0.499      340.856       15.166      859.412
09/16/2013  07:32:00       68.935      -36.335       15.724       32.150       26.602       28.878     1033.608      707.644      833.930        0.445        0.129       77.925       16.259        0.044      340.542       14.634      859.425
09/16/2013  07:33:00       62.513      -53.971        2.915       40.066       27.999       25.999     1605.274      783.931      675.926        0.495        0.153       82.587       11.544        0.020      340.460       14.495      859.422
09/16/2013  07:34:00       -6.708       -2.874       -0.941       26.226       17.412       14.038      687.806      303.173      197.078        0.062        0.059        7.298        5.283        0.524      340.834       15.129      859.418
09/16/2013  07:35:00      -72.093        7.291       -5.176       13.941       13.923        8.356      194.338      193.844       69.822        0.287        0.023       72.461        6.111        0.007      340.939       15.304      859.404
09/16/2013  07:36:00      -32.305       -2.695       -4.172       14.593        5.895        5.272      212.966       34.749       27.792        0.067        0.014       32.417        5.690        0.031      341.051       15.495      859.382
09/16/2013  07:37:00       -7.072       -1.336        6.262       11.685        9.252       12.350      136.543       85.607      152.532        0.023        0.019        7.197        8.317        1.336      341.532       16.310      859.370
09/16/2013  07:38:00       36.579      -32.759       -9.274       28.742       27.328       21.142      826.101      746.802      446.975        0.226        0.101       49.104       17.329        0.125      341.069       15.526      859.358
09/16/2013  07:39:00        4.859        5.804       30.827       24.439       34.730       21.503      597.259     1206.205      462.388        0.164        0.113        7.569       10.693        1.996      341.138       15.642      859.345
09/16/2013  07:40:00        3.545       25.693       12.024       16.962       28.684       18.992      287.714      822.760      360.678        0.114        0.074       25.937       17.352        0.448      341.159       15.679      859.331
09/16/2013  07:41:00       45.412       41.155       -7.192       29.140       26.903       21.432      849.145      723.765      459.339        0.292        0.102       61.286       15.649        0.065      340.881       15.207      859.317
09/16/2013  07:42:00       71.716       42.375       24.854       35.137       41.642       36.128     1234.579     1734.074     1305.240        0.591        0.214       83.300       26.768        0.103      341.205       15.756      859.311
09/16/2013  07:43:00       24.030        7.726       40.912       29.411       36.238       29.725      864.997     1313.163      883.590        0.269        0.153       25.242       25.735        1.039      341.178       15.712      859.306
09/16/2013  07:44:00        2.786      -51.103       -0.108       19.324       22.870       17.526      373.409      523.028      307.174        0.191        0.060       51.179       11.868        0.054      340.836       15.133      859.307
09/16/2013  07:45:00      -46.911      -18.844       -1.923       17.885       30.700        8.067      319.858      942.487       65.077        0.194        0.066       50.554        7.216        0.020      341.081       15.546      859.292
09/16/2013  07:46:00      -75.526      -22.070       -4.851       19.613       22.219       11.321      384.654      493.700      128.163        0.361        0.050       78.685        8.478        0.012      341.258       15.846      859.299
09/16/2013  07:47:00      -81.481      -29.676       -3.330       21.359       20.991       11.321      456.189      440.633      128.155        0.428        0.051       86.717        9.400        0.012      341.270       15.868      859.328
09/16/2013  07:48:00     -118.887      -39.965       -3.198       38.557       35.786       19.845     1486.638     1280.632      393.836        0.945        0.158      125.424       19.727        0.025      341.396       16.079      859.358
09/16/2013  07:49:00      -87.225      -37.054        0.528       41.669       41.828       20.628     1736.268     1749.566      425.520        0.645        0.196       94.769       19.913        0.044      341.456       16.181      859.381
09/16/2013  07:50:00      -70.487      -12.478       -3.342       29.117       16.499       11.568      847.771      272.219      133.818        0.319        0.063       71.583       12.037        0.028      341.526       16.299      859.398
09/16/2013  07:51:00      -84.754      -18.349       -4.668       14.862       14.532       10.288      220.871      211.186      105.841        0.404        0.027       86.717        8.673        0.010      341.541       16.326      859.397
09/16/2013  07:52:00      -87.872        9.554      -10.125       13.060       15.543        8.687      170.551      241.591       75.461        0.420        0.024       88.390        4.600        0.003      341.572       16.376      859.377
09/16/2013  07:53:00     -111.505       23.306      -14.165       22.553       12.387        9.986      508.620      153.432       99.727        0.697        0.038      113.914        8.116        0.005      341.648       16.507      859.356
09/16/2013  07:54:00      -89.112       -8.516      -12.585       30.349       16.996       11.600      921.085      288.857      134.566        0.476        0.067       89.518       15.550        0.030      341.721       16.631      859.347
09/16/2013  07:55:00      -32.491      -34.004        3.443       26.925       28.870       14.953      724.961      833.496      223.598        0.200        0.089       47.031       12.660        0.072      341.913       16.957      859.357
09/16/2013  07:56:00        7.798        8.423       38.355       22.683       22.930       20.192      514.534      525.762      407.728        0.153        0.072       11.479       14.754        1.652      342.165       17.384      859.371
09/16/2013  07:57:00       73.577       57.164       33.535       49.141       36.528       21.114     2414.842     1334.280      445.805        0.700        0.210       93.173       23.780        0.065      341.744       16.670      859.374
09/16/2013  07:58:00      113.285       68.043       21.903       29.758       20.533       23.571      885.516      421.594      555.576        0.990        0.093      132.148       17.065        0.017      341.819       16.796      859.362
09/16/2013  07:59:00       64.454       67.751       63.146       35.000       35.032       25.561     1224.990     1227.234      653.374        0.792        0.155       93.512        8.507        0.008      341.975       17.061      859.350
09/16/2013  08:00:00      103.029       74.146       30.179       27.096       20.842       25.999      734.200      434.385      675.974        0.943        0.092      126.935        6.665        0.003      341.913       16.955      859.338
09/16/2013  08:01:00       40.611       25.990       20.216       32.482       20.363       24.888     1055.049      414.654      619.421        0.241        0.104       48.215       17.331        0.129      342.123       17.313      859.337
09/16/2013  08:02:00       30.142       19.431        1.276       17.144       16.023       22.704      293.922      256.724      515.492        0.118        0.053       35.863        7.389        0.042      342.199       17.442      859.332
09/16/2013  08:03:00       53.441       16.478        3.998       16.440       14.576       19.055      270.286      212.470      363.112        0.199        0.042       55.924        9.412        0.028      342.082       17.243      859.330
09/16/2013  08:04:00       37.261       10.899       14.185       19.759       22.904       23.846      390.436      524.605      568.624        0.160        0.074       38.823       13.817        0.127      342.145       17.349      859.349
09/16/2013  08:05:00       13.670      -12.903       18.168       35.851       51.609       29.743     1285.276     2663.492      884.619        0.276        0.242       18.797       27.582        2.153      342.021       17.139      859.366
09/16/2013  08:06:00       14.484      -42.106        3.256       25.846       35.223       29.623      668.041     1240.625      877.537        0.239        0.139       44.527        9.489        0.045      341.729       16.644      859.385
09/16/2013  08:07:00      -27.815       -3.006       -6.504       30.048       24.331       11.478      902.886      591.998      131.750        0.123        0.081       27.977        8.562        0.094      341.943       17.006      859.381
09/16/2013  08:08:00      -79.225       14.858       -9.113       13.795       11.035        8.738      190.315      121.778       76.348        0.348        0.019       80.606        5.318        0.004      341.914       16.957      859.363
09/16/2013  08:09:00      -54.118      -21.371       -0.035       40.660       19.731       18.058     1653.263      389.295      326.091        0.288        0.118       58.185       22.603        0.151      342.196       17.437      859.358
09/16/2013  08:10:00        2.995      -47.214        4.667       24.266       35.671       23.626      588.853     1272.413      558.205        0.234        0.121       47.309       12.294        0.068      341.920       16.967      859.379
09/16/2013  08:11:00       40.941        8.931       17.253       37.687       25.126       36.612     1420.311      631.341     1340.444        0.272        0.170       41.904       31.460        0.564      342.040       17.171      859.406
09/16/2013  08:12:00       15.238       51.474      -15.673       19.464       20.776       24.584      378.863      431.656      604.377        0.227        0.071       53.682       10.748        0.040      341.957       17.031      859.413
09/16/2013  08:13:00       11.546       21.509       -2.904       15.033       26.493       19.198      225.992      701.875      368.580        0.095        0.065       24.412       15.462        0.401      342.208       17.457      859.395
09/16/2013  08:14:00        5.980       -8.636       -3.644       14.854       19.321       16.764      220.651      373.284      281.044        0.050        0.044       10.504       12.243        1.358      342.216       17.470      859.389
09/16/2013  08:15:00       61.412      -48.318       -6.724       32.381       31.329       23.914     1048.538      981.511      571.864        0.438        0.130       78.141       13.984        0.032      341.829       16.814      859.398
09/16/2013  08:16:00       46.725      -25.785        5.282       35.452       38.824       34.388     1256.858     1507.280     1182.555        0.341        0.197       53.368       23.266        0.190      342.129       17.323      859.404
09/16/2013  08:17:00        2.915       29.437       45.020       20.406       26.773       18.160      416.399      716.814      329.803        0.218        0.073       29.581        9.421        0.101      342.716       18.321      859.397
09/16/2013  08:18:00       31.385        3.384       15.355       28.992       21.134       24.038      840.514      446.640      577.803        0.155        0.093       31.567       19.666        0.388      342.470       17.903      859.394
09/16/2013  08:19:00       16.021        2.687       17.024       14.962       12.729       18.632      223.858      162.036      347.154        0.064        0.037       16.245        8.699        0.287      342.750       18.379      859.383
09/16/2013  08:20:00       16.910        7.397      -12.420       16.312       17.709       12.924      266.095      313.608      167.022        0.062        0.037       18.457        8.917        0.233      342.411       17.801      859.377
09/16/2013  08:21:00       18.508       -8.919       -3.533       29.374       17.185       26.232      862.854      295.309      688.135        0.114        0.092       20.545       19.352        0.887      342.521       17.988      859.376
09/16/2013  08:22:00      -13.569        4.081      -11.334       19.282       23.239       11.835      371.778      540.073      140.059        0.069        0.053       14.170        7.376        0.271      342.408       17.795      859.373
09/16/2013  08:23:00      -24.752        7.792      -12.202        9.850        7.915        6.384       97.026       62.649       40.757        0.051        0.010       25.950        4.731        0.033      342.629       18.174      859.368
09/16/2013  08:24:00      -33.463       -2.008       -2.193        5.002        6.280        3.855       25.017       39.442       14.865        0.060        0.004       33.523        2.621        0.006      342.603       18.130      859.352
09/16/2013  08:25:00        3.434      -19.650       -2.106       35.142       28.929       20.882     1234.974      836.903      436.067        0.145        0.125       19.948       20.821        1.089      342.556       18.050      859.349
09/16/2013  08:26:00       28.164      -36.640       11.752       44.727       30.497       30.248     2000.517      930.077      914.926        0.306        0.192       46.214       17.305        0.140      342.357       17.710      859.361
09/16/2013  08:27:00       54.423      -35.107        9.586       43.286       34.949       30.470     1873.681     1221.462      928.430        0.415        0.201       64.764       18.995        0.086      342.266       17.556      859.369
09/16/2013  08:28:00       24.296      -16.005       18.836       31.556       27.316       26.031      995.762      746.146      677.629        0.181        0.121       29.094       21.127        0.527      342.576       18.083      859.362
09/16/2013  08:29:00       28.444      -10.834       26.760       29.310       39.562       27.821      859.065     1565.117      773.992        0.242        0.160       30.438       27.586        0.821      342.830       18.514      859.351
09/16/2013  08:30:00       24.215       -5.170        4.992       15.648       12.758       14.634      244.853      162.771      214.147        0.063        0.031       24.761        8.480        0.117      342.636       18.185      859.346
09/16/2013  08:31:00       29.812        3.059        2.015       14.024       20.288       17.083      196.663      411.615      291.812        0.090        0.045       29.969        7.560        0.064      342.723       18.330      859.336
09/16/2013  08:32:00       26.385        1.293       -7.167       15.840       21.953       20.245      250.910      481.947      409.865        0.095        0.057       26.417        5.841        0.049      342.620       18.159      859.336
09/16/2013  08:33:00       -4.970       -2.926        0.744       11.813       12.772        8.841      139.540      163.114       78.159        0.021        0.019        5.767        7.212        1.564      343.096       18.967      859.352
09/16/2013  08:34:00       -3.646       -7.308       13.665       11.536       13.604       12.941      133.081      185.081      167.463        0.037        0.024        8.167        8.974        1.207      343.166       19.086      859.368
09/16/2013  08:35:00       29.519      -12.903       -1.163       21.308       17.648       22.572      454.048      311.456      509.504        0.116        0.064       32.216        4.616        0.021      342.552       18.041      859.370
09/16/2013  08:36:00        6.967       -0.575        3.536       24.938       12.255       19.328      621.926      150.176      373.580        0.060        0.057        6.991       11.025        2.487      343.037       18.868      859.368
09/16/2013  08:37:00        2.799       -0.264       -3.861       25.975       20.025       17.944      674.701      401.017      321.969        0.071        0.070        2.812       12.018       18.272      342.989       18.785      859.374
09/16/2013  08:38:00        7.932        0.088       -0.195       28.873       23.388       26.789      833.621      547.016      717.638        0.108        0.105        7.933       14.841        3.500      342.980       18.770      859.377
09/16/2013  08:39:00       -2.755       -9.642       10.944       37.914       20.928       18.823     1437.498      437.983      354.313        0.122        0.111       10.028       21.199        4.469      342.686       18.268      859.374
09/16/2013  08:40:00      -12.549      -37.120        6.857       32.541       30.702       18.977     1058.926      942.634      360.126        0.197        0.118       39.184       17.438        0.198      342.726       18.336      859.377
09/16/2013  08:41:00      -24.387        5.241      -12.550       12.797       20.116        9.486      163.764      404.640       89.990        0.072        0.033       24.944        7.976        0.102      343.005       18.812      859.383
09/16/2013  08:42:00      -34.896      -14.049        6.992       17.969       18.752       13.264      322.896      351.645      175.942        0.116        0.043       37.618        7.899        0.044      342.956       18.729      859.389
09/16/2013  08:43:00        5.499       -5.910       11.941       29.763       22.115       25.816      885.839      489.060      666.456        0.112        0.102        8.072       21.502        7.095      343.208       19.157      859.388
09/16/2013  08:44:00       32.759      -26.690       -0.217       32.179       28.185       27.402     1035.486      794.411      750.856        0.218        0.129       42.256       21.778        0.266      342.816       18.491      859.394
09/16/2013  08:45:00       23.664      -13.308       22.508       28.323       19.920       20.734      802.186      396.818      429.887        0.144        0.081       27.149       15.625        0.331      343.099       18.974      859.401
09/16/2013  08:46:00        5.798       -9.431        5.166       24.689       23.044       23.517      609.526      531.023      553.033        0.092        0.085       11.071       15.030        1.843      343.109       18.990      859.404
09/16/2013  08:47:00       -8.752       -8.258       -6.480       26.103       30.281       16.983      681.349      916.910      288.434        0.104        0.094       12.033        8.970        0.556      342.752       18.381      859.395
09/16/2013  08:48:00        2.934      -10.220        6.458       27.535       20.846       17.460      758.150      434.565      304.852        0.083        0.075       10.633       10.118        0.905      343.096       18.969      859.390
09/16/2013  08:49:00       -7.227      -23.392        3.148       19.289       17.608       10.933      372.068      310.044      119.535        0.071        0.040       24.483        8.586        0.123      343.013       18.825      859.388
09/16/2013  08:50:00        6.450      -22.352       -5.031       22.213       33.828       21.947      493.412     1144.308      481.655        0.134        0.106       23.264       11.445        0.242      343.080       18.940      859.390
09/16/2013  08:51:00        0.470       18.507       38.110       14.158       26.081       30.421      200.462      680.216      925.442        0.180        0.090       18.513       18.973        1.050      343.755       20.090      859.397
09/16/2013  08:52:00       22.422       15.460       28.364       23.651       25.123       19.076      559.390      631.140      363.899        0.155        0.078       27.235       15.547        0.326      343.616       19.854      859.411
09/16/2013  08:53:00       24.603       18.270        6.713       31.777       24.836       21.541     1009.771      616.843      464.016        0.154        0.105       30.645       16.122        0.277      343.510       19.672      859.399
09/16/2013  08:54:00       27.922      -16.963       20.486       29.155       48.610       22.532      850.011     2362.915      507.707        0.260        0.186       32.671       12.934        0.157      343.293       19.304      859.399
09/16/2013  08:55:00       52.138       10.912       22.976       48.100       31.517       26.094     2313.596      993.297      680.883        0.368        0.199       53.267       25.050        0.221      343.687       19.975      859.395
09/16/2013  08:56:00       46.997       32.461       36.466       55.522       41.575       28.124     3082.708     1728.484      790.937        0.510        0.280       57.118       18.525        0.105      343.665       19.938      859.395
09/16/2013  08:57:00       88.476       53.699       19.757       30.724       33.139       35.436      943.952     1098.206     1255.745        0.720        0.165      103.497       13.049        0.016      343.406       19.495      859.405
09/16/2013  08:58:00       29.827       25.670       21.111       48.175       22.426       27.492     2320.846      502.932      755.799        0.279        0.179       39.352       26.926        0.468      343.957       20.435      859.412
09/16/2013  08:59:00       44.422       19.974       30.669       28.464       44.467       21.773      810.211     1977.285      474.066        0.329        0.163       48.706       16.728        0.118      343.712       20.018      859.416
09/16/2013  09:00:00       35.927       22.695       20.315       32.038       43.602       30.241     1026.413     1901.172      914.508        0.303        0.192       42.495       21.733        0.262      343.653       19.917      859.422
09/16/2013  09:01:00       55.070       62.490       41.148       21.576       16.659       26.358      465.542      277.538      694.740        0.503        0.072       83.293       14.299        0.029      343.489       19.636      859.433
09/16/2013  09:02:00       24.957       44.799       18.262       22.520       27.680       22.312      507.171      766.196      497.834        0.237        0.089       51.281       19.128        0.139      343.435       19.543      859.440
09/16/2013  09:03:00       51.214       51.035        7.542       23.404       18.850       23.276      547.726      355.309      541.763        0.336        0.072       72.301       10.392        0.021      343.447       19.565      859.439
09/16/2013  09:04:00       51.170       51.031        2.806       20.038       24.114       23.478      401.520      581.508      551.207        0.338        0.077       72.267       17.523        0.059      343.678       19.958      859.441
09/16/2013  09:05:00       79.161       46.048       14.091       21.742       20.723       24.635      472.723      429.438      606.859        0.505        0.075       91.580       14.981        0.027      343.737       20.060      859.437
09/16/2013  09:06:00       14.867        3.576       -5.255       25.678       22.946       14.093      659.342      526.502      198.622        0.082        0.069       15.291       10.347        0.458      343.699       19.994      859.430
09/16/2013  09:07:00       24.687       14.555       15.860       26.792       20.230       20.791      717.803      409.235      432.279        0.132        0.078       28.658       17.594        0.377      344.382       21.162      859.430
09/16/2013  09:08:00       38.652       22.977       10.788       45.850       23.488       22.438     2102.258      551.697      503.480        0.265        0.158       44.966       17.949        0.159      344.147       20.760      859.440
09/16/2013  09:09:00       17.310      -31.006       24.807       30.602       49.290       36.219      936.459     2429.543     1311.812        0.328        0.234       35.510       36.853        1.077      343.915       20.363      859.452
09/16/2013  09:10:00       30.020      -32.862       21.844       33.780       52.195       33.077     1141.093     2724.334     1094.071        0.371        0.248       44.509       20.347        0.209      343.507       19.669      859.461
09/16/2013  09:11:00       28.233        5.451       18.655       18.737       29.363       26.343      351.062      862.181      693.928        0.154        0.095       28.754       12.813        0.199      343.802       20.171      859.471
09/16/2013  09:12:00       55.562       14.959       14.541       31.293       32.590       27.466      979.227     1062.094      754.355        0.316        0.140       57.541       16.002        0.077      344.077       20.640      859.467
09/16/2013  09:13:00       56.416       54.413        8.795       43.430       30.526       25.910     1886.173      931.822      671.350        0.485        0.174       78.381       22.587        0.083      344.347       21.103      859.451
09/16/2013  09:14:00       54.295       43.022       10.119       41.303       25.308       28.625     1705.969      640.482      819.377        0.403        0.158       69.274       23.725        0.117      344.360       21.124      859.447
09/16/2013  09:15:00       36.037       35.010       27.214       35.884       28.133       34.937     1287.663      791.488     1220.621        0.328        0.165       50.244       23.979        0.228      344.457       21.290      859.442
09/16/2013  09:16:00       16.712      -15.850       23.774       42.182       42.659       26.479     1779.294     1819.797      701.124        0.270        0.215       23.033        8.392        0.133      343.827       20.214      859.444
09/16/2013  09:17:00       28.557      -29.766       24.341       41.752       26.016       23.490     1743.198      676.818      551.767        0.263        0.149       41.249       23.564        0.326      343.985       20.483      859.449
09/16/2013  09:18:00       43.957       21.850       28.671       29.321       27.152       25.565      859.705      737.250      653.579        0.274        0.113       49.088       12.396        0.064      344.244       20.926      859.452
09/16/2013  09:19:00       10.182      -11.658       17.270       21.867       32.559       20.780      478.149     1060.072      431.790        0.125        0.099       15.479       12.304        0.632      343.997       20.503      859.448
09/16/2013  09:20:00        0.516      -13.193       15.099       27.501       35.875       21.423      756.292     1286.993      458.936        0.145        0.125       13.203       10.107        0.586      343.794       20.157      859.437
09/16/2013  09:21:00       18.727      -29.211       25.054       35.058       41.980       35.532     1229.068     1762.338     1262.493        0.304        0.213       34.698       24.970        0.518      343.649       19.910      859.437
09/16/2013  09:22:00       42.951       51.823       55.417       43.749       58.297       43.170     1913.950     3398.542     1863.665        0.739        0.359       67.308       16.742        0.062      344.086       20.656      859.443
09/16/2013  09:23:00       26.417        3.599        6.387       30.402       34.640       27.670      924.268     1199.913      765.647        0.182        0.144       26.661       13.161        0.244      343.881       20.306      859.461
09/16/2013  09:24:00        6.485      -10.086        6.539       18.742       14.428       17.626      351.268      208.169      310.669        0.053        0.044       11.990        7.058        0.346      343.994       20.497      859.454
09/16/2013  09:25:00       23.488        2.914       16.882       19.141       17.305       25.656      366.395      299.456      658.211        0.108        0.066       23.668       16.581        0.491      344.138       20.746      859.456
09/16/2013  09:26:00       47.827       27.418       21.350       29.682       26.379       28.167      881.032      695.868      793.390        0.293        0.119       55.128       16.374        0.088      344.180       20.815      859.448
09/16/2013  09:27:00       45.919        4.541       24.370       32.898       20.108       23.606     1082.288      404.346      557.231        0.238        0.102       46.143       19.372        0.176      344.650       21.618      859.447
09/16/2013  09:28:00       27.126       46.269       40.515       28.298       52.572       46.953      800.781     2763.777     2204.590        0.514        0.288       53.634       40.627        0.574      344.598       21.530      859.443
09/16/2013  09:29:00       80.173       93.775       77.473       35.188       32.355       33.253     1238.170     1046.854     1105.781        1.231        0.170      123.375       26.156        0.045      344.076       20.639      859.440
09/16/2013  09:30:00       30.381       20.028       26.960       33.377       46.029       29.875     1114.020     2118.677      892.510        0.309        0.206       36.389       28.725        0.623      344.240       20.918      859.434
09/16/2013  09:31:00       48.498      -54.282       -4.623       41.458       32.089       27.007     1718.754     1029.716      729.396        0.440        0.174       72.792       15.351        0.044      343.595       19.817      859.439
09/16/2013  09:32:00       41.103      -61.537       -0.914       38.448       28.066       29.219     1478.258      787.724      853.723        0.430        0.156       74.002       23.325        0.099      343.665       19.936      859.431
09/16/2013  09:33:00       45.357      -95.771        9.557       38.897       42.706       41.393     1513.001     1823.793     1713.379        0.818        0.253      105.969       29.715        0.079      343.653       19.916      859.438
09/16/2013  09:34:00       42.291      -78.596       10.331       45.988       46.486       41.019     2114.898     2160.951     1682.594        0.701        0.298       89.251       31.765        0.127      343.589       19.807      859.438
09/16/2013  09:35:00       97.308       43.871       39.151       56.630       86.398       34.969     3206.986     7464.559     1222.805        1.241        0.595      106.741       31.699        0.088      343.976       20.468      859.440
09/16/2013  09:36:00      121.721       83.454       38.594       41.081       39.637       39.137     1687.653     1571.114     1531.732        1.403        0.240      147.582       17.035        0.013      344.474       21.318      859.443
09/16/2013  09:37:00       77.966       93.736       44.478       42.920       35.330       44.931     1842.097     1248.220     2018.778        1.098        0.255      121.922       20.341        0.028      344.363       21.127      859.440
09/16/2013  09:38:00      111.774       72.197       10.145       28.543       30.929       31.108      814.731      956.617      967.732        1.027        0.137      133.063       11.944        0.008      344.264       20.959      859.433
09/16/2013  09:39:00       77.761       57.582       23.666       41.240       27.165       29.460     1700.728      737.931      867.875        0.661        0.165       96.760       12.532        0.017      344.924       22.089      859.432
09/16/2013  09:40:00        7.108       11.660       18.630       23.351       70.128       32.058      545.265     4917.866     1027.725        0.351        0.325       13.656       35.584        6.790      344.793       21.864      859.432
09/16/2013  09:41:00      149.172       85.892       40.085       43.807       33.044       36.271     1919.027     1091.887     1315.610        1.778        0.216      172.133       19.368        0.013      344.436       21.252      859.431
09/16/2013  09:42:00       78.241       72.596       35.834       52.318       34.145       43.782     2737.213     1165.861     1916.852        0.925        0.291      106.732       38.581        0.131      344.464       21.302      859.409
09/16/2013  09:43:00       98.470       59.476       12.065       56.230       37.868       34.094     3161.858     1433.977     1162.426        0.957        0.288      115.038       30.635        0.071      344.629       21.583      859.385
09/16/2013  09:44:00       53.899       59.523       49.426       55.937       41.407       43.194     3128.934     1714.527     1865.704        0.780        0.335       80.300       38.240        0.227      345.035       22.278      859.348
09/16/2013  09:45:00       71.153       76.773       44.979       51.457       30.734       39.534     2647.804      944.564     1562.948        0.907        0.258      104.675       30.987        0.088      344.759       21.806      859.336
09/16/2013  09:46:00       97.139       93.282       24.519       58.451       56.042       38.683     3416.573     3140.664     1496.379        1.339        0.403      134.676       20.785        0.024      344.813       21.897      859.325
09/16/2013  09:47:00      110.259       97.568       55.146       48.710       37.892       39.047     2372.645     1435.776     1524.688        1.502        0.267      147.229       33.332        0.051      344.640       21.602      859.334
09/16/2013  09:48:00       83.202       66.286        1.520       33.337       32.074       21.296     1111.343     1028.744      453.537        0.696        0.130      106.379        9.529        0.008      344.621       21.568      859.338
09/16/2013  09:49:00       62.472       55.805       32.557       36.257       30.089       34.809     1314.566      905.367     1211.660        0.575        0.172       83.768       24.571        0.086      344.998       22.214      859.343
09/16/2013  09:50:00      129.700       78.436       30.725       36.996       34.829       30.082     1368.719     1213.027      904.926        1.370        0.174      151.573       11.288        0.006      344.553       21.454      859.337
09/16/2013  09:51:00       70.789       57.840       27.900       60.620       40.827       26.344     3674.794     1666.866      694.000        0.758        0.302       91.415       18.839        0.042      344.754       21.798      859.343
09/16/2013  09:52:00       18.279      -42.881        1.375       38.101       45.402       28.023     1451.676     2061.324      785.305        0.324        0.215       46.614       16.376        0.123      344.440       21.260      859.349
09/16/2013  09:53:00       66.863       44.382       52.814       36.581       65.461       31.252     1338.139     4285.169      976.693        0.791        0.330       80.252       18.103        0.051      344.703       21.709      859.352
09/16/2013  09:54:00       35.359      -50.867        7.338       29.522       35.251       30.742      871.552     1242.630      945.045        0.347        0.153       61.949       25.077        0.164      344.452       21.281      859.357
09/16/2013  09:55:00       19.247        5.574       12.465       36.717       27.864       24.982     1348.128      776.404      624.090        0.165        0.137       20.038       20.910        1.089      345.056       22.315      859.354
09/16/2013  09:56:00       57.408       21.746       16.866       46.086       35.733       33.661     2123.879     1276.849     1133.035        0.429        0.227       61.389       17.164        0.078      345.368       22.849      859.355
09/16/2013  09:57:00       -0.985      -13.399        4.287       28.506       56.493       33.648      812.598     3191.453     1132.155        0.267        0.257       13.435       23.705        3.113      345.055       22.312      859.352
09/16/2013  09:58:00       19.966      -42.308      -12.407       28.179       29.217       19.380      794.052      853.637      375.580        0.218        0.101       46.783       16.130        0.119      344.646       21.613      859.352
09/16/2013  09:59:00       23.769        7.932       14.263       29.439       27.432       25.390      866.671      752.505      644.677        0.155        0.113       25.058       16.074        0.411      344.983       22.190      859.340
09/16/2013  10:00:00       38.589       61.786       11.276       31.028       53.310       24.298      962.707     2841.942      590.387        0.491        0.220       72.846       21.685        0.089      345.364       22.842      859.325
09/16/2013  10:01:00      101.650       60.814       13.121       49.650       40.223       47.544     2465.107     1617.853     2260.472        1.027        0.317      118.453       31.524        0.071      345.351       22.820      859.319
09/16/2013  10:02:00       51.139       57.488       11.647       38.086       36.714       28.357     1450.561     1347.943      804.131        0.483        0.180       76.942       21.004        0.075      345.288       22.712      859.318
09/16/2013  10:03:00      102.009       71.160        6.677       42.366       35.787       31.360     1794.842     1280.695      983.464        0.979        0.203      124.377        8.899        0.005      345.323       22.769      859.311
09/16/2013  10:04:00       56.573       49.950       54.223       84.167       65.057       54.250     7084.145     4232.459     2943.105        1.144        0.713       75.469       50.316        0.445      345.887       23.737      859.306
09/16/2013  10:05:00       14.781       22.113       32.990       41.430       50.685       38.903     1716.424     2568.968     1513.411        0.380        0.290       26.598       21.551        0.656      345.924       23.801      859.315
09/16/2013  10:06:00       32.103       17.494       50.658       37.901       40.931       26.071     1436.455     1675.387      679.706        0.385        0.190       36.560       23.547        0.415      345.983       23.904      859.323
09/16/2013  10:07:00       64.674       41.268       12.872       66.526       46.321       25.716     4425.716     2145.613      661.298        0.664        0.362       76.719       29.685        0.150      346.047       24.014      859.323
09/16/2013  10:08:00       17.496       59.708       61.176       45.074       43.100       44.311     2031.672     1857.597     1963.433        0.673        0.293       62.218       23.153        0.138      346.146       24.183      859.315
09/16/2013  10:09:00       20.187       15.774       28.240       44.976       42.489       35.250     2022.867     1805.306     1242.567        0.326        0.254       25.619       22.287        0.757      346.216       24.304      859.315
09/16/2013  10:10:00      119.178       78.278       25.787       38.780       39.148       38.004     1503.913     1532.543     1444.340        1.274        0.224      142.586       19.953        0.020      345.469       23.020      859.306
09/16/2013  10:11:00       90.737       80.272        9.020       31.674       32.507       30.661     1003.263     1056.701      940.103        0.888        0.150      121.148       17.682        0.021      345.537       23.138      859.288
09/16/2013  10:12:00       92.522       68.405       32.061       33.871       24.938       35.874     1147.213      621.893     1286.976        0.866        0.153      115.063        7.046        0.004      345.610       23.262      859.264
09/16/2013  10:13:00       88.676       58.525       16.369       26.306       22.143       27.324      692.006      490.306      746.581        0.674        0.096      106.248       18.272        0.030      345.636       23.308      859.257
09/16/2013  10:14:00       75.114       63.998       10.177       43.464       41.652       31.570     1889.085     1734.848      996.686        0.723        0.231       98.680       24.636        0.062      345.982       23.903      859.244
09/16/2013  10:15:00       99.988       57.654       13.843       61.948       30.274       32.907     3837.536      916.486     1082.841        0.967        0.292      115.419       29.131        0.064      346.103       24.109      859.250
09/16/2013  10:16:00      105.832       92.458       35.650       46.204       46.252       40.205     2134.792     2139.256     1616.418        1.345        0.295      140.531       31.636        0.051      345.922       23.798      859.244
09/16/2013  10:17:00      136.214       84.630       45.697       59.724       38.417       42.320     3567.004     1475.851     1790.959        1.732        0.342      160.364       16.359        0.010      345.852       23.679      859.248
09/16/2013  10:18:00      152.744      106.554        1.912       51.847       48.825       40.546     2688.158     2383.873     1644.004        2.070        0.336      186.238       21.537        0.013      345.879       23.724      859.240
09/16/2013  10:19:00       36.675       42.270       23.875       44.095       34.288       30.990     1944.381     1175.658      960.365        0.389        0.204       55.962       16.860        0.091      346.196       24.269      859.233
09/16/2013  10:20:00       13.118       33.892       48.126       45.586       47.034       27.589     2078.084     2212.170      761.145        0.434        0.253       36.342       21.486        0.350      346.519       24.825      859.220
09/16/2013  10:21:00       15.484        7.436       35.353       27.759       71.411       37.137      770.580     5099.478     1379.187        0.440        0.362       17.177       33.645        3.837      346.378       24.583      859.192
09/16/2013  10:22:00      145.556       75.586       31.011       64.858       45.214       37.454     4206.543     2044.279     1402.832        1.776        0.383      164.011       23.316        0.020      346.302       24.451      859.188
09/16/2013  10:23:00       77.242       76.795       38.143       50.187       48.230       38.358     2518.780     2326.135     1471.345        0.982        0.316      108.921       38.817        0.127      346.198       24.273      859.178
09/16/2013  10:24:00       66.854       51.643       39.045       67.523       54.385       43.092     4559.421     2957.718     1856.907        0.902        0.469       84.477       41.848        0.245      346.395       24.612      859.177
09/16/2013  10:25:00      103.289       91.417       23.332       70.525       54.716       39.096     4973.808     2993.787     1528.481        1.453        0.475      137.934       36.980        0.072      346.423       24.659      859.159
09/16/2013  10:26:00       39.827       40.387       55.726       57.183       41.761       42.939     3269.910     1744.017     1843.754        0.659        0.343       56.722       39.730        0.491      346.601       24.966      859.163
09/16/2013  10:27:00       18.156        0.849       32.119       44.271       64.472       29.996     1959.942     4156.640      899.733        0.419        0.351       18.176       38.416        4.467      346.371       24.571      859.155
09/16/2013  10:28:00       44.700       33.919       58.764       56.719       52.629       37.146     3217.072     2769.832     1379.856        0.698        0.368       56.113       26.348        0.220      346.720       25.170      859.150
09/16/2013  10:29:00       96.341       45.172       28.314       73.171       46.012       55.855     5354.000     2117.093     3119.758        1.136        0.530      106.405       49.566        0.217      346.527       24.838      859.139
09/16/2013  10:30:00       52.852       47.316       15.470       52.788       37.971       33.285     2786.587     1441.832     1107.877        0.530        0.267       70.937       25.138        0.126      346.641       25.035      859.131
09/16/2013  10:31:00       58.172       71.664       16.177       53.613       41.922       37.733     2874.303     1757.472     1423.782        0.742        0.303       92.302       23.474        0.065      346.437       24.683      859.112
09/16/2013  10:32:00       15.981       41.003       63.964       55.806       57.810       53.390     3114.341     3342.001     2850.477        0.767        0.465       44.007       43.687        0.985      346.683       25.107      859.115
09/16/2013  10:33:00      140.190       85.428       52.426       98.360       51.615       49.206     9674.733     2664.140     2421.213        2.223        0.738      164.168       49.958        0.093      346.441       24.689      859.107
09/16/2013  10:34:00      119.355       78.107       36.114       85.247       45.745       51.791     7266.974     2092.576     2682.257        1.684        0.602      142.641       46.994        0.109      346.230       24.327      859.123
09/16/2013  10:35:00       19.114       62.436       74.999       49.431       46.576       31.676     2443.458     2169.363     1003.386        0.775        0.281       65.297       26.301        0.162      346.605       24.973      859.102
09/16/2013  10:36:00      157.162       70.611       38.364       84.853       69.076       61.703     7200.078     4771.446     3807.316        2.346        0.789      172.295       54.833        0.101      346.608       24.978      859.094
09/16/2013  10:37:00      175.812      122.549       11.278       61.889       56.098       42.282     3830.296     3146.934     1787.733        2.741        0.438      214.309       32.656        0.023      346.399       24.616      859.095
09/16/2013  10:38:00       74.551      102.573       20.141       78.534       61.978       58.912     6167.646     3841.316     3470.588        1.498        0.674      126.803       40.532        0.102      346.456       24.716      859.103
09/16/2013  10:39:00       17.784      117.451        0.957       45.735       95.469       52.365     2091.688     9114.406     2742.110        1.403        0.697      118.790       53.299        0.201      346.615       24.989      859.089
09/16/2013  10:40:00       72.595       87.823        0.788       61.681       55.706       45.577     3804.569     3103.158     2077.252        1.098        0.449      113.943       35.951        0.100      346.718       25.168      859.088
09/16/2013  10:41:00      120.947       90.666       24.966       81.231       56.605       58.125     6598.409     3204.078     3378.517        1.832        0.659      151.157       29.192        0.037      346.571       24.913      859.076
09/16/2013  10:42:00       90.937       75.288       22.320       58.406       45.055       34.780     3411.318     2029.971     1209.660        1.054        0.333      118.059       22.037        0.035      346.281       24.416      859.068
09/16/2013  10:43:00       47.264       39.980       18.737       44.711       42.123       29.468     1999.051     1774.367      868.366        0.441        0.232       61.906       22.006        0.126      346.413       24.643      859.052
09/16/2013  10:44:00       43.015       34.002       52.254       48.581       48.887       44.444     2360.140     2389.915     1975.260        0.623        0.336       54.831       38.211        0.486      346.671       25.086      859.043
09/16/2013  10:45:00       42.464       37.983       41.804       52.020       51.383       36.469     2706.116     2640.238     1330.000        0.583        0.334       56.973       19.229        0.114      346.768       25.254      859.035
09/16/2013  10:46:00      102.790       56.979       61.850       78.238       87.635       66.403     6121.160     7679.896     4409.293        1.792        0.911      117.526       51.035        0.189      346.311       24.466      859.039
09/16/2013  10:47:00       35.120       22.944       31.597       53.758       56.026       38.173     2889.945     3138.954     1457.166        0.512        0.374       41.951       38.631        0.848      346.412       24.641      859.037
09/16/2013  10:48:00       85.356       56.675       20.560       59.206       47.767       37.311     3505.294     2281.681     1392.138        0.905        0.359      102.459       16.093        0.025      346.703       25.142      859.019
09/16/2013  10:49:00        7.789       12.292       19.277       46.383       41.401       45.133     2151.381     1714.041     2036.965        0.324        0.295       14.552       22.949        2.487      346.992       25.638      859.018
09/16/2013  10:50:00      127.678       88.669       47.541       70.559       46.843       48.101     4978.548     2194.275     2313.707        1.795        0.474      155.447       24.316        0.024      346.813       25.330      859.012
09/16/2013  10:51:00      142.389       48.765       45.034       90.807       57.039       54.634     8245.938     3253.399     2984.829        1.958        0.724      150.508       41.711        0.077      346.625       25.005      859.018
09/16/2013  10:52:00       79.524       58.764       29.652       84.598       41.913       39.657     7156.811     1756.704     1572.674        1.057        0.524       98.880       16.449        0.028      346.882       25.448      859.026
09/16/2013  10:53:00      160.869       91.055       23.285       61.937       46.455       51.734     3836.200     2158.112     2676.372        2.169        0.434      184.851       40.727        0.049      346.405       24.629      859.027
09/16/2013  10:54:00       37.876       21.198       40.233       55.880       63.644       52.319     3122.608     4050.615     2737.226        0.670        0.496       43.404       42.361        0.953      346.652       25.054      859.023
09/16/2013  10:55:00       13.027       76.080       91.208       38.591       57.614       37.905     1489.246     3319.424     1436.810        1.026        0.312       77.187       34.557        0.200      346.819       25.342      859.003
09/16/2013  10:56:00       43.155       78.182       84.537       57.248       62.450       44.151     3277.327     3899.966     1949.283        1.212        0.456       89.301       39.958        0.200      346.819       25.342      859.007
09/16/2013  10:57:00       56.008       51.551       26.356       61.665       62.233       55.387     3802.534     3872.980     3067.773        0.861        0.537       76.121       42.458        0.311      346.895       25.472      859.004
09/16/2013  10:58:00      118.749       82.922        9.458       46.535       35.645       40.853     2165.531     1270.596     1668.994        1.308        0.255      144.836       11.120        0.006      346.619       24.998      859.010
09/16/2013  10:59:00       89.633       43.535        1.654       23.013       24.698       23.138      529.592      609.987      535.360        0.580        0.084       99.647        9.865        0.010      346.422       24.659      859.009
09/16/2013  11:00:00       25.183      -30.480       39.289       46.005       69.354       35.632     2116.482     4810.040     1269.619        0.565        0.410       39.538       26.652        0.454      346.998       25.649      859.001
09/16/2013  11:01:00       90.425      -38.031       36.570       73.808       89.937       49.777     5447.581     8088.597     2477.793        1.348        0.801       98.097       55.556        0.321      347.076       25.783      858.996
09/16/2013  11:02:00      114.252       72.450       43.505       62.444       49.161       56.619     3899.282     2416.766     3205.671        1.486        0.476      135.287       38.531        0.081      346.880       25.445      859.004
09/16/2013  11:03:00      102.069       72.785       35.539       68.965       52.740       44.882     4756.140     2781.547     2014.356        1.326        0.478      125.363       22.725        0.033      346.855       25.404      859.017
09/16/2013  11:04:00       47.743       54.081       12.455       46.324       46.914       40.084     2145.916     2200.933     1606.747        0.566        0.298       72.140       34.279        0.226      347.079       25.790      858.998
09/16/2013  11:05:00       53.555       76.446       76.825       75.995       53.622       39.169     5775.271     2875.268     1534.249        1.240        0.509       93.339       30.061        0.104      347.347       26.251      858.989
09/16/2013  11:06:00       48.747       29.865       20.032       56.213       59.148       40.443     3159.885     3498.430     1635.628        0.598        0.415       57.168       33.259        0.338      347.212       26.017      858.991
09/16/2013  11:07:00       49.667      -61.603       26.913       57.193       79.522       46.683     3271.084     6323.689     2179.313        0.938        0.589       79.132       38.470        0.236      347.067       25.769      858.976
09/16/2013  11:08:00      130.383      -36.060       58.553       96.826      157.161       83.873     9375.331    24699.611     7034.733        3.141        2.055      135.278       94.273        0.486      347.004       25.658      858.958
09/16/2013  11:09:00       47.159       83.851       95.870       58.617       61.719       48.216     3435.986     3809.296     2324.828        1.401        0.479       96.203       33.309        0.120      347.091       25.810      858.960
09/16/2013  11:10:00       99.852      109.864       76.527       81.795       58.349       66.282     6690.463     3404.611     4393.346        2.119        0.724      148.461       37.302        0.063      347.135       25.884      858.962
09/16/2013  11:11:00       58.806       54.572       12.095       79.400       58.827       35.765     6304.426     3460.565     1279.138        0.881        0.552       80.226       23.195        0.084      347.146       25.905      858.960
09/16/2013  11:12:00       70.232       -0.109       36.069       80.575       57.065       42.318     6492.402     3256.367     1790.840        0.888        0.577       70.232       49.660        0.500      347.298       26.166      858.931
09/16/2013  11:13:00       80.466      -56.752       28.100       61.538       71.447       51.531     3786.959     5104.731     2655.478        1.101        0.577       98.466       52.552        0.285      347.260       26.100      858.916
09/16/2013  11:14:00      118.320     -189.995      -23.095       64.304       88.332       45.482     4134.957     7802.611     2068.631        3.232        0.700      223.825       46.750        0.044      346.824       25.344      858.909
09/16/2013  11:15:00      159.657     -153.658      -17.740       57.818       69.691       46.875     3342.914     4856.801     2197.248        2.990        0.520      221.588       42.250        0.036      346.945       25.555      858.889
09/16/2013  11:16:00       83.635      -55.706       34.298       71.322      114.403       67.370     5086.787    13088.111     4538.718        1.699        1.136      100.488       76.887        0.585      347.121       25.858      858.894
09/16/2013  11:17:00       92.012        4.190       26.527       78.200       70.218       49.691     6115.312     4930.580     2469.201        1.135        0.676       92.108       44.594        0.234      347.066       25.766      858.898
09/16/2013  11:18:00      139.565      112.536       48.916      110.487       83.946       67.475    12207.403     7047.011     4552.886        2.917        1.190      179.284       57.444        0.103      347.231       26.049      858.871
09/16/2013  11:19:00       58.218       78.575       58.448       67.427       62.977       38.095     4546.437     3966.155     1451.194        1.147        0.498       97.792       31.545        0.104      347.311       26.188      858.873
09/16/2013  11:20:00      139.346      115.403       98.232       83.725       64.566       57.005     7009.903     4168.810     3249.546        2.840        0.721      180.929       42.283        0.055      346.834       25.364      858.871
09/16/2013  11:21:00      117.392       91.173       72.128       56.134       65.761       56.514     3151.013     4324.531     3193.851        1.898        0.533      148.639       48.334        0.106      346.898       25.475      858.866
09/16/2013  11:22:00      106.196       93.183       86.152      101.799       61.699       65.019    10363.085     3806.798     4227.469        2.289        0.920      141.282       66.573        0.222      346.913       25.502      858.876
09/16/2013  11:23:00       23.150       33.453       70.720       47.768       70.561       45.802     2281.793     4978.811     2097.814        0.801        0.468       40.682       47.326        1.353      347.426       26.386      858.890
09/16/2013  11:24:00      141.207      -61.266       23.629       94.232       70.614       57.187     8879.755     4986.391     3270.405        2.069        0.857      153.925       56.845        0.136      347.184       25.968      858.874
09/16/2013  11:25:00       91.459       -1.727       73.976       69.481       77.664       57.383     4827.562     6031.692     3292.776        1.399        0.708       91.476       54.806        0.359      347.192       25.984      858.863
09/16/2013  11:26:00       63.177       10.783       34.255       63.844       48.330       43.189     4075.995     2335.787     1865.293        0.678        0.414       64.091       29.525        0.212      347.519       26.548      858.849
09/16/2013  11:27:00       20.185      -99.599        1.479       43.261       56.439       38.830     1871.507     3185.405     1507.741        0.845        0.328      101.624       29.095        0.082      347.220       26.031      858.828
09/16/2013  11:28:00       16.665      -92.027        7.142       50.549       58.897       36.030     2555.190     3468.830     1298.146        0.806        0.366       93.524       38.721        0.171      347.489       26.496      858.795
09/16/2013  11:29:00      -38.287      -58.094      -12.570       35.315       49.731       25.153     1247.130     2473.163      632.680        0.468        0.218       69.576       13.214        0.036      347.114       25.849      858.766
09/16/2013  11:30:00      -19.570      -10.625        9.569       39.721       33.836       31.006     1577.729     1144.887      961.357        0.213        0.184       22.269       31.538        2.006      347.336       26.233      858.755
09/16/2013  11:31:00       34.716      -27.511       20.457       42.922       56.989       39.152     1842.335     3247.787     1532.846        0.450        0.331       44.295       28.423        0.412      347.305       26.178      858.757
09/16/2013  11:32:00       53.402      -73.307       37.896       57.895      105.789       48.478     3351.845    11191.301     2350.152        1.327        0.845       90.696       46.329        0.261      347.250       26.082      858.741
09/16/2013  11:33:00       68.002       79.800       88.505       56.837       67.136       64.118     3230.451     4507.193     4111.103        1.533        0.592      104.844       59.750        0.325      347.228       26.045      858.747
09/16/2013  11:34:00       72.589       85.008       99.815      109.499       75.686       59.774    11990.077     5728.415     3572.898        2.187        1.065      111.783       59.647        0.285      347.089       25.806      858.742
09/16/2013  11:35:00      178.419      131.908       42.786       97.045       46.605       62.505     9417.668     2172.047     3906.926        3.328        0.775      221.886       52.164        0.055      346.979       25.613      858.737
09/16/2013  11:36:00       78.211      -37.724       23.501       58.346       84.025       59.812     3404.239     7060.157     3577.422        1.106        0.702       86.834       66.385        0.584      346.922       25.518      858.727
09/16/2013  11:37:00       51.998      -37.835       49.914       38.636       57.847       35.707     1492.762     3346.275     1275.004        0.637        0.306       64.307       25.801        0.161      347.307       26.182      858.705
09/16/2013  11:38:00      110.320       50.261       31.973       71.850       40.048       46.962     5162.449     1603.836     2205.397        1.234        0.449      121.230       30.006        0.061      347.310       26.187      858.699
09/16/2013  11:39:00      142.201       89.306        9.831       61.547       42.444       35.014     3788.050     1801.528     1226.015        1.755        0.341      167.919       25.306        0.023      347.425       26.384      858.684
09/16/2013  11:40:00      133.716      111.554       19.813       68.706       44.536       48.240     4720.536     1983.450     2327.138        1.987        0.452      174.139       34.383        0.039      347.189       25.977      858.667
09/16/2013  11:41:00      136.227       77.174        1.531       61.803       50.411       40.867     3819.619     2541.315     1670.138        1.627        0.402      156.568       24.011        0.024      346.876       25.437      858.661
09/16/2013  11:42:00       -9.242       32.962       -1.634       35.424       55.830       30.935     1254.824     3116.966      956.965        0.325        0.266       34.233       15.980        0.218      347.144       25.901      858.657
09/16/2013  11:43:00       56.592       90.086        7.557       40.924       57.948       35.341     1674.766     3357.968     1248.978        0.883        0.314      106.386       22.351        0.044      347.309       26.183      858.654
09/16/2013  11:44:00       17.433       23.623        4.378       29.228       61.188       31.002      854.264     3743.949      961.110        0.322        0.278       29.359       34.367        1.370      347.478       26.475      858.662
09/16/2013  11:45:00      -19.422      -13.931       -6.403       28.492       31.736       31.622      811.793     1007.175      999.955        0.172        0.141       23.901       21.828        0.834      347.270       26.117      858.669
09/16/2013  11:46:00        0.391     -116.607      -18.554       32.362       28.017       27.242     1047.288      784.930      742.130        0.826        0.129      116.607       20.048        0.030      347.177       25.959      858.667
09/16/2013  11:47:00       11.176      -55.956       -1.670       21.809       20.382       19.705      475.625      415.423      388.305        0.227        0.064       57.061       14.321        0.063      347.220       26.032      858.659
09/16/2013  11:48:00        7.010       -0.031       39.624       20.063       27.961       15.356      402.521      781.826      235.792        0.152        0.071        7.010       12.019        2.940      347.978       27.339      858.657
09/16/2013  11:49:00       48.998      -12.873       36.801       49.909       30.998       26.236     2490.911      960.900      688.317        0.403        0.207       50.661       28.875        0.325      347.689       26.841      858.654
09/16/2013  11:50:00      104.323      -72.991       17.135      103.144       86.139       46.006    10638.767     7419.991     2116.554        1.834        1.009      127.322       50.500        0.157      347.474       26.467      858.653
09/16/2013  11:51:00       19.975       -3.475       62.705       50.216       57.450       36.243     2521.674     3300.486     1313.542        0.574        0.357       20.275       29.975        2.186      347.773       26.986      858.644
09/16/2013  11:52:00       48.216      -64.801       -2.954       41.168       50.569       32.841     1694.800     2557.273     1078.507        0.593        0.267       80.772       22.578        0.078      347.289       26.151      858.626
09/16/2013  11:53:00       73.867     -107.200        8.282       79.298      107.281       53.126     6288.212    11509.181     2822.400        1.881        1.031      130.185       66.696        0.262      347.459       26.441      858.594
09/16/2013  11:54:00       40.783      -13.892       25.206       39.090       40.459       37.643     1528.043     1636.909     1417.014        0.354        0.229       43.084       32.050        0.553      347.352       26.260      858.578
09/16/2013  11:55:00       66.653      -79.783        9.338       71.542       95.546       54.226     5118.241     9129.079     2940.473        1.404        0.859      103.961       63.412        0.372      347.637       26.749      858.550
09/16/2013  11:56:00       74.161     -113.762      -33.613       63.348       69.596       43.056     4012.962     4843.625     1853.827        1.514        0.536      135.800       35.159        0.067      347.511       26.532      858.553
09/16/2013  11:57:00       41.414     -104.964       -5.087       54.344       77.560       43.359     2953.280     6015.561     1879.998        1.180        0.542      112.839       44.690        0.157      347.601       26.688      858.551
09/16/2013  11:58:00        1.564     -104.206      -20.136       76.028       93.020       43.629     5780.280     8652.694     1903.494        1.380        0.817      104.218       39.114        0.141      347.342       26.241      858.553
09/16/2013  11:59:00      -78.413      -31.958       -3.974       36.662       33.153       25.620     1344.103     1099.147      656.371        0.514        0.155       84.675       21.152        0.062      347.425       26.384      858.545
09/16/2013  12:00:00      -25.115      -16.266        1.535       45.686       33.619       26.313     2087.173     1130.222      692.381        0.240        0.195       29.922       20.075        0.450      347.658       26.788      858.550
09/16/2013  12:01:00       22.947       62.353       -8.431       26.337       47.102       23.081      693.637     2218.618      532.720        0.396        0.172       66.441       15.409        0.054      347.770       26.981      858.580
09/16/2013  12:02:00       37.716      -71.733       18.666       53.556       76.265       49.844     2868.237     5816.423     2484.390        0.904        0.558       81.044       42.480        0.275      348.029       27.429      858.562
09/16/2013  12:03:00       91.309        2.632        5.754       63.738      102.983       36.726     4062.512    10605.569     1348.792        1.219        0.801       91.346       32.368        0.126      347.893       27.192      858.550
09/16/2013  12:04:00       78.058      -77.103       41.835       80.230      134.583       64.860     6436.928    18112.580     4206.851        2.127        1.438      109.717       77.161        0.495      348.054       27.468      858.514
09/16/2013  12:05:00       91.492       63.967       65.712       99.020       72.224       47.784     9804.883     5216.359     2283.293        1.704        0.865      111.635       24.264        0.047      347.962       27.309      858.515
09/16/2013  12:06:00        5.316      -24.093       12.939       51.320       78.517       29.897     2633.728     6164.993      893.836        0.523        0.485       24.673       11.483        0.217      347.602       26.691      858.506
09/16/2013  12:07:00       35.634       37.867       39.764       50.024       49.521       31.127     2502.366     2452.309      968.868        0.510        0.296       51.997       27.768        0.285      348.088       27.528      858.484
09/16/2013  12:08:00       20.390       94.324        2.749       32.942       82.964       31.465     1085.149     6883.051      990.036        0.914        0.448       96.503       30.737        0.101      347.784       27.003      858.487
09/16/2013  12:09:00       34.556       74.245       -1.431       29.894       52.241       32.047      893.677     2729.100     1027.028        0.568        0.232       81.893       31.423        0.147      347.635       26.747      858.470
09/16/2013  12:10:00      -27.812       76.522       -2.044       31.090       53.798       27.836      966.585     2894.259      774.870        0.563        0.232       81.419       30.548        0.141      347.933       27.262      858.461
09/16/2013  12:11:00       21.462        5.953       16.599       33.134       33.734       24.357     1097.838     1137.977      593.278        0.180        0.141       22.272       19.225        0.745      347.943       27.278      858.444
09/16/2013  12:12:00       17.850       92.267       -8.705       40.819       39.005       38.452     1666.204     1521.384     1478.529        0.679        0.233       93.978       29.725        0.100      347.779       26.997      858.420
09/16/2013  12:13:00       61.725       70.081        3.689       39.617       33.300       33.091     1569.471     1108.886     1095.041        0.625        0.189       93.388       22.918        0.060      347.679       26.823      858.408
09/16/2013  12:14:00       16.276      102.793       13.434       42.849       71.392       35.825     1836.061     5096.865     1283.396        0.961        0.411      104.073       45.482        0.191      347.875       27.161      858.387
09/16/2013  12:15:00       23.136       81.038        7.313       64.443       66.948       46.662     4152.938     4482.049     2177.338        0.898        0.541       84.276       42.634        0.256      348.154       27.645      858.362
09/16/2013  12:16:00      100.366       93.774       40.572      103.381       58.055       54.366    10687.540     3370.373     2955.647        1.876        0.851      137.357       45.996        0.112      348.256       27.816      858.342
09/16/2013  12:17:00      132.206      129.563        5.290       76.425       96.828       60.093     5840.850     9375.653     3611.145        2.656        0.941      185.108       61.620        0.111      347.750       26.944      858.333
09/16/2013  12:18:00      108.152       71.109       26.277       47.210       37.590       30.805     2228.821     1413.043      948.955        1.102        0.230      129.434       25.137        0.038      347.703       26.865      858.333
09/16/2013  12:19:00      120.658       71.302       29.789       82.622       56.505       46.050     6826.400     3192.792     2120.615        1.633        0.607      140.151       33.375        0.057      348.031       27.431      858.330
09/16/2013  12:20:00       35.016      -25.714       16.881       57.785       54.456       36.047     3339.062     2965.481     1299.397        0.489        0.380       43.443       30.949        0.508      347.834       27.092      858.353
09/16/2013  12:21:00       30.374       10.649       45.781       37.960       32.445       30.947     1440.969     1052.673      957.715        0.329        0.173       32.187       15.370        0.228      348.119       27.583      858.376
09/16/2013  12:22:00       56.258       62.753       36.397       42.089       34.530       28.801     1771.456     1192.326      829.507        0.611        0.190       84.279       20.100        0.057      347.769       26.979      858.378
09/16/2013  12:23:00       38.152      -71.434       -7.464       88.717       64.828       31.520     7870.761     4202.609      993.513        0.984        0.653       80.983       24.437        0.091      347.892       27.190      858.385
09/16/2013  12:24:00        5.556     -113.136       20.996       65.213      102.465       60.639     4252.687    10499.128     3677.145        1.585        0.921      113.272       63.641        0.316      348.179       27.687      858.378
09/16/2013  12:25:00       45.064      -96.648        0.811       47.346       64.744       52.124     2241.615     4191.761     2716.907        1.026        0.458      106.638       43.165        0.164      347.860       27.135      858.383
09/16/2013  12:26:00       42.299      -50.675       11.161       39.385       83.906       33.301     1551.143     7040.176     1108.962        0.709        0.485       66.009       41.173        0.389      347.782       27.001      858.353
09/16/2013  12:27:00       20.007       12.196       17.276       33.480       35.511       30.115     1120.891     1261.003      906.920        0.207        0.164       23.431       15.852        0.458      348.166       27.664      858.331
09/16/2013  12:28:00       34.294       35.270       47.271       54.391       45.056       39.075     2958.357     2030.040     1526.863        0.558        0.326       49.194       41.001        0.695      347.970       27.326      858.314
09/16/2013  12:29:00      135.216       97.991       22.522       31.717       38.825       29.985     1005.986     1507.345      899.083        1.590        0.171      166.990       13.222        0.006      347.442       26.413      858.313
09/16/2013  12:30:00       46.993       87.551       17.399       58.328       62.423       44.223     3402.209     3896.619     1955.681        0.971        0.463       99.365       27.238        0.075      347.862       27.140      858.311
09/16/2013  12:31:00       58.073      113.882       -1.377       52.259       57.740       48.433     2730.977     3333.942     2345.730        1.238        0.421      127.834       36.843        0.083      347.882       27.172      858.296
09/16/2013  12:32:00       64.266      127.246       -9.813       61.396       65.371       51.941     3769.485     4273.385     2697.853        1.558        0.537      142.554       42.983        0.091      347.864       27.140      858.270
09/16/2013  12:33:00       46.218       82.856      -13.338       45.160       57.956       32.165     2039.456     3358.876     1034.590        0.780        0.322       94.875       33.133        0.122      347.926       27.249      858.250
09/16/2013  12:34:00       37.809       26.681       -4.740       32.613       28.659       29.404     1063.606      821.339      864.610        0.246        0.137       46.275       13.339        0.083      347.977       27.337      858.257
09/16/2013  12:35:00       19.392       42.943        6.280       27.549       36.825       26.883      758.931     1356.082      722.701        0.255        0.142       47.119       19.320        0.168      348.270       27.843      858.261
09/16/2013  12:36:00       30.900       34.601       29.225       31.833       34.996       31.264     1013.354     1224.694      977.466        0.311        0.161       46.390       26.142        0.318      348.370       28.016      858.266
09/16/2013  12:37:00       34.177       -1.360       -8.827       40.588       36.168       17.019     1647.347     1308.104      289.647        0.225        0.162       34.204        5.549        0.026      347.866       27.145      858.258
09/16/2013  12:38:00       17.560       28.667       51.406       32.591       34.649       21.675     1062.181     1200.566      469.822        0.325        0.137       33.618       20.474        0.371      348.356       27.991      858.224
09/16/2013  12:39:00       24.176       -4.409       36.656       23.992       38.845       20.091      575.626     1508.931      403.662        0.222        0.124       24.574       16.515        0.452      348.220       27.758      858.150
09/16/2013  12:40:00      -76.454      -33.211       -5.789       71.265       32.705       30.722     5078.732     1069.648      943.829        0.704        0.355       83.356       34.016        0.167      348.134       27.608      858.144
09/16/2013  12:41:00      -17.644       -1.433        1.824       63.376       31.265       23.215     4016.463      977.526      538.940        0.292        0.277       17.702        8.939        0.255      348.310       27.913      858.161
09/16/2013  12:42:00       10.434      -30.667       36.936       46.718       50.022       37.615     2182.599     2502.191     1414.921        0.426        0.305       32.394       34.625        1.143      348.558       28.341      858.141
09/16/2013  12:43:00      -17.976       -7.050       49.198       39.637       59.515       26.112     1571.123     3542.005      681.853        0.429        0.290       19.309       17.137        0.788      348.636       28.475      858.119
09/16/2013  12:44:00      113.427      124.805       72.989       83.011       58.755       63.433     6890.874     3452.095     4023.797        2.407        0.718      168.648       49.411        0.086      348.014       27.399      858.065
09/16/2013  12:45:00      124.758      118.859       99.641       84.667       91.025       68.201     7168.549     8285.518     4651.388        2.986        1.005      172.313       50.623        0.086      347.777       26.989      858.031
09/16/2013  12:46:00       23.589       63.836      101.651       67.865       82.415       64.482     4605.705     6792.251     4157.898        1.526        0.778       68.055       70.786        1.082      348.044       27.452      858.025
09/16/2013  12:47:00       40.144      -36.585       33.342       55.468       82.084       42.830     3076.713     6737.719     1834.367        0.785        0.582       54.314       43.147        0.631      348.139       27.616      858.050
09/16/2013  12:48:00       -2.664       12.548       59.866       43.904       81.232       43.217     1927.593     6598.665     1867.726        0.707        0.520       12.828       50.816       15.693      348.530       28.294      858.070
09/16/2013  12:49:00       34.843       -0.114       22.561       40.505       42.522       33.775     1640.676     1808.116     1140.776        0.316        0.229       34.843       13.761        0.156      348.701       28.588      858.042
09/16/2013  12:50:00        4.656      -19.604       22.291       37.810       41.312       19.025     1429.563     1706.649      361.956        0.220        0.175       20.149       16.881        0.702      348.460       28.173      858.046
09/16/2013  12:51:00       -6.551       41.198       15.467       92.351       38.665       31.947     8528.660     1494.958     1020.617        0.651        0.552       41.716       35.472        0.723      348.394       28.060      857.983
09/16/2013  12:52:00      -71.041      -42.465       15.141       78.436       68.600       52.134     6152.160     4705.941     2717.938        1.032        0.679       82.765       51.946        0.394      348.466       28.182      858.016
09/16/2013  12:53:00       41.643      -82.695       -8.157       63.555       84.098       45.219     4039.281     7072.554     2044.795        1.090        0.658       92.589       38.061        0.169      347.835       27.091      857.950
09/16/2013  12:54:00      -49.553      -67.901        6.113       97.530       81.969       42.441     9512.082     6718.855     1801.208        1.256        0.902       84.060       28.351        0.114      348.233       27.779      857.917
09/16/2013  12:55:00     -266.569      -23.117       -6.209      111.654      148.101       60.703    12466.650    21933.854     3684.825        5.485        1.904      267.569       53.629        0.040      348.529       28.288      857.906
09/16/2013  12:56:00      -90.224     -105.644        8.771      137.516       92.602       60.160    18910.703     8575.144     3619.213        2.524        1.555      138.928       63.850        0.211      348.847       28.841      857.911
09/16/2013  12:57:00     -264.335     -164.842      -12.247      161.778      117.786       66.174    26172.036    13873.439     4378.961        7.080        2.221      311.522       74.548        0.057      348.694       28.573      857.904
09/16/2013  12:58:00     -257.775     -195.099        4.187      185.680      147.955       67.442    34476.945    21890.797     4548.435        8.271        3.046      323.283       89.016        0.076      348.698       28.581      857.888
09/16/2013  12:59:00     -300.224     -159.228       -3.691      144.515      118.412       68.247    20884.442    14021.460     4657.591        7.752        1.978      339.835       60.689        0.032      348.487       28.215      857.866
09/16/2013  13:00:00     -164.555      -70.469       21.357      226.128      142.553       81.952    51133.675    20321.348     6716.052        5.532        3.909      179.009       90.154        0.254      348.758       28.687      857.836
09/16/2013  13:01:00      -36.494     -139.144       -6.492       78.277       55.885       44.551     6127.320     3123.100     1984.769        1.598        0.562      143.850       18.897        0.017      348.661       28.519      857.834
09/16/2013  13:02:00     -198.566     -117.293      -10.627      110.910       92.052       45.426    12300.925     8473.501     2063.533        3.806        1.142      230.621       41.541        0.032      348.415       28.093      857.808
09/16/2013  13:03:00     -350.020     -118.281       -1.994      186.972      162.165       83.418    34958.617    26297.564     6958.548       10.235        3.411      369.465       95.929        0.067      348.700       28.584      857.749
09/16/2013  13:04:00     -275.576     -132.189       11.940      184.900      136.980       86.251    34188.151    18763.451     7439.266        7.696        3.020      305.640       94.696        0.096      348.727       28.632      857.783
09/16/2013  13:05:00     -226.459     -194.685       -4.209      152.993      150.604       84.654    23406.855    22681.639     7166.372        7.122        2.663      298.640       96.688        0.105      348.671       28.534      857.774
09/16/2013  13:06:00      -82.670     -249.229       22.694       95.578      160.890       63.065     9135.149    25885.658     3977.189        5.422        1.950      262.582       63.736        0.059      348.731       28.637      857.777
09/16/2013  13:07:00     -210.602     -381.574        3.484      195.928      189.875       94.094    38387.877    36052.450     8853.718       13.661        4.165      435.835      101.614        0.054      348.641       28.481      857.742
09/16/2013  13:08:00     -326.498     -252.575      -17.209      146.377      132.310       67.039    21426.305    17505.833     4494.177       10.705        2.171      412.790       68.042        0.027      348.626       28.456      857.732
09/16/2013  13:09:00     -303.810     -292.035       -7.794      179.685      187.922       87.880    32286.814    35314.597     7722.857       12.647        3.766      421.408       86.738        0.042      348.572       28.362      857.718
09/16/2013  13:10:00     -411.757     -310.272      -10.225      208.326      225.400      107.137    43399.703    50805.105    11478.419       18.578        5.284      515.571      119.927        0.054      348.669       28.532      857.667
09/16/2013  13:11:00     -277.071     -166.728       12.659      214.272      150.774       66.700    45912.569    22732.908     4448.906        8.890        3.655      323.368       75.226        0.054      348.798       28.754      857.697
09/16/2013  13:12:00     -206.335     -171.189        2.811      155.923      106.991       61.109    24311.870    11447.051     3734.266        5.568        1.975      268.104       70.796        0.070      348.943       29.005      857.721
09/16/2013  13:13:00     -475.903     -335.346      -22.029      273.377      256.354      112.811    74734.854    65717.254    12726.360       24.627        7.659      582.186      132.985        0.052      348.550       28.324      857.622
09/16/2013  13:14:00     -339.700     -217.543       -7.940      210.902      159.754       86.219    44479.551    25521.479     7433.735       12.009        3.872      403.387       95.330        0.056      348.467       28.182      857.655
09/16/2013  13:15:00     -274.490      -33.995      -22.300      166.815      100.782       61.480    27827.118    10157.098     3779.819        5.937        2.088      276.587       74.914        0.073      348.669       28.531      857.593
09/16/2013  13:16:00     -209.759     -119.776        8.614      158.134      104.025       65.370    25006.205    10821.156     4273.201        4.925        2.005      241.547       69.720        0.083      348.793       28.745      857.558
09/16/2013  13:17:00     -180.633     -170.141        3.591      137.254      148.560       77.088    18838.786    22070.110     5942.506        5.421        2.343      248.145       77.884        0.099      348.902       28.935      857.566
09/16/2013  13:18:00     -128.398     -202.242       15.975      148.547      123.458       69.391    22066.078    15241.760     4815.101        4.987        2.106      239.558       77.975        0.106      348.793       28.746      857.587
09/16/2013  13:19:00     -258.576     -450.526       -1.362      172.077      251.528       89.812    29610.323    63266.341     8066.240       18.537        5.047      519.457       80.384        0.024      348.697       28.579      857.539
09/16/2013  13:20:00     -356.686     -113.610       -2.845      175.820      135.169       83.573    30912.639    18270.543     6984.528        9.814        2.808      374.342       81.542        0.047      348.761       28.691      857.549
09/16/2013  13:21:00     -227.945     -219.005       11.676      168.569      141.940       96.002    28415.452    20146.962     9216.463        7.891        2.889      316.104      100.023        0.100      348.704       28.590      857.495
09/16/2013  13:22:00     -380.296     -197.596        3.238      229.867      179.545      103.196    52838.901    32236.458    10649.434       13.968        4.786      428.566      104.801        0.060      348.745       28.661      857.494
09/16/2013  13:23:00     -312.907     -185.048      -12.255      168.484      129.386       85.788    28386.890    16740.809     7359.604        9.238        2.624      363.529       79.322        0.048      348.630       28.463      857.462
09/16/2013  13:24:00     -304.819     -289.370        9.099      202.155      152.397       96.261    40866.525    23224.783     9266.254       12.503        3.668      420.297       95.765        0.052      348.788       28.736      857.418
09/16/2013  13:25:00     -335.929     -292.663       14.444      196.549      165.171       93.984    38631.527    27281.510     8833.061       13.671        3.737      445.533       95.547        0.046      348.806       28.768      857.430
09/16/2013  13:26:00     -228.911     -161.732       17.601      189.503      136.916       79.812    35911.269    18745.998     6369.953        6.993        3.051      280.281       90.686        0.105      349.044       29.179      857.446
09/16/2013  13:27:00     -324.711     -248.523        3.645      191.916      180.280       97.741    36831.915    32501.000     9553.223       12.303        3.944      408.902       96.978        0.056      348.744       28.659      857.458
09/16/2013  13:28:00     -300.876     -295.725       -1.174      192.658      164.975       88.590    37117.219    27216.780     7848.265       12.507        3.609      421.876       71.108        0.028      348.707       28.597      857.390
09/16/2013  13:29:00     -332.115     -195.119      -13.122      182.616      177.516       82.153    33348.748    31512.062     6749.053       11.006        3.580      385.191       71.818        0.035      348.695       28.576      857.401
09/16/2013  13:30:00     -156.428     -271.041       14.301      156.041      246.854       89.366    24348.790    60936.890     7986.236        9.569        4.664      312.942      103.438        0.109      348.803       28.762      857.425
09/16/2013  13:31:00      -98.139     -396.831        0.352      216.861      224.847       95.913    47028.652    50556.163     9199.310       13.692        5.339      408.786      106.948        0.068      348.763       28.693      857.399
09/16/2013  13:32:00     -139.982     -197.991       -4.965      121.054      141.101       65.446    14653.998    19909.391     4283.156        4.883        1.942      242.478       39.777        0.027      349.020       29.136      857.397
09/16/2013  13:33:00     -162.975     -259.609       -3.972      146.531      151.646       73.281    21471.248    22996.608     5370.118        7.190        2.492      306.525       56.164        0.034      348.863       28.867      857.378
09/16/2013  13:34:00     -242.784     -215.580      -29.506      154.286      147.547       86.492    23804.203    21770.073     7480.790        7.966        2.653      324.683       67.959        0.044      348.733       28.642      857.309
09/16/2013  13:35:00     -206.166     -237.599        5.268      228.178      179.805       94.044    52065.082    32329.854     8844.360        9.609        4.662      314.575       87.770        0.078      349.015       29.130      857.297
09/16/2013  13:36:00     -265.994     -267.655        8.115      219.865      162.109       80.405    48340.538    26279.344     6465.015       11.175        4.054      377.348       98.634        0.068      348.833       28.815      857.258
09/16/2013  13:37:00     -507.524     -392.953      -11.037      279.022      257.033      135.255    77853.101    66066.154    18293.995       28.713        8.111      641.867      150.054        0.055      348.645       28.488      857.242
09/16/2013  13:38:00     -541.749     -418.651       -3.693      376.966      270.213      136.380   142103.506    73015.117    18599.459       35.120       11.686      684.661      161.202        0.055      348.615       28.437      857.198
09/16/2013  13:39:00     -571.907     -225.453      -22.297      293.544      196.665      121.804    86168.197    38676.964    14836.143       25.901        6.984      614.741      150.855        0.060      348.723       28.625      857.201
09/16/2013  13:40:00     -535.952     -265.530       -4.174      356.677      227.590      112.103   127218.347    51797.365    12567.007       27.464        9.579      598.122      132.264        0.049      348.637       28.476      857.169
09/16/2013  13:41:00     -498.239     -353.667       -2.591      301.332      259.344      116.810    90800.861    67259.339    13644.664       27.248        8.585      611.001      123.472        0.041      348.638       28.478      857.198
09/16/2013  13:42:00     -406.977     -249.024      -19.488      263.242      162.833       78.770    69296.454    26514.730     6204.652       16.500        5.101      477.119       90.379        0.036      348.718       28.615      857.219
09/16/2013  13:43:00     -488.280     -246.015        2.468      267.979      155.740       94.937    71812.909    24254.805     9012.962       20.199        5.254      546.755      119.072        0.047      348.761       28.690      857.207
09/16/2013  13:44:00     -383.198     -204.297       -0.622      214.886      152.387       95.335    46175.912    23221.677     9088.788       13.352        3.924      434.255       98.595        0.052      348.744       28.659      857.186
09/16/2013  13:45:00     -201.984     -169.609       19.935      143.340      143.202       65.824    20546.261    20506.758     4332.863        5.767        2.269      263.752       63.323        0.058      348.885       28.904      857.180
09/16/2013  13:46:00     -208.384     -189.263       -3.447      192.964      130.849       72.324    37235.265    17121.537     5230.753        6.941        2.979      281.504       84.480        0.090      349.006       29.114      857.159
09/16/2013  13:47:00     -301.041     -229.741        7.134      180.036      131.421       85.473    32412.963    17271.428     7305.555       10.021        2.849      378.690       82.328        0.047      348.984       29.075      857.158
09/16/2013  13:48:00     -343.627     -262.084       -0.302      267.926      195.693       98.777    71784.286    38295.779     9756.846       15.328        5.992      432.166      117.232        0.074      348.765       28.695      857.141
09/16/2013  13:49:00     -345.290     -208.784        8.506      226.717      181.862       87.080    51400.684    33073.805     7582.961       12.745        4.603      403.504      100.969        0.063      348.899       28.929      857.098
09/16/2013  13:50:00     -530.716     -259.789      -23.370      254.398      160.238       93.201    64718.458    25676.319     8686.407       22.437        4.954      590.889      110.780        0.035      348.807       28.769      857.037
09/16/2013  13:51:00     -551.300     -262.289       -0.649      387.585      307.459      121.034   150222.240    94530.907    14649.293       31.601       12.970      610.514      148.319        0.059      348.966       29.045      856.941
09/16/2013  13:52:00     -153.239     -124.221       34.055      237.462      122.544       93.064    56388.278    15017.008     8660.873        6.005        4.003      197.264      104.558        0.281      349.288       29.602      857.049
09/16/2013  13:53:00     -326.748     -224.347        7.123      209.089      192.484       92.651    43718.338    37050.261     8584.249       12.323        4.468      396.353      108.493        0.075      349.031       29.158      857.094
09/16/2013  13:54:00     -211.466     -298.536        5.649      233.795      162.563       93.794    54660.024    26426.800     8797.302       11.186        4.494      365.843       88.175        0.058      348.807       28.769      857.129
09/16/2013  13:55:00     -161.499     -293.882      -10.621      242.732      139.589       93.848    58918.619    19485.157     8807.412        9.987        4.361      335.333       84.355        0.063      348.749       28.668      857.124
09/16/2013  13:56:00     -162.803     -372.017      -17.032      127.097      165.972       64.300    16153.771    27546.701     4134.473       10.650        2.392      406.081       44.058        0.012      348.688       28.563      857.159
09/16/2013  13:57:00     -274.109     -224.019       -5.300      165.756      129.197       52.931    27475.164    16691.780     2801.691        8.615        2.348      354.006       28.804        0.007      348.992       29.090      857.132
09/16/2013  13:58:00     -231.793     -161.529        7.263      169.725      175.212       93.342    28806.418    30699.344     8712.808        7.403        3.411      282.524       88.590        0.098      348.866       28.870      857.079
09/16/2013  13:59:00     -283.170     -193.625       -1.891      204.077      168.200       91.596    41647.575    28291.203     8389.801        9.799        3.916      343.039       94.597        0.076      348.837       28.821      857.069
09/16/2013  14:00:00     -574.159     -275.125      -14.876      294.305      270.243      108.780    86615.247    73031.160    11833.051       28.849        8.574      636.673      133.362        0.044      348.576       28.369      856.999
09/16/2013  14:01:00     -558.500     -275.369      -14.745      267.116      242.401      106.541    71350.841    58758.395    11351.060       26.469        7.073      622.696      114.944        0.034      348.776       28.716      856.947
09/16/2013  14:02:00     -646.487     -289.122      -19.739      249.402      204.396      105.376    62201.299    41777.708    11104.020       30.848        5.754      708.193      130.691        0.034      348.591       28.396      856.961
09/16/2013  14:03:00     -445.026     -160.225        8.779      211.089      175.767       96.096    44558.369    30894.202     9234.346       15.423        4.234      472.991      105.795        0.050      348.539       28.307      857.033
09/16/2013  14:04:00     -388.742     -164.231      -13.527      187.887      145.059       85.307    35301.672    21041.972     7277.282       12.094        3.181      422.010       89.100        0.045      348.742       28.656      856.941
09/16/2013  14:05:00     -287.137     -108.786        1.168      206.348      160.370       77.808    42579.575    25718.378     6054.096        8.430        3.718      307.054      101.551        0.109      348.821       28.792      856.924
09/16/2013  14:06:00     -362.532     -116.433      -14.552      210.507      174.997       87.974    44313.286    30623.800     7739.502       11.392        4.134      380.770      106.423        0.078      348.998       29.100      856.910
09/16/2013  14:07:00     -655.441     -366.898      -22.992      233.841      223.148      130.484    54681.447    49795.040    17026.203       34.310        6.075      751.144      107.095        0.020      348.652       28.500      856.858
09/16/2013  14:08:00     -437.465     -184.911        0.016      270.589      194.679      112.792    73218.347    37900.057    12722.107       17.468        6.192      474.940      106.039        0.050      348.817       28.785      856.895
09/16/2013  14:09:00     -392.093     -248.141      -10.432      251.474      174.850      111.485    63239.010    30572.660    12428.989       16.081        5.312      464.017      127.600        0.076      348.802       28.759      856.880
09/16/2013  14:10:00     -319.420     -221.191       13.368      261.498      194.514      103.877    68381.265    37835.704    10790.408       13.405        5.850      388.529      126.875        0.107      348.958       29.031      856.871
09/16/2013  14:11:00     -362.564     -240.877      -14.605      300.889      271.001      117.521    90534.116    73441.338    13811.131       18.370        8.889      435.287      151.580        0.121      348.865       28.871      856.873
09/16/2013  14:12:00     -584.853     -478.071      -13.375      281.346      220.798      128.831    79155.485    48751.806    16597.545       35.761        7.225      755.384      136.585        0.033      348.651       28.499      856.840
09/16/2013  14:13:00     -335.909     -231.399      -15.257      207.039      171.936       77.202    42865.316    29562.106     5960.121       12.248        3.919      407.897       70.329        0.030      348.582       28.378      856.842
09/16/2013  14:14:00     -396.104     -291.044        4.478      213.251      158.831       93.284    45475.799    25227.180     8701.859       16.050        3.970      491.533      103.322        0.044      348.649       28.497      856.789
09/16/2013  14:15:00     -454.865     -264.440       -1.531      217.180      133.003       94.749    47167.196    17689.699     8977.318       17.532        3.692      526.147      111.314        0.045      348.811       28.777      856.791
09/16/2013  14:16:00     -289.227     -258.282      -14.991      133.029      126.282       65.921    17696.616    15947.153     4345.515        9.428        1.899      387.765       61.655        0.025      348.937       28.993      856.801
09/16/2013  14:17:00     -381.145     -304.067        0.143      211.744      187.725      102.497    44835.559    35240.619    10505.693       16.414        4.529      487.574      116.994        0.058      349.020       29.138      856.781
09/16/2013  14:18:00     -399.870     -334.682      -29.547      216.761      161.790       89.960    46985.338    26175.845     8092.730       17.700        4.063      521.449       96.444        0.034      348.872       28.881      856.794
09/16/2013  14:19:00     -294.751     -127.428       -5.991      173.075      119.507       80.264    29954.848    14281.897     6442.375        7.691        2.534      321.117       68.137        0.045      349.063       29.212      856.759
09/16/2013  14:20:00     -102.792     -220.196      -18.442      168.489      160.987       66.138    28388.451    25916.878     4374.182        5.902        2.934      243.007       59.665        0.060      349.082       29.245      856.772
09/16/2013  14:21:00     -174.821     -312.059      -28.426      139.280      127.241       77.652    19398.801    16190.329     6029.886        8.518        2.081      357.691       42.547        0.014      349.170       29.396      856.751
09/16/2013  14:22:00     -191.125     -176.640       15.253      173.402      161.927       80.822    30068.353    26220.222     6532.249        6.538        3.141      260.250       68.116        0.069      349.200       29.451      856.743
09/16/2013  14:23:00     -412.551     -399.489      -22.530      309.089      206.340      116.997    95535.722    42576.349    13688.191       24.102        7.590      574.273      116.881        0.041      348.986       29.080      856.746
09/16/2013  14:24:00     -327.575     -456.378      -23.363      210.001      236.366       96.119    44100.270    55868.842     9238.866       21.265        5.460      561.771       87.387        0.024      348.857       28.857      856.744
09/16/2013  14:25:00     -435.232     -374.247       -3.530      210.370      217.356      108.246    44255.654    47243.460    11717.158       21.634        5.161      574.010      112.865        0.039      348.694       28.573      856.779
09/16/2013  14:26:00     -520.664     -413.059      -12.099      294.715      224.460      119.781    86856.853    50382.300    14347.369       29.669        7.579      664.612      122.287        0.034      348.663       28.520      856.698
09/16/2013  14:27:00     -639.123     -181.902      -15.929      314.040      184.299      114.917    98621.205    33965.982    13205.898       29.378        7.290      664.505      129.080        0.038      348.567       28.352      856.702
09/16/2013  14:28:00     -467.523     -289.439        2.232      240.682      225.759      107.391    57927.639    50967.341    11532.906       21.137        6.021      549.866      130.408        0.056      348.502       28.241      856.684
09/16/2013  14:29:00     -400.028     -238.396       12.546      285.598      207.883      109.507    81566.244    43215.526    11991.732       17.687        6.839      465.677      141.430        0.092      348.677       28.544      856.628
09/16/2013  14:30:00     -507.225      -92.627       -6.701      299.836      193.694      114.609    89901.436    37517.464    13135.331       20.320        7.028      515.613      135.768        0.069      348.873       28.884      856.625
09/16/2013  14:31:00     -470.041     -359.052      -32.052      260.669      193.635      108.676    67948.193    37494.463    11810.522       23.405        5.863      591.488      117.914        0.040      348.749       28.669      856.620
09/16/2013  14:32:00     -495.278     -324.840      -14.849      268.891      178.415      104.640    72302.474    31831.938    10949.593       23.304        5.754      592.302      123.935        0.044      348.651       28.500      856.595
09/16/2013  14:33:00     -484.318     -190.123      -20.861      260.275      198.603      103.826    67742.963    39443.212    10779.787       19.453        5.898      520.298      125.925        0.059      348.744       28.660      856.567
09/16/2013  14:34:00     -568.713     -295.886      -44.639      224.351      281.708       96.927    50333.208    79359.639     9394.763       27.600        6.954      641.080      105.577        0.027      348.762       28.690      856.578
09/16/2013  14:35:00     -446.884     -287.836        2.384      244.251      200.077      112.500    59658.313    40030.802    12656.336       19.743        5.617      531.559      111.753        0.044      348.739       28.651      856.514
09/16/2013  14:36:00     -540.546     -256.207       -2.777      250.269      196.460      101.596    62634.588    38596.493    10321.753       23.467        5.578      598.190      100.228        0.028      348.783       28.727      856.541
09/16/2013  14:37:00     -422.098     -336.624       12.474      272.035      189.984      110.017    74002.922    36093.924    12103.776       20.689        6.110      539.891      133.712        0.061      348.663       28.520      856.536
09/16/2013  14:38:00     -433.750     -252.371      -10.309      223.109      174.051      107.596    49777.679    30293.716    11576.858       17.177        4.582      501.827      119.110        0.056      348.787       28.736      856.513
09/16/2013  14:39:00     -399.480     -403.701        3.388      264.238      268.387      127.984    69821.534    72031.403    16379.874       24.037        7.912      567.942      123.751        0.047      348.851       28.845      856.497
09/16/2013  14:40:00     -339.789     -405.407       -4.313      286.064      280.105      153.665    81832.856    78458.645    23613.006       23.183        9.195      528.972      157.521        0.089      348.624       28.451      856.637
09/16/2013  14:41:00     -361.449     -123.975      -23.341      223.237      181.811       98.406    49834.812    33055.149     9683.827       11.955        4.629      382.119      109.412        0.082      348.655       28.507      856.585
09/16/2013  14:42:00     -205.150     -148.737        6.664      167.701      172.422       84.432    28123.710    29729.336     7128.820        6.460        3.249      253.395       94.879        0.140      348.735       28.644      856.515
09/16/2013  14:43:00     -307.556     -235.660        9.862      180.757      143.146       83.578    32673.011    20490.712     6985.336       10.517        3.007      387.461       85.867        0.049      348.805       28.766      856.541
09/16/2013  14:44:00     -134.419     -186.833       -6.232      210.728      127.920       81.320    44406.452    16363.642     6612.866        6.018        3.369      230.163       64.927        0.080      349.045       29.181      856.596
09/16/2013  14:45:00      -44.806     -178.715       15.383      152.464      133.533       85.825    23245.130    17831.072     7365.986        4.130        2.422      184.246       65.773        0.127      348.876       28.890      856.580
09/16/2013  14:46:00     -125.884     -142.825        3.653      120.825      107.289       57.430    14598.600    11510.907     3298.200        3.283        1.470      190.383       60.601        0.101      348.729       28.636      856.515
09/16/2013  14:47:00     -161.822     -178.744       -9.853      121.696      114.342       61.105    14809.916    13074.079     3733.764        4.492        1.581      241.114       50.052        0.043      348.817       28.787      856.476
09/16/2013  14:48:00     -101.045     -271.173        2.284      182.307      160.789       80.260    33235.689    25853.251     6441.679        7.463        3.277      289.387       63.641        0.048      348.730       28.636      856.475
09/16/2013  14:49:00     -240.043     -214.250        6.154      160.891      145.149       82.043    25885.769    21068.169     6731.088        7.861        2.684      321.751       73.582        0.052      348.813       28.779      856.445
09/16/2013  14:50:00      -14.988     -163.351       22.764      146.841      127.266      100.206    21562.356    16196.558    10041.269        3.760        2.390      164.037       75.135        0.210      348.942       29.005      856.464
09/16/2013  14:51:00     -157.656     -185.954        2.313      174.536      128.715       48.703    30462.703    16567.488     2372.024        5.441        2.470      243.792       46.249        0.036      348.986       29.078      856.419
09/16/2013  14:52:00     -337.867     -255.915      -14.437      160.366      169.214       88.696    25717.322    28633.271     7867.048       12.102        3.111      423.848       96.322        0.052      348.995       29.096      856.391
09/16/2013  14:53:00     -456.645     -226.267      -17.379      279.554      169.193       96.328    78150.689    28626.292     9279.014       18.802        5.803      509.629      102.203        0.040      348.910       28.950      856.343
09/16/2013  14:54:00     -313.881     -150.488       -9.413      261.958      199.802      105.714    68622.161    39920.661    11175.355       12.046        5.986      348.092      116.814        0.113      348.945       29.007      856.275
09/16/2013  14:55:00     -255.321     -129.990       27.200      228.348      175.278      109.932    52142.693    30722.458    12085.091        8.887        4.748      286.506      108.198        0.143      349.070       29.225      856.305
09/16/2013  14:56:00     -162.865     -178.762       46.710      226.097      176.915       98.006    51119.733    31298.789     9605.231        7.632        4.601      241.828       91.663        0.144      349.075       29.233      856.440
09/16/2013  14:57:00      -43.743     -174.804        8.892      141.334      143.829       64.276    19975.197    20686.880     4131.386        3.866        2.240      180.194       54.330        0.091      348.932       28.987      856.382
09/16/2013  14:58:00     -226.655     -205.196       -3.214      172.712      162.606       86.969    29829.398    26440.613     7563.577        7.865        3.192      305.742       73.022        0.057      348.978       29.065      856.358
09/16/2013  14:59:00     -259.592     -190.123        7.279      181.655      142.959       96.202    32998.610    20437.343     9254.861        8.313        3.135      321.768      101.924        0.100      349.243       29.526      856.347
09/16/2013  15:00:00     -440.799     -330.333       -4.234      228.344      203.661      109.227    52141.110    41477.613    11930.616       20.447        5.277      550.839      118.932        0.047      348.911       28.950      856.375
09/16/2013  15:01:00     -218.516     -277.605       -3.946      206.625      200.924      102.908    42693.748    40370.558    10590.100       10.922        4.683      353.290      108.949        0.095      349.082       29.247      856.372
09/16/2013  15:02:00     -250.277     -212.985      -19.832      149.812      142.610       90.537    22443.764    20337.623     8197.021        7.968        2.549      328.636       81.376        0.061      349.128       29.324      856.313
09/16/2013  15:03:00     -289.371     -180.335       16.069      170.350      117.669       80.076    29019.217    13846.101     6412.113        8.289        2.464      340.964       72.286        0.045      349.323       29.665      856.324
09/16/2013  15:04:00     -352.375     -313.336       -3.595      235.039      170.943      111.730    55243.183    29221.404    12483.522       15.964        4.847      471.538      128.034        0.074      348.905       28.939      856.324
09/16/2013  15:05:00     -345.911     -206.038        3.681      233.870      218.563       93.634    54694.993    47769.609     8767.361       13.665        5.562      402.625      118.286        0.086      348.751       28.672      856.274
09/16/2013  15:06:00     -374.310     -215.736       -1.746      250.372      190.356       97.731    62686.058    36235.555     9551.295       14.754        5.424      432.031      102.321        0.056      348.889       28.912      856.244
09/16/2013  15:07:00     -381.822     -313.879        8.930      242.721      173.943       93.643    58913.527    30256.128     8769.091       17.114        4.897      494.276       88.745        0.032      348.797       28.753      856.248
09/16/2013  15:08:00     -205.880     -107.802        8.089      117.094      136.472       73.047    13711.118    18624.584     5335.927        4.586        1.884      232.396       46.897        0.041      349.012       29.125      856.225
09/16/2013  15:09:00     -597.035     -334.627      -23.518      242.811      184.759      107.265    58957.272    34135.914    11505.752       28.677        5.230      684.416       92.774        0.018      348.804       28.765      856.152
09/16/2013  15:10:00     -471.862     -251.574        8.167      320.933      231.195      112.679   102998.133    53450.956    12696.560       22.754        8.457      534.737      121.786        0.052      348.931       28.983      856.150
09/16/2013  15:11:00     -548.788     -392.150      -11.459      276.982      229.668      108.053    76719.282    52747.340    11675.505       29.808        7.057      674.499      134.677        0.040      348.870       28.878      856.193
09/16/2013  15:12:00     -380.491     -362.683       -5.267      257.709      165.873      101.877    66413.972    27513.717    10379.022       19.030        5.215      525.654      117.144        0.050      348.795       28.748      856.184
09/16/2013  15:13:00     -324.960     -215.273       -9.231      189.421      173.114       83.076    35880.504    29968.539     6901.579       11.237        3.638      389.796      101.058        0.067      348.963       29.039      856.206
09/16/2013  15:14:00     -205.539     -198.709       23.501      178.167      156.243       85.503    31743.614    24411.987     7310.720        7.286        3.173      285.887      105.640        0.137      349.107       29.290      856.173
09/16/2013  15:15:00     -322.341     -157.559       -6.503      173.765      185.022       76.907    30194.248    34233.181     5914.615        9.954        3.517      358.787       75.186        0.044      349.084       29.249      856.135
09/16/2013  15:16:00     -492.953     -315.060       -9.313      238.710      181.389      102.431    56982.297    32902.065    10492.185       22.134        5.019      585.035      119.074        0.041      348.868       28.873      856.100
09/16/2013  15:17:00     -233.919     -203.296       -1.456      212.151      126.611       86.709    45007.979    16030.324     7518.504        8.229        3.428      309.915      100.499        0.105      349.021       29.141      856.099
09/16/2013  15:18:00     -345.928     -222.902       -6.404      145.401      139.847       64.317    21141.576    19557.236     4136.669       10.710        2.242      411.523       62.769        0.023      349.109       29.292      856.083
09/16/2013  15:19:00     -281.089     -264.629       11.160      183.981      225.867       91.004    33849.160    51015.791     8281.805       12.114        4.657      386.056       98.087        0.065      349.087       29.256      856.100
09/16/2013  15:20:00     -388.294     -311.607       -7.183      259.020      203.283      105.105    67091.253    41323.942    11047.033       18.367        5.973      497.867      120.638        0.059      348.985       29.077      856.108
09/16/2013  15:21:00     -462.498     -198.347      -37.940      221.819      183.399       90.590    49203.478    33635.210     8206.617       17.285        4.552      503.236      111.627        0.049      348.857       28.856      856.102
09/16/2013  15:22:00     -416.007     -210.502       -6.734      249.115      186.322       96.421    62058.206    34715.750     9296.953       16.172        5.304      466.233      122.516        0.069      348.797       28.752      856.055
09/16/2013  15:23:00     -412.990      -43.845        0.536      166.505      140.163       84.573    27723.758    19645.783     7152.606       11.349        2.726      415.310       87.098        0.044      348.932       28.986      856.040
09/16/2013  15:24:00     -250.373     -144.605       -2.994      168.538      123.812       71.319    28405.102    15329.446     5086.412        6.620        2.441      289.132       72.909        0.064      349.084       29.250      856.048
09/16/2013  15:25:00     -386.530     -148.235      -11.623      193.674      183.219       89.895    37509.647    33569.063     8081.152       12.532        3.958      413.980      108.013        0.068      348.994       29.095      856.064
09/16/2013  15:26:00     -433.232     -275.987      -11.744      230.346      201.813       91.089    53059.473    40728.436     8297.154       18.302        5.104      513.672      104.980        0.042      348.868       28.875      856.046
09/16/2013  15:27:00     -349.288     -263.129        4.922      245.655      174.055      103.637    60346.542    30294.981    10740.612       14.630        5.069      437.308      102.669        0.055      348.936       28.992      856.052
09/16/2013  15:28:00     -176.820     -100.638       29.410      182.267      105.471       70.687    33221.391    11124.223     4996.583        4.579        2.467      203.454       71.412        0.123      348.972       29.057      856.026
09/16/2013  15:29:00     -261.625     -153.236       11.483      177.893      135.438       80.133    31645.915    18343.380     6421.292        7.422        2.821      303.198       87.827        0.084      349.017       29.133      856.028
09/16/2013  15:30:00     -238.147     -131.295        4.264      128.169       88.905       58.881    16427.255     7904.140     3467.020        5.088        1.390      271.942       59.321        0.048      349.043       29.176      856.008
09/16/2013  15:31:00     -266.509     -288.265       -6.233      198.771      152.864       86.723    39510.007    23367.514     7520.874       11.227        3.520      392.586       94.359        0.058      349.002       29.108      855.993
09/16/2013  15:32:00     -265.719     -267.131       -2.477      202.655      173.434       80.556    41069.002    30079.248     6489.327       10.979        3.882      376.783       94.546        0.063      348.843       28.833      855.976
09/16/2013  15:33:00     -248.858      -87.718       -3.098      121.942       98.685       63.185    14869.925     9738.633     3992.357        4.911        1.430      263.866       58.214        0.049      348.867       28.872      855.976
09/16/2013  15:34:00     -262.431     -136.540      -10.947       90.524       78.214       49.276     8194.636     6117.419     2428.078        5.218        0.837      295.826       38.371        0.017      348.916       28.957      855.987
09/16/2013  15:35:00     -272.537     -147.991       -8.545      258.314      141.953       73.989    66725.998    20150.536     5474.413        9.428        4.618      310.126       93.672        0.091      349.046       29.184      855.964
09/16/2013  15:36:00     -247.880     -192.016       -1.501      214.947      170.069       83.552    46202.167    28923.518     6980.867        9.020        4.105      313.552       86.093        0.075      349.143       29.351      855.949
09/16/2013  15:37:00     -213.295     -198.396       14.217      180.113      191.035       88.260    32440.753    36494.307     7789.796        8.088        3.836      291.300       90.658        0.097      349.158       29.378      855.919
09/16/2013  15:38:00     -258.180     -238.577       21.205      206.192      214.536       97.958    42515.089    46025.774     9595.695       11.106        4.907      351.533       95.704        0.074      348.931       28.984      855.899
09/16/2013  15:39:00     -363.269     -268.881       -4.576      242.577      196.642       91.591    58843.813    38668.065     8388.902       15.507        5.295      451.952      111.371        0.061      348.835       28.818      855.873
09/16/2013  15:40:00     -475.976     -261.696      -25.890      163.765      228.798      102.432    26819.099    52348.321    10492.362       19.267        4.483      543.174       88.032        0.026      348.927       28.976      855.854
09/16/2013  15:41:00     -506.618     -323.339      -18.332      210.572      197.469       92.560    44340.488    38993.936     8567.316       22.671        4.595      601.007      105.438        0.031      348.891       28.915      855.874
09/16/2013  15:42:00     -450.050     -366.798       -9.280      261.301      161.182      116.770    68278.221    25979.759    13635.246       22.251        5.395      580.591      119.040        0.042      348.750       28.670      855.867
09/16/2013  15:43:00     -352.799     -230.822        4.305      260.750      192.839      108.947    67990.501    37186.899    11869.384       14.738        5.852      421.599      130.319        0.096      348.901       28.933      855.911
09/16/2013  15:44:00     -264.144     -173.338        0.002      156.686      136.820       74.351    24550.436    18719.604     5528.038        7.430        2.440      315.940       83.448        0.070      349.021       29.140      855.947
09/16/2013  15:45:00     -299.752     -176.700        2.344      194.659      124.972       90.537    37892.281    15617.898     8196.983        9.138        3.085      347.956      103.084        0.088      349.070       29.224      855.927
09/16/2013  15:46:00     -386.492     -331.105      -38.011      216.306      174.263       96.972    46788.084    30367.694     9403.620       17.349        4.328      508.927      100.807        0.039      348.916       28.957      855.914
09/16/2013  15:47:00     -342.557     -156.493       -2.768      177.538      171.127       84.072    31519.729    29284.496     7068.180       10.484        3.394      376.611       89.154        0.056      348.743       28.658      855.884
09/16/2013  15:48:00     -232.182     -171.312        2.377      140.715      113.841       66.449    19800.723    12959.886     4415.444        6.021        1.859      288.541       59.602        0.043      348.787       28.733      855.885
09/16/2013  15:49:00     -257.674     -193.854        6.044      191.372      139.859       75.961    36623.278    19560.566     5770.047        8.297        3.098      322.452       88.484        0.075      348.797       28.752      855.868
09/16/2013  15:50:00     -248.252     -184.300       -3.131      148.308      151.334       77.333    21995.321    22902.090     5980.330        7.323        2.544      309.185       80.698        0.068      348.992       29.090      855.864
09/16/2013  15:51:00      -44.339     -136.038       -2.295      148.699      139.575       58.084    22111.494    19481.205     3373.762        3.271        2.248      143.081       47.839        0.112      349.065       29.217      855.841
09/16/2013  15:52:00     -282.038      -85.870       -1.181      158.646       95.763       63.865    25168.615     9170.487     4078.693        6.266        1.921      294.820       64.899        0.048      349.314       29.648      855.854
09/16/2013  15:53:00     -309.632     -123.890        1.445      168.541      194.017       80.184    28405.963    37642.753     6429.541        9.184        3.624      333.498       88.890        0.071      349.288       29.604      855.844
09/16/2013  15:54:00     -398.749     -107.141      -23.240      152.031      167.131       76.176    23113.569    27932.709     5802.727       11.392        2.842      412.893       67.604        0.027      349.014       29.128      855.824
09/16/2013  15:55:00     -316.242     -281.600       -1.129      179.278      160.886       90.537    32140.626    25884.168     8197.002       12.275        3.311      423.447       74.042        0.031      348.975       29.060      855.845
09/16/2013  15:56:00     -297.177     -361.351        3.604      203.925      199.662      101.911    41585.262    39865.059    10385.860       15.535        4.592      467.855       78.296        0.028      348.779       28.721      855.810
09/16/2013  15:57:00     -163.539     -218.338        2.778      151.065      165.021       85.160    22820.627    27232.075     7252.279        6.585        2.865      272.794       73.965        0.074      348.825       28.801      855.790
09/16/2013  15:58:00     -293.782     -269.877        4.815      176.689      174.054       98.233    31218.938    30294.705     9649.664       11.515        3.558      398.925       92.051        0.053      348.913       28.952      855.804
09/16/2013  15:59:00     -392.748     -364.514        9.000      240.080      194.247      115.197    57638.322    37731.879    13270.456       19.790        5.432      535.837      122.479        0.052      348.713       28.607      855.771
09/16/2013  16:00:00     -499.760     -245.396       -6.627      237.529      179.233       87.282    56420.201    32124.562     7618.153       20.307        4.808      556.758       82.757        0.022      348.806       28.767      855.739
09/16/2013  16:01:00     -411.388     -259.870        4.994      215.097      194.227       99.221    46266.616    37723.981     9844.865       16.530        4.692      486.593      115.010        0.056      348.937       28.995      855.760
09/16/2013  16:02:00     -303.087     -243.874       -8.929      157.549      121.794       77.302    24821.806    14833.682     5975.624        9.851        2.282      389.020       68.690        0.031      348.995       29.095      855.762
09/16/2013  16:03:00     -205.040     -180.044        7.058      124.990      137.021       66.119    15622.378    18774.856     4371.780        5.663        1.938      272.868       68.355        0.063      348.872       28.883      855.788
09/16/2013  16:04:00     -284.306     -186.453       -5.150      209.436      118.966       80.767    43863.401    14152.799     6523.348        9.007        3.227      339.992       72.809        0.046      348.800       28.756      855.706
09/16/2013  16:05:00     -127.313     -187.426      -11.127      150.177      140.362       87.774    22553.209    19701.480     7704.212        5.070        2.498      226.577       73.119        0.104      348.920       28.966      855.688
09/16/2013  16:06:00     -318.335     -208.555       -8.515      155.273       95.752       60.131    24109.774     9168.421     3615.788        9.089        1.845      380.569       49.070        0.017      348.929       28.980      855.717
09/16/2013  16:07:00     -433.095     -278.246      -24.937      183.903      148.847       73.325    33820.233    22155.573     5376.538       16.347        3.068      514.774       87.837        0.029      348.860       28.861      855.721
09/16/2013  16:08:00     -241.259     -247.321       16.197      210.789      172.537       99.216    44432.091    29769.176     9843.825       10.182        4.202      345.505      109.371        0.100      348.829       28.807      855.693
09/16/2013  16:09:00     -305.552     -136.257       -6.060      122.810      144.255       68.933    15082.291    20809.512     4751.691        7.630        2.032      334.556       73.337        0.048      348.954       29.023      855.738
09/16/2013  16:10:00     -430.246     -282.110      -13.343      165.960      146.160       86.666    27542.869    21362.610     7511.016       16.063        2.821      514.488       82.544        0.026      348.751       28.673      855.751
09/16/2013  16:11:00     -309.994     -160.301      -13.195      211.726      148.323       80.462    44827.698    21999.696     6474.162        9.762        3.665      348.988       86.936        0.062      348.770       28.705      855.739
09/16/2013  16:12:00      -57.994      -75.359       11.294      113.108      100.895       44.238    12793.490    10179.713     1957.007        1.705        1.247       95.091       47.134        0.246      348.905       28.941      855.731
09/16/2013  16:13:00     -270.543      -83.129      -11.383      178.776      147.788       68.271    31960.869    21841.399     4660.974        6.934        2.923      283.027       64.042        0.051      348.942       29.003      855.705
09/16/2013  16:14:00     -326.019     -163.863      -12.304      224.717      182.619      101.160    50497.761    33349.842    10233.317       11.367        4.704      364.882      120.790        0.110      348.859       28.861      855.708
09/16/2013  16:15:00     -213.099     -105.766       35.157      211.899      155.418       92.418    44901.358    24154.762     8541.097        6.770        3.880      237.903      106.839        0.202      348.989       29.085      855.718
09/16/2013  16:16:00     -406.272     -247.560       -6.392      216.636      172.336       93.900    46931.215    29699.768     8817.121       15.590        4.272      475.755      104.163        0.048      348.873       28.882      855.728
09/16/2013  16:17:00     -312.484     -158.797       11.706      149.272      138.818       77.374    22282.166    19270.342     5986.703        8.526        2.377      350.518       81.750        0.054      348.902       28.935      855.726
09/16/2013  16:18:00     -259.355     -100.320        2.327      152.981      134.097       77.933    23403.207    17981.953     6073.570        6.239        2.373      278.081       87.949        0.100      348.939       29.000      855.736
09/16/2013  16:19:00     -346.814     -242.195       -9.386      231.242      184.784       95.771    53472.980    34145.008     9172.058       13.789        4.840      423.011      108.220        0.065      348.911       28.949      855.733
09/16/2013  16:20:00     -420.732     -322.909      -12.051      250.117      255.103      108.599    62558.286    65077.357    11793.728       21.040        6.971      530.364      131.306        0.061      348.766       28.698      855.733
09/16/2013  16:21:00     -345.664     -176.091      -13.053      176.937      115.590       70.854    31306.528    13361.039     5020.259       10.017        2.484      387.933       62.868        0.026      348.797       28.752      855.721
09/16/2013  16:22:00     -332.321     -185.215        9.816      212.773      166.358       92.271    45272.459    27675.032     8513.875       11.313        4.073      380.449       94.747        0.062      348.875       28.887      855.747
09/16/2013  16:23:00     -245.778     -198.696       18.347      174.106      156.142       80.868    30312.874    24380.361     6539.687        8.072        3.062      316.049       88.406        0.078      348.789       28.738      855.765
09/16/2013  16:24:00     -404.138     -244.052        1.581      165.363      119.839       77.330    27344.777    14361.482     5979.855       13.528        2.384      472.111       76.134        0.026      348.601       28.412      855.732
09/16/2013  16:25:00     -416.248     -284.522       -7.907      234.227      155.027       92.449    54862.378    24033.372     8546.798       17.084        4.372      504.198      116.103        0.053      348.641       28.480      855.694
09/16/2013  16:26:00     -481.814     -339.636      -18.136      249.051      200.246      129.132    62026.435    40098.412    16675.196       23.329        5.940      589.489      130.059        0.049      348.669       28.531      855.681
09/16/2013  16:27:00     -424.729     -277.936      -29.834      241.123      167.156       95.255    58140.257    27941.279     9073.523       17.682        4.758      507.585       80.758        0.025      348.724       28.627      855.654
09/16/2013  16:28:00     -356.240     -155.800        4.248      251.595      195.265       99.837    63300.130    38128.539     9967.443       13.128        5.570      388.820      133.991        0.119      348.767       28.701      855.660
09/16/2013  16:29:00     -510.958     -179.620       -4.326      261.389      198.089      106.307    68324.441    39239.389    11301.130       20.609        5.943      541.609      124.137        0.053      348.682       28.554      855.639
09/16/2013  16:30:00     -518.946     -265.607      -13.105      207.027      218.883      105.514    42860.044    47909.927    11133.224       22.094        5.095      582.968      101.042        0.030      348.709       28.598      855.663
09/16/2013  16:31:00     -323.439     -223.065        6.993      196.685      214.032       94.543    38684.996    45809.485     8938.316       12.391        4.672      392.900      115.533        0.086      348.762       28.690      855.711
09/16/2013  16:32:00     -275.253     -182.808        4.338      157.136      137.651       79.532    24691.823    18947.812     6325.284        7.957        2.498      330.428       77.804        0.055      348.715       28.611      855.703
09/16/2013  16:33:00     -370.808     -185.606      -17.760      169.694      119.796       68.496    28796.061    14351.080     4691.695       11.004        2.392      414.666       61.031        0.022      348.703       28.590      855.729
09/16/2013  16:34:00     -144.234      -72.281       24.235      133.477      141.797       70.143    17816.125    20106.276     4920.088        3.472        2.142      161.332       77.897        0.233      348.877       28.892      855.760
09/16/2013  16:35:00     -217.011     -171.121        3.380      148.854      112.306       76.665    22157.479    12612.711     5877.536        5.851        2.032      276.362       78.587        0.081      348.900       28.931      855.778
09/16/2013  16:36:00     -445.992     -188.604      -26.706      145.953      156.408       68.868    21302.152    24463.393     4742.768       14.284        2.525      484.232       47.529        0.010      348.631       28.464      855.741
09/16/2013  16:37:00     -271.378      -96.861       10.585      146.635      122.500       63.647    21501.685    15006.260     4050.947        6.184        2.028      288.146       55.203        0.037      348.798       28.754      855.706
09/16/2013  16:38:00     -269.439     -114.568       -5.353      151.000      107.317       66.371    22800.852    11516.993     4405.156        6.223        1.936      292.786       79.401        0.074      348.866       28.873      855.692
09/16/2013  16:39:00     -309.957     -210.846       -1.317      203.396      132.610       79.184    41370.096    17585.513     6270.184       10.287        3.261      374.872       98.642        0.069      348.767       28.700      855.723
09/16/2013  16:40:00     -304.136     -193.998       -8.002      201.464      200.226       89.065    40587.730    40090.501     7932.509       10.939        4.431      360.741       95.106        0.070      348.563       28.347      855.691
09/16/2013  16:41:00     -147.550      -97.997       22.415      136.347      111.572       72.210    18590.546    12448.310     5214.257        3.406        1.813      177.128       74.662        0.178      348.770       28.707      855.645
09/16/2013  16:42:00     -520.344     -297.658        7.892      235.819      172.159      114.307    55610.619    29638.770    13066.122       22.885        4.916      599.465      120.339        0.040      348.620       28.446      855.620
09/16/2013  16:43:00     -481.902     -213.996      -11.949      196.665      173.996       81.731    38677.024    30274.587     6680.006       17.688        3.782      527.280       90.697        0.030      348.666       28.525      855.598
09/16/2013  16:44:00     -490.049     -246.030      -24.295      184.422      167.084       89.158    34011.342    27916.923     7949.065       18.556        3.494      548.342       89.245        0.026      348.604       28.416      855.602
09/16/2013  16:45:00     -393.269     -244.926      -11.304      175.779      166.881       85.990    30898.419    27849.127     7394.242       14.045        3.307      463.303       80.453        0.030      348.640       28.481      855.577
09/16/2013  16:46:00     -449.864     -269.433      -17.653      174.914      152.944       81.830    30594.738    23391.770     6696.153       16.797        3.034      524.378       83.836        0.026      348.676       28.543      855.573
09/16/2013  16:47:00     -422.720     -266.130        7.330      228.068      169.193      102.357    52015.211    28626.352    10477.000       17.033        4.556      499.517      103.274        0.043      348.617       28.440      855.539
09/16/2013  16:48:00     -268.158     -145.655        7.029      217.194      160.759       85.851    47173.308    25843.590     7370.349        8.676        4.019      305.163       93.807        0.094      348.738       28.651      855.524
09/16/2013  16:49:00     -288.793     -114.974      -11.544      104.819      128.332       63.556    10987.041    16469.101     4039.347        6.412        1.575      310.838       58.894        0.036      348.808       28.772      855.559
09/16/2013  16:50:00     -326.294     -228.553      -12.977      237.452      187.722       89.477    56383.280    35239.626     8006.167       12.923        4.981      398.377      110.001        0.076      348.726       28.629      855.513
09/16/2013  16:51:00     -515.512     -305.728        6.216      319.343      243.494      149.890   101979.701    59289.351    22466.882       27.146        9.187      599.352      177.109        0.087      348.631       28.463      855.494
09/16/2013  16:52:00     -406.642     -272.416       -8.613      226.212      221.400      122.052    51171.957    49018.064    14896.666       17.734        5.754      489.457      125.812        0.066      348.515       28.265      855.422
09/16/2013  16:53:00     -690.910     -454.948      -18.426      323.904      247.242      147.579   104913.884    61128.493    21779.471       43.621        9.391      827.245      166.337        0.040      348.475       28.195      855.352
09/16/2013  16:54:00     -535.549     -300.377      -16.259      340.213      197.252      124.801   115744.623    38908.322    15575.344       27.373        8.511      614.035      165.707        0.073      348.517       28.268      855.378
09/16/2013  16:55:00     -412.305     -176.059       -1.723      255.733      211.323      105.908    65399.489    44657.524    11216.592       16.111        6.064      448.322      118.603        0.070      348.574       28.367      855.392
09/16/2013  16:56:00     -285.316     -293.867        5.826      259.401      287.434      106.521    67288.887    82618.261    11346.671       16.449        8.063      409.589      127.012        0.096      348.605       28.419      855.417
09/16/2013  16:57:00     -417.773     -256.787      -10.197      230.512      197.471      102.781    53135.950    38994.825    10563.915       17.162        5.135      490.381      110.536        0.051      348.584       28.382      855.463
09/16/2013  16:58:00     -479.350     -259.069      -21.535      225.100      168.093      101.280    50669.912    28255.171    10257.639       19.325        4.459      544.880       98.752        0.033      348.518       28.268      855.465
09/16/2013  16:59:00     -350.707     -153.493        6.923      235.584      186.831       90.715    55499.912    34905.768     8229.257       12.260        4.932      382.826      103.192        0.073      348.536       28.301      855.506
09/16/2013  17:00:00     -469.954     -255.446      -35.675      225.501      160.507       88.928    50850.484    25762.463     7908.206       18.593        4.226      534.892       74.342        0.019      348.540       28.307      855.501
09/16/2013  17:01:00     -349.890     -277.108      -14.005      216.983      162.160       79.276    47081.594    26295.957     6284.727       13.952        3.983      446.332       86.243        0.037      348.511       28.256      855.455
09/16/2013  17:02:00     -407.508     -235.027      -15.696      173.604      181.609       83.904    30138.199    32981.798     7039.887       14.584        3.508      470.426       85.425        0.033      348.595       28.403      855.431
09/16/2013  17:03:00     -231.073     -216.126       -7.694      168.713      140.304       85.976    28463.930    19685.135     7391.926        7.784        2.777      316.393       93.679        0.088      348.672       28.535      855.423
09/16/2013  17:04:00     -330.926     -166.641       -5.083      182.478      138.732       70.964    33298.106    19246.649     5035.956        9.743        2.879      370.515       65.652        0.031      348.718       28.616      855.463
09/16/2013  17:05:00     -326.488     -207.773       18.552      218.621      200.112       90.652    47795.293    40044.783     8217.773       12.306        4.803      386.994      110.722        0.082      348.625       28.453      855.477
09/16/2013  17:06:00     -342.648     -181.190       -9.112      185.497      194.525       91.449    34409.113    37840.127     8362.922       11.545        4.031      387.605       95.021        0.060      348.574       28.367      855.465
09/16/2013  17:07:00     -527.156     -362.016      -21.603      272.369      182.282      110.934    74184.760    33226.571    12306.256       26.454        5.986      639.491      132.458        0.043      348.479       28.201      855.440
09/16/2013  17:08:00     -323.444     -267.898        3.822      219.404      185.809       84.882    48138.034    34525.077     7205.031       13.312        4.493      419.983       89.736        0.046      348.446       28.143      855.449
09/16/2013  17:09:00     -402.127     -164.703        3.150      238.248      173.389       85.724    56762.281    30063.773     7348.522       14.149        4.709      434.550      104.676        0.058      348.435       28.126      855.414
09/16/2013  17:10:00     -357.295     -220.577       -4.220      256.250      184.727       92.400    65664.280    34124.229     8537.685       14.231        5.416      419.897      110.696        0.069      348.433       28.122      855.385
09/16/2013  17:11:00     -468.221     -344.763      -13.492      229.737      252.773      115.803    52779.226    63894.349    13410.341       23.415        6.504      581.458      113.828        0.038      348.428       28.113      855.366
09/16/2013  17:12:00     -454.810     -261.754      -10.296      231.076      192.058       98.501    53396.031    36886.156     9702.373       18.771        4.999      524.754      115.025        0.048      348.495       28.229      855.388
09/16/2013  17:13:00     -297.915     -242.542      -16.471      129.206      118.017       73.400    16694.257    13927.950     5387.501        9.192        1.800      384.162       62.413        0.026      348.529       28.288      855.383
09/16/2013  17:14:00     -411.019     -229.267       -4.126      209.640      176.001      106.687    43948.970    30976.383    11382.117       15.389        4.315      470.638      114.468        0.059      348.493       28.225      855.395
09/16/2013  17:15:00     -506.797     -368.426      -20.774      275.535      192.770      117.506    75919.553    37160.140    13807.545       25.992        6.344      626.563      135.688        0.047      348.313       27.913      855.354
09/16/2013  17:16:00     -503.714     -223.603        4.429      214.035      213.121      110.879    45811.092    45420.420    12294.260       20.361        5.176      551.114      101.059        0.034      348.307       27.903      855.339
09/16/2013  17:17:00     -452.744     -160.878      -28.460      201.481      151.421       86.473    40594.507    22928.230     7477.529       15.132        3.550      480.477       80.977        0.028      348.401       28.067      855.351
09/16/2013  17:18:00     -372.511     -152.296       -7.302      170.903      196.281       81.546    29207.843    38526.409     6649.762       11.818        3.719      402.441       85.692        0.045      348.466       28.179      855.341
09/16/2013  17:19:00     -278.647     -180.490        7.530      207.428      159.376       87.278    43026.286    25400.724     7617.414        9.315        3.802      331.995      110.624        0.111      348.407       28.076      855.353
09/16/2013  17:20:00     -343.496     -192.795      -11.482      166.762      147.080       83.500    27809.483    21632.399     6972.326       10.584        2.821      393.903       87.183        0.049      348.379       28.029      855.337
09/16/2013  17:21:00     -361.857      -56.543      -18.381      174.223      198.456       78.250    30353.521    39384.898     6123.036       10.515        3.793      366.248       77.348        0.045      348.431       28.119      855.363
09/16/2013  17:22:00     -242.929     -208.700       -4.974      161.792      133.840       66.976    26176.563    17913.150     4485.760        7.558        2.429      320.266       83.277        0.068      348.497       28.234      855.361
09/16/2013  17:23:00     -358.270     -252.883       14.530      292.240      196.957      118.769    85404.378    38791.939    14106.006       16.538        6.915      438.529      141.020        0.103      348.378       28.027      855.371
09/16/2013  17:24:00     -321.693     -140.975       -0.056      171.585      161.926       81.895    29441.369    26220.060     6706.850        9.285        3.118      351.227       89.748        0.065      348.379       28.029      855.385
09/16/2013  17:25:00     -273.381     -212.730       -8.928      154.384      115.285       77.885    23834.340    13290.696     6066.142        8.162        2.160      346.397       81.708        0.056      348.359       27.994      855.426
09/16/2013  17:26:00     -342.632     -253.626       11.108      273.965      158.517      109.816    75057.005    25127.778    12059.654       14.702        5.612      426.289      117.333        0.076      348.308       27.906      855.408
09/16/2013  17:27:00     -570.508     -190.867      -28.916      207.066      212.987      108.505    42876.221    45363.565    11773.415       23.136        5.001      601.589      112.517        0.035      348.230       27.770      855.348
09/16/2013  17:28:00     -242.807     -122.340       12.119      170.614      146.255       76.975    29108.998    21390.478     5925.156        6.524        2.821      271.887       79.326        0.085      348.383       28.036      855.404
09/16/2013  17:29:00     -233.158     -298.193       -2.479      150.491      159.126       85.785    22647.596    25321.164     7359.084        9.930        2.766      378.526       73.481        0.038      348.339       27.958      855.457
09/16/2013  17:30:00     -368.293     -307.269      -13.625      215.188      191.246       97.943    46305.847    36575.014     9592.817       16.134        4.624      479.639      110.375        0.053      348.338       27.957      855.388
09/16/2013  17:31:00     -346.751     -249.511       -7.190      166.712      147.883       86.263    27792.946    21869.444     7441.348       11.981        2.855      427.190       91.696        0.046      348.241       27.790      855.408
09/16/2013  17:32:00     -273.419     -243.374       16.932      230.034      203.747      111.354    52915.830    41513.017    12399.752       12.053        5.341      366.045      128.602        0.123      348.229       27.769      855.355
09/16/2013  17:33:00     -450.894     -114.805      -22.843      276.995      173.496       98.803    76726.260    30100.997     9762.002       16.677        5.829      465.280      111.230        0.057      348.278       27.854      855.365
09/16/2013  17:34:00     -281.567     -112.857        7.374      185.253      149.174       69.618    34318.695    22252.868     4846.724        7.673        3.071      303.343       76.277        0.063      348.334       27.951      855.405
09/16/2013  17:35:00     -306.902     -145.344        4.572      251.065      150.181       97.158    63033.842    22554.419     9439.727       10.516        4.751      339.578      117.405        0.120      348.158       27.648      855.424
09/16/2013  17:36:00     -343.674     -272.964        2.320      232.043      206.855      104.827    53843.942    42789.173    10988.678       15.010        5.381      438.886      115.766        0.070      348.099       27.545      855.432
09/16/2013  17:37:00     -362.649     -246.810        3.257      248.258      159.410       91.585    61631.820    25411.456     8387.894       14.392        4.772      438.668      106.827        0.059      348.102       27.550      855.406
09/16/2013  17:38:00     -434.186     -216.093       -3.822      206.381      157.968       92.558    42593.060    24953.910     8567.050       15.566        3.806      484.988       99.369        0.042      348.157       27.645      855.434
09/16/2013  17:39:00     -450.417      -28.072      -21.830      219.771      158.740       86.130    48299.201    25198.475     7418.376       14.251        4.046      451.291      102.296        0.051      348.142       27.619      855.461
09/16/2013  17:40:00     -423.546      -95.607       -6.756      151.967      131.959       74.055    23093.909    17413.138     5484.111       11.728        2.300      434.202       78.242        0.032      348.175       27.676      855.514
09/16/2013  17:41:00     -305.112     -121.050        3.179      162.802      123.656       81.779    26504.495    15290.852     6687.734        7.811        2.424      328.248       71.980        0.048      348.188       27.696      855.526
09/16/2013  17:42:00     -224.515     -229.781        4.278      185.104      140.882      102.572    34263.475    19847.740    10520.986        8.392        3.232      321.257      110.427        0.118      348.134       27.606      855.537
09/16/2013  17:43:00     -321.150     -100.616       -3.855      209.325      189.051       69.891    43816.998    35740.249     4884.815        9.884        4.222      336.543       77.984        0.054      348.145       27.626      855.551
09/16/2013  17:44:00     -331.704      -90.952       -9.744      140.616      152.266       68.781    19772.852    23184.873     4730.759        8.303        2.384      343.948       59.583        0.030      348.118       27.577      855.567
09/16/2013  17:45:00     -265.696      -51.837       10.824      190.359      119.429       87.042    36236.717    14263.237     7576.263        6.573        2.904      270.706      106.008        0.153      348.166       27.660      855.557
09/16/2013  17:46:00     -314.732      -90.874       -5.784      183.448      145.229       71.119    33653.009    21091.493     5057.899        8.356        2.990      327.589       79.036        0.058      348.110       27.564      855.541
09/16/2013  17:47:00     -296.436      -57.381       -8.269      153.294      123.229       65.684    23499.091    15185.406     4314.346        6.711        2.150      301.939       74.812        0.061      348.064       27.485      855.526
09/16/2013  17:48:00     -311.292      -44.620        1.210      154.224       99.357       72.079    23784.943     9871.719     5195.432        6.887        1.943      314.474       76.691        0.059      348.066       27.488      855.517
09/16/2013  17:49:00     -363.930     -104.386        1.322      187.119      170.784       76.215    35013.513    29167.105     5808.679       10.665        3.499      378.604       70.256        0.034      348.121       27.585      855.535
09/16/2013  17:50:00     -526.714     -159.323      -12.796      229.454      215.096       84.725    52649.359    46266.131     7178.350       20.451        5.305      550.284       98.101        0.032      347.965       27.313      855.548
09/16/2013  17:51:00     -396.616      -28.274        5.648      216.006      127.990       90.392    46658.435    16381.409     8170.687       11.466        3.561      397.623      102.237        0.066      347.982       27.343      855.538
09/16/2013  17:52:00     -375.710      -77.095      -24.193      189.714      117.490       71.304    35991.571    13803.824     5084.198       10.127        2.744      383.538       78.229        0.042      347.998       27.371      855.545
09/16/2013  17:53:00     -354.425      -14.503      -19.590      176.318      147.680       73.159    31088.180    21809.241     5352.275        9.222        2.912      354.722       89.897        0.064      347.976       27.331      855.558
09/16/2013  17:54:00     -362.828      -32.903      -14.710      170.337      111.450       76.255    29014.637    12421.125     5814.790        9.009        2.363      364.317       73.076        0.040      348.052       27.464      855.561
09/16/2013  17:55:00     -402.201      -65.947       -5.803      150.060      151.878       79.396    22517.882    23066.788     6303.646       10.901        2.594      407.572       78.627        0.037      347.973       27.327      855.562
09/16/2013  17:56:00     -416.136     -102.207       -9.915      181.315      106.200       81.860    32875.286    11278.382     6701.002       11.727        2.543      428.503       91.186        0.045      347.879       27.164      855.572
09/16/2013  17:57:00     -262.164     -106.393        3.913      106.166      144.042       53.604    11271.210    20748.075     2873.439        5.747        1.745      282.930       61.427        0.047      347.852       27.116      855.565
09/16/2013  17:58:00     -156.742     -160.825       -0.707      119.431       96.120       70.725    14263.675     9239.021     5002.042        3.946        1.425      224.572       70.709        0.099      347.895       27.192      855.546
09/16/2013  17:59:00     -278.726     -125.588       -4.904      170.229       86.675       62.010    28977.961     7512.567     3845.245        6.690        2.017      305.713       76.860        0.063      347.866       27.143      855.550
09/16/2013  18:00:00     -108.935      -20.140       17.892      120.076       83.491       41.161    14418.267     6970.677     1694.255        1.783        1.154      110.781       37.480        0.114      347.953       27.293      855.561
09/16/2013  18:01:00     -163.447     -137.481        4.217       99.932       74.169       49.412     9986.487     5501.077     2441.507        3.178        0.896      213.579       43.557        0.042      347.930       27.252      855.572
09/16/2013  18:02:00     -245.735     -130.794       -2.684      132.793      105.953       48.859    17633.971    11226.045     2387.163        5.437        1.562      278.375       51.134        0.034      347.906       27.210      855.599
09/16/2013  18:03:00     -246.998     -165.414       -7.168      159.251      111.208       68.116    25360.885    12367.243     4639.829        6.539        2.118      297.271       69.094        0.054      347.842       27.099      855.623
09/16/2013  18:04:00     -136.937      -59.975        0.991      117.804       79.172       50.626    13877.748     6268.154     2562.961        2.252        1.135      149.495       49.360        0.109      347.879       27.167      855.637
09/16/2013  18:05:00     -273.815      -29.386      -14.622      190.936      123.153       73.234    36456.470    15166.691     5363.228        6.651        2.849      275.387       84.297        0.094      347.828       27.077      855.665
09/16/2013  18:06:00     -239.251      -99.584       -6.851      123.152      100.133       54.817    15166.300    10026.548     3004.954        4.770        1.410      259.148       57.019        0.048      347.778       26.990      855.675
09/16/2013  18:07:00     -180.909      -95.165       -1.391      111.335       70.490       48.160    12395.385     4968.808     2319.350        3.073        0.984      204.412       48.436        0.056      347.750       26.945      855.699
09/16/2013  18:08:00     -145.410       -3.187       10.594      118.576       65.696       57.262    14060.335     4315.924     3278.957        2.146        1.083      145.445       51.653        0.126      347.739       26.925      855.718
09/16/2013  18:09:00     -157.835       11.734      -12.369       62.088       62.439       37.812     3854.867     3898.642     1429.772        1.719        0.459      158.270       30.427        0.037      347.739       26.927      855.737
09/16/2013  18:10:00     -256.564      -30.890       -2.012      148.398      104.733       51.091    22021.962    10969.045     2610.261        5.119        1.780      258.417       56.148        0.047      347.766       26.969      855.729
09/16/2013  18:11:00     -371.361      -92.770      -32.338      124.932      101.125       57.304    15608.066    10226.178     3283.722        8.833        1.456      382.773       46.747        0.015      347.599       26.682      855.722
09/16/2013  18:12:00     -220.852      -43.694      -13.048      119.366       84.857       49.512    14248.327     7200.746     2451.418        3.737        1.195      225.133       46.555        0.043      347.643       26.759      855.721
09/16/2013  18:13:00     -316.589     -121.867      -10.278      127.621       80.829       57.810    16287.081     6533.351     3342.013        7.067        1.308      339.235       58.980        0.030      347.605       26.693      855.728
09/16/2013  18:14:00     -246.522      -72.284        1.817      122.318       68.648       46.720    14961.578     4712.516     2182.772        4.392        1.093      256.901       48.705        0.036      347.605       26.693      855.767
09/16/2013  18:15:00     -190.490      -32.036        3.729      111.307      110.997       69.908    12389.216    12320.426     4887.077        3.346        1.480      193.165       62.624        0.105      347.691       26.840      855.762
09/16/2013  18:16:00     -359.968      -78.556       -6.715      217.363      173.384       86.074    47246.855    30061.871     7408.707       11.024        4.236      368.440      106.589        0.084      347.567       26.626      855.753
09/16/2013  18:17:00     -332.459      -86.337      -13.589      147.493      149.612       70.953    21754.094    22383.885     5034.314        8.366        2.459      343.487       62.775        0.033      347.545       26.587      855.789
09/16/2013  18:18:00     -268.966      -58.497      -15.202      101.306       94.009       51.033    10262.829     8837.693     2604.411        4.885        1.085      275.254       40.523        0.022      347.588       26.661      855.793
09/16/2013  18:19:00     -285.236      -99.876       -8.516      136.361       79.617       51.885    18594.451     6338.909     2692.095        5.951        1.381      302.217       62.127        0.042      347.547       26.591      855.812
09/16/2013  18:20:00     -367.967      -46.644       -8.095      135.979      122.465       62.871    18490.179    14997.649     3952.706        8.753        1.872      370.912       69.202        0.035      347.513       26.532      855.818
09/16/2013  18:21:00     -315.289       -8.546      -11.802      127.022      108.971       58.466    16134.599    11874.571     3418.223        6.552        1.571      315.405       60.431        0.037      347.495       26.501      855.809
09/16/2013  18:22:00     -332.991       66.473      -33.176      131.791       75.118       51.925    17368.773     5642.770     2696.233        7.105        1.285      339.561       57.441        0.029      347.493       26.497      855.809
09/16/2013  18:23:00     -336.815     -142.266      -23.714      153.146      112.556       62.709    23453.634    12668.944     3932.416        8.714        2.003      365.628       44.661        0.015      347.478       26.472      855.782
09/16/2013  18:24:00     -367.961     -152.489      -19.267      200.140      138.365       67.389    40056.015    19144.784     4541.244       11.137        3.187      398.306       81.002        0.041      347.441       26.409      855.779
09/16/2013  18:25:00     -353.506       -7.189      -30.017      142.334       90.510       59.640    20258.954     8192.093     3556.975        7.896        1.600      353.579       62.807        0.032      347.448       26.421      855.784
09/16/2013  18:26:00     -405.334      -52.684      -46.678      142.136      125.031       69.351    20202.519    15632.679     4809.599       10.494        2.032      408.744       67.842        0.028      347.406       26.348      855.758
09/16/2013  18:27:00     -425.661      -66.385      -18.292      153.123      122.688       78.853    23446.712    15052.313     6217.798       11.531        2.236      430.806       84.442        0.038      347.376       26.296      855.782
09/16/2013  18:28:00     -333.671     -124.266       -0.703      180.277      106.508       61.772    32499.840    11343.922     3815.818        8.721        2.383      356.060       60.543        0.029      347.348       26.250      855.784
09/16/2013  18:29:00     -262.391     -116.661       -1.117      157.134       81.638       59.103    24691.209     6664.795     3493.208        5.865        1.742      287.156       63.860        0.049      347.303       26.172      855.792
09/16/2013  18:30:00     -253.377      -97.595       -5.236      104.513       92.609       52.754    10922.941     8576.397     2783.002        4.801        1.114      271.523       54.790        0.041      347.313       26.188      855.802
09/16/2013  18:31:00     -327.928     -100.667        0.077      126.996       99.400       53.700    16128.066     9880.429     2883.637        7.328        1.445      343.032       50.591        0.022      347.269       26.112      855.806
09/16/2013  18:32:00     -318.001       -5.632      -19.186      100.434       80.297       51.127    10087.025     6447.602     2613.977        6.033        0.957      318.051       51.580        0.026      347.285       26.138      855.829
09/16/2013  18:33:00     -344.674      -55.017      -29.220      137.810      137.856       67.817    18991.725    19004.251     4599.186        8.263        2.130      349.037       64.033        0.034      347.254       26.087      855.830
09/16/2013  18:34:00     -302.947      -34.297      -22.351      145.247       97.228       60.809    21096.767     9453.225     3697.723        6.384        1.712      304.882       66.534        0.048      347.258       26.095      855.829
09/16/2013  18:35:00     -459.610      -48.896      -37.697      157.854      128.137       80.045    24917.761    16419.000     6407.225       13.139        2.387      462.203       81.776        0.031      347.177       25.954      855.854
09/16/2013  18:36:00     -363.143      -24.848      -15.065      172.245      163.903       80.904    29668.320    26864.039     6545.485        9.788        3.154      363.992       85.706        0.055      347.177       25.953      855.823
09/16/2013  18:37:00     -456.271     -104.913      -29.511      130.648      132.910       66.850    17068.922    17665.024     4468.925       12.962        1.960      468.177       60.317        0.017      347.143       25.895      855.826
09/16/2013  18:38:00     -408.561     -167.741      -36.404      111.314      119.000       58.022    12390.818    14161.019     3366.502       11.315        1.496      441.655       37.782        0.007      347.165       25.932      855.818
09/16/2013  18:39:00     -404.631     -109.703      -25.392      170.771      127.737       82.933    29162.780    16316.676     6877.816       11.437        2.618      419.239       92.535        0.049      347.095       25.814      855.837
09/16/2013  18:40:00     -523.548     -178.223      -31.285      139.142      105.414       66.477    19360.414    11112.094     4419.236       17.086        1.745      553.051       61.868        0.013      347.071       25.771      855.833
09/16/2013  18:41:00     -376.824     -152.070      -15.071      156.117      141.079       69.812    24372.469    19903.302     4873.717       10.724        2.457      406.351       63.898        0.025      347.067       25.765      855.836
09/16/2013  18:42:00     -348.832     -111.341       -7.714      147.617      125.451       69.841    21790.879    15738.058     4877.746        8.826        2.120      366.170       68.008        0.034      347.039       25.716      855.848
09/16/2013  18:43:00     -403.874      -81.324      -12.187      133.758       97.990       63.827    17891.209     9602.033     4073.862       10.072        1.578      411.980       67.652        0.027      347.023       25.689      855.867
09/16/2013  18:44:00     -397.709       30.890       -7.312      173.266      147.409       67.890    30021.133    21729.384     4608.985       10.776        2.818      398.907       68.763        0.030      347.000       25.648      855.870
09/16/2013  18:45:00     -435.300     -140.485        3.208      185.483      125.179       87.959    34403.959    15669.660     7736.788       13.351        2.891      457.409       89.615        0.038      346.964       25.585      855.851
09/16/2013  18:46:00     -323.718      -93.946        3.299      155.887      128.544       82.444    24300.612    16523.649     6797.008        8.062        2.381      337.075       81.357        0.058      346.986       25.625      855.845
09/16/2013  18:47:00     -410.188      -94.994      -19.519      139.265      159.803       75.707    19394.845    25537.022     5731.499       11.415        2.533      421.045       73.075        0.030      346.965       25.586      855.849
09/16/2013  18:48:00     -403.391        2.443      -29.300      143.343      151.076       77.176    20547.287    22823.829     5956.125       10.645        2.466      403.399       72.551        0.032      346.965       25.589      855.855
09/16/2013  18:49:00     -371.101     -173.472       -3.936      187.063      137.461       84.300    34992.422    18895.642     7106.461       11.440        3.050      409.644       97.007        0.056      346.907       25.489      855.857
09/16/2013  18:50:00     -425.258      -93.399       -8.536      173.845      120.201       75.243    30222.004    14448.350     5661.446       11.998        2.517      435.393       82.458        0.036      346.888       25.456      855.862
09/16/2013  18:51:00     -261.618     -115.379      -16.260      146.908      119.512       70.478    21581.924    14283.033     4967.098        6.142        2.042      285.931       44.442        0.024      346.862       25.413      855.842
09/16/2013  18:52:00     -308.897     -106.290      -14.947      110.697       94.507       54.609    12253.875     8931.647     2982.179        6.555        1.208      326.673       54.882        0.028      346.814       25.327      855.846
09/16/2013  18:53:00     -410.213     -120.875      -24.990      142.450      153.099       70.629    20292.141    23439.353     4988.516       11.610        2.436      427.651       66.998        0.025      346.788       25.284      855.852
09/16/2013  18:54:00     -541.133     -129.716      -40.793      171.942      123.464       77.256    29564.062    15243.367     5968.417       18.104        2.539      556.463       76.958        0.019      346.811       25.322      855.842
09/16/2013  18:55:00     -293.847     -101.211       -3.030      194.253      183.083       87.392    37734.269    33519.499     7637.432        8.773        3.945      310.789      103.038        0.110      346.760       25.235      855.844
09/16/2013  18:56:00     -406.367      -65.583      -34.411      221.955      178.544       81.482    49263.947    31878.055     6639.271       12.918        4.389      411.625       82.323        0.040      346.775       25.261      855.842
09/16/2013  18:57:00     -392.150      -14.677      -28.517      209.569      155.378       94.624    43919.039    24142.370     8953.743       11.590        3.851      392.424      113.033        0.083      346.775       25.262      855.804
09/16/2013  18:58:00     -478.364      -34.619      -27.178      213.726      180.322       88.237    45678.590    32515.891     7785.821       15.836        4.299      479.615       94.096        0.038      346.765       25.245      855.790
09/16/2013  18:59:00     -384.790      -29.572      -19.836      159.311      155.252       72.778    25379.922    24103.072     5296.643       10.204        2.739      385.925       80.427        0.043      346.714       25.156      855.765
09/16/2013  19:00:00     -439.446     -129.504       -8.235      131.671      111.311       64.130    17337.130    12390.157     4112.678       12.189        1.692      458.131       57.479        0.016      346.701       25.133      855.749
09/16/2013  19:01:00     -280.903     -115.903        8.007      151.256      133.455       64.957    22878.322    17810.145     4219.444        6.865        2.245      303.875       74.256        0.060      346.666       25.075      855.757
09/16/2013  19:02:00     -258.099      -38.680       -2.254      149.631      122.478       61.674    22389.548    15000.884     3803.660        5.465        2.060      260.982       75.359        0.083      346.629       25.011      855.780
09/16/2013  19:03:00     -321.503      -37.752      -22.697      134.860       97.821       71.448    18187.140     9568.856     5104.871        6.908        1.643      323.712       77.318        0.057      346.631       25.014      855.793
09/16/2013  19:04:00     -232.156      -97.085       -7.040      157.465       98.074       61.940    24795.358     9618.451     3836.614        5.080        1.913      251.638       64.727        0.066      346.602       24.965      855.795
09/16/2013  19:05:00     -247.443      -47.623        5.650      157.216       82.338       64.257    24717.008     6779.530     4128.997        4.957        1.781      251.984       79.787        0.100      346.570       24.911      855.821
09/16/2013  19:06:00     -341.105     -101.216       17.145      212.502      139.818       76.728    45157.094    19549.192     5887.159        9.873        3.530      355.805       66.131        0.035      346.546       24.868      855.796
09/16/2013  19:07:00     -357.404      -85.453      -24.487      150.495      119.865       81.981    22648.831    14367.731     6720.829        8.968        2.187      367.478       89.699        0.060      346.506       24.799      855.793
09/16/2013  19:08:00     -443.975     -103.935      -35.365      159.685      144.730       82.543    25499.198    20946.883     6813.329       13.120        2.663      455.978       67.344        0.022      346.500       24.788      855.782
09/16/2013  19:09:00     -390.143      -82.693      -21.024      235.126      159.991       87.094    55284.137    25597.049     7585.298       12.396        4.423      398.810      107.478        0.073      346.446       24.696      855.756
09/16/2013  19:10:00     -540.334      -47.497      -39.452      253.681      159.483       89.181    64354.157    25434.943     7953.337       19.674        4.887      542.417       96.641        0.032      346.434       24.673      855.733
09/16/2013  19:11:00     -310.934      -40.661      -21.431      186.373      131.597       76.902    34734.982    17317.746     5913.975        7.837        2.898      313.582       89.181        0.081      346.398       24.614      855.762
09/16/2013  19:12:00     -361.258      -83.013      -28.872      163.333      134.324       63.641    26677.611    18043.044     4050.215        9.349        2.439      370.673       77.590        0.044      346.384       24.590      855.761
09/16/2013  19:13:00     -381.048      -29.888      -18.343      122.241      138.210       72.339    14942.957    19101.912     5232.892        9.284        1.964      382.218       66.006        0.030      346.371       24.566      855.759
09/16/2013  19:14:00     -313.411      -35.940       -8.660      141.690      100.498       72.346    20075.985    10099.908     5233.964        6.749        1.770      315.465       77.027        0.060      346.299       24.443      855.751
09/16/2013  19:15:00     -578.530      -94.649      -36.568      237.289      170.667       83.437    56306.055    29127.352     6961.757       21.867        4.620      586.221       89.466        0.023      346.332       24.498      855.722
09/16/2013  19:16:00     -285.805      -93.986      -15.824      163.425      147.845       77.420    26707.643    21858.261     5993.818        7.265        2.728      300.861       82.732        0.076      346.316       24.472      855.726
09/16/2013  19:17:00     -410.586     -103.108      -22.192      207.278      151.861       84.741    42964.228    23061.882     7181.040       12.644        3.660      423.335       99.740        0.056      346.302       24.449      855.714
09/16/2013  19:18:00     -326.331      -50.595      -15.134      160.571      152.348       81.617    25783.101    23210.037     6661.374        8.246        2.783      330.230       80.348        0.059      346.290       24.428      855.714
09/16/2013  19:19:00     -268.390      -54.305       -6.743      148.164      108.149       66.628    21952.578    11696.245     4439.350        5.655        1.904      273.829       68.947        0.063      346.234       24.331      855.718
09/16/2013  19:20:00     -321.756     -104.416       -2.145      160.686      155.376       68.291    25819.844    24141.687     4663.688        8.452        2.731      338.275       75.546        0.050      346.230       24.325      855.720
09/16/2013  19:21:00     -303.093       -8.336       -8.446      202.439      143.209       72.138    40981.542    20508.679     5203.917        7.934        3.335      303.208       66.104        0.048      346.233       24.330      855.701
09/16/2013  19:22:00     -297.366     -173.278        3.937      187.865      151.145       78.954    35293.347    22844.734     6233.788        9.141        3.219      344.168       76.851        0.050      346.228       24.322      855.676
09/16/2013  19:23:00     -474.308     -121.651      -28.225      216.605      170.908       99.901    46917.883    29209.450     9980.137       16.332        4.305      489.660      108.942        0.050      346.217       24.302      855.665
09/16/2013  19:24:00     -313.631     -143.024       -0.360      186.630      109.001       68.393    34830.651    11881.233     4677.662        8.509        2.569      344.703       81.203        0.055      346.205       24.281      855.645
09/16/2013  19:25:00     -332.750      -67.050        2.644      213.717      164.208       98.687    45675.094    26964.378     9739.089        9.879        4.119      339.438       98.953        0.085      346.182       24.241      855.615
09/16/2013  19:26:00     -438.781      -72.458      -23.917      245.239      136.045       97.241    60142.028    18508.248     9455.777       14.321        4.405      444.724      125.750        0.080      346.170       24.222      855.590
09/16/2013  19:27:00     -391.662      -29.284       -1.292      198.886      153.106       92.439    39555.640    23441.558     8544.952       11.289        3.577      392.755       87.767        0.050      346.170       24.221      855.573
09/16/2013  19:28:00     -326.017     -136.934        2.110      208.852      181.611      103.513    43619.321    32982.575    10714.973       10.616        4.366      353.607      114.154        0.104      346.162       24.208      855.560
09/16/2013  19:29:00     -273.152      -71.600       10.869      173.070      114.919       81.383    29953.334    13206.379     6623.151        6.481        2.489      282.380       90.739        0.103      346.135       24.162      855.549
09/16/2013  19:30:00     -237.659      -87.739      -17.937      206.275      174.133       85.170    42549.353    30322.461     7253.905        7.230        4.006      253.338      116.104        0.210      346.129       24.152      855.526
09/16/2013  19:31:00     -345.734     -204.015        1.130      215.314      152.518       86.463    46359.921    23261.779     7475.891       11.911        3.855      401.440       87.716        0.048      346.103       24.106      855.512
09/16/2013  19:32:00     -438.705      -80.195      -20.940      213.002      190.243       89.015    45369.774    36192.301     7923.665       14.439        4.474      445.975      101.597        0.052      346.057       24.026      855.518
09/16/2013  19:33:00     -317.900     -113.000        1.963      192.514      202.833       89.018    37061.645    41141.089     7924.207        9.996        4.306      337.387      103.337        0.094      346.049       24.014      855.505
09/16/2013  19:34:00     -379.368     -171.787      -21.477      184.277      159.672       76.339    33958.172    25495.220     5827.628       11.957        3.264      416.450       69.697        0.028      346.069       24.047      855.493
09/16/2013  19:35:00     -493.984     -153.460      -25.454      229.123      164.649       91.266    52497.425    27109.310     8329.398       17.806        4.397      517.272       97.322        0.035      346.059       24.031      855.475
09/16/2013  19:36:00     -316.253     -206.810       -5.041      220.995      198.199      108.247    48838.807    39282.985    11717.493       12.131        4.992      377.870      133.187        0.124      346.029       23.978      855.487
09/16/2013  19:37:00     -298.951       34.704      -10.315      185.160      126.726       72.764    34284.381    16059.453     5294.618        7.315        2.782      300.958       71.690        0.057      345.954       23.851      855.513
09/16/2013  19:38:00     -328.371     -120.237        2.788      221.995      190.901       90.882    49281.850    36443.166     8259.615       10.812        4.699      349.692      102.028        0.085      345.962       23.865      855.514
09/16/2013  19:39:00     -319.243      -72.497      -24.007      194.949      193.137       84.411    38004.935    37301.902     7125.208        9.507        4.122      327.371       87.374        0.071      345.995       23.920      855.552
09/16/2013  19:40:00     -304.203      -86.334       -4.245      207.348      150.533       86.660    42993.269    22660.270     7509.883        8.657        3.658      316.217      107.318        0.115      345.970       23.879      855.568
09/16/2013  19:41:00     -378.561        7.765      -26.298      199.796      124.524       72.959    39918.523    15506.261     5323.079       10.239        3.037      378.641       82.081        0.047      345.953       23.850      855.584
09/16/2013  19:42:00     -223.597      -61.220        0.248      168.116      174.424       76.204    28262.893    30423.741     5806.994        5.911        3.225      231.826       82.612        0.127      345.929       23.807      855.562
09/16/2013  19:43:00     -315.523      -43.700      -21.604      202.440      105.508       76.405    40981.777    11132.041     5837.675        7.993        2.898      318.535       87.626        0.076      345.898       23.756      855.577
09/16/2013  19:44:00     -346.641      -79.160      -28.816      214.162      162.520       86.064    45865.319    26412.714     7407.004       10.345        3.984      355.565       95.592        0.072      345.906       23.768      855.605
09/16/2013  19:45:00     -118.825      -70.114       17.595      145.287       85.090       65.143    21108.427     7240.381     4243.649        2.596        1.630      137.968       72.336        0.275      345.875       23.717      855.642
09/16/2013  19:46:00     -324.800     -136.330      -12.446      189.998      162.299       86.154    36099.142    26340.926     7422.576        9.704        3.493      352.251       91.995        0.068      345.866       23.701      855.617
09/16/2013  19:47:00     -408.578     -125.141      -20.514      200.832      135.027       84.715    40333.691    18232.161     7176.696       12.437        3.287      427.312       91.695        0.046      345.847       23.668      855.627
09/16/2013  19:48:00     -252.947     -123.773      -10.863      199.421      199.675       92.783    39768.603    39870.111     8608.720        8.382        4.412      281.606       90.260        0.103      345.825       23.630      855.611
09/16/2013  19:49:00     -293.474        9.446      -32.441      141.100      158.008       70.208    19909.072    24966.437     4929.160        6.853        2.490      293.626       72.408        0.061      345.815       23.613      855.611
09/16/2013  19:50:00     -383.913     -146.540      -19.966      240.242      131.822       78.216    57716.335    17377.171     6117.778       12.522        4.061      410.930       76.363        0.035      345.833       23.644      855.619
09/16/2013  19:51:00     -379.829      -47.654      -19.773      189.132      171.317       78.932    35771.093    29349.396     6230.336       10.913        3.568      382.807       80.164        0.044      345.804       23.593      855.629
09/16/2013  19:52:00     -425.452     -131.077      -17.391      233.373      152.602       81.882    54462.914    23287.433     6704.593       14.146        4.223      445.186       96.595        0.047      345.767       23.530      855.643
09/16/2013  19:53:00     -256.464      -75.487      -10.231      169.630      149.487       80.630    28774.431    22346.264     6501.187        6.459        2.881      267.343       91.091        0.116      345.754       23.506      855.695
09/16/2013  19:54:00     -141.877      -92.678       -2.984      134.037      110.462       57.564    17966.043    12201.887     3313.642        3.110        1.674      169.465       58.815        0.120      345.730       23.466      855.725
09/16/2013  19:55:00     -175.570      -17.953        6.987      224.008      108.381       77.967    50179.656    11746.458     6078.801        4.959        3.400      176.486      107.891        0.374      345.680       23.380      855.735
09/16/2013  19:56:00     -368.180       -8.084      -12.550      142.254      128.317       80.192    20236.329    16465.358     6430.689        8.945        2.157      368.269       79.005        0.046      345.746       23.494      855.746
09/16/2013  19:57:00     -218.754     -134.162        9.324      157.635      144.137       73.056    24848.755    20775.540     5337.193        5.844        2.548      256.618       64.457        0.063      345.683       23.387      855.765
09/16/2013  19:58:00     -191.246      -63.101       -9.652      136.705       95.102       54.596    18688.267     9044.299     2980.683        3.568        1.536      201.387       64.380        0.102      345.667       23.358      855.786
09/16/2013  19:59:00     -197.987      -77.447        8.434      182.303       74.206       61.693    33234.343     5506.490     3806.053        4.390        2.127      212.596       85.298        0.161      345.669       23.361      855.795
09/16/2013  20:00:00     -444.684     -171.803      -21.899      211.311      182.257       85.370    44652.405    33217.497     7288.005       15.643        4.258      476.718       99.861        0.044      345.659       23.343      855.792
09/16/2013  20:01:00     -413.276      -21.369      -30.085      174.650      159.620       73.985    30502.519    25478.623     5473.822       11.679        3.073      413.828       77.214        0.035      345.657       23.339      855.745
09/16/2013  20:02:00     -434.549      -54.536      -38.664      193.168      106.339       73.935    37313.828    11307.976     5466.355       12.368        2.704      437.958       77.373        0.031      345.638       23.307      855.756
09/16/2013  20:03:00     -557.264     -144.526      -48.615      257.538      211.945      102.375    66325.637    44920.786    10480.634       22.774        6.086      575.700      129.726        0.051      345.623       23.281      855.751
09/16/2013  20:04:00     -448.868      -37.168      -40.181      179.102      119.862       72.193    32077.519    14366.830     5211.852       12.806        2.583      450.404       85.132        0.036      345.614       23.266      855.756
09/16/2013  20:05:00     -322.458     -132.304       -7.065      135.206      158.369       66.614    18280.637    25080.631     4437.369        8.466        2.390      348.544       58.268        0.028      345.584       23.214      855.724
09/16/2013  20:06:00     -413.089     -124.960      -13.652      142.898      155.714       65.195    20419.866    24246.990     4250.445       11.767        2.446      431.575       57.586        0.018      345.579       23.207      855.753
09/16/2013  20:07:00     -315.358      -28.724      -26.314      178.640      152.237       73.143    31912.082    23176.217     5349.880        8.069        3.022      316.663       85.432        0.073      345.559       23.172      855.742
09/16/2013  20:08:00     -282.386       -0.927       -8.167      135.091      122.997       76.762    18249.565    15128.307     5892.343        5.953        1.964      282.388       74.508        0.070      345.513       23.093      855.761
09/16/2013  20:09:00     -376.701      -59.796      -12.757      233.712      141.601       93.464    54621.142    20050.919     8735.486       11.451        4.170      381.417      116.835        0.094      345.517       23.099      855.770
09/16/2013  20:10:00     -438.863     -119.144      -30.553      175.424      148.155       71.446    30773.590    21949.766     5104.574       13.277        2.891      454.748       73.773        0.026      345.502       23.073      855.737
09/16/2013  20:11:00     -289.435      -36.059      -26.665      118.969      127.235       57.631    14153.685    16188.812     3321.299        5.972        1.683      291.673       53.027        0.033      345.491       23.054      855.776
09/16/2013  20:12:00     -526.867     -153.815      -25.839      213.540      202.017       86.263    45599.205    40810.855     7441.341       19.786        4.693      548.860       88.660        0.026      345.482       23.039      855.782
09/16/2013  20:13:00     -290.802     -122.482       17.692      240.118      177.998       97.529    57656.735    31683.222     9511.873        9.935        4.943      315.543      126.652        0.161      345.459       22.999      855.764
09/16/2013  20:14:00     -331.523      -56.792       -6.711      124.992      143.537       73.442    15623.096    20602.737     5393.780        7.739        2.081      336.353       68.616        0.042      345.430       22.949      855.803
09/16/2013  20:15:00     -193.360      -24.902        0.702      157.401      103.427       61.173    24775.219    10697.217     3742.182        3.860        1.961      194.956       64.887        0.111      345.420       22.935      855.797
09/16/2013  20:16:00     -396.694        4.305      -17.155      255.490      170.042       68.043    65275.122    28914.375     4629.821       12.823        4.941      396.717       98.403        0.062      345.420       22.934      855.756
09/16/2013  20:17:00     -579.362     -130.477      -36.394      222.871      158.751       86.669    49671.682    25201.882     7511.551       21.818        4.119      593.873       94.479        0.025      345.444       22.974      855.768
09/16/2013  20:18:00     -480.205      -59.860      -28.777      170.585      143.728       77.663    29099.223    20657.803     6031.582       14.539        2.789      483.922       77.918        0.026      345.437       22.963      855.810
09/16/2013  20:19:00     -206.063      -88.660        8.136      187.452      125.684       64.978    35138.182    15796.406     4222.112        5.276        2.758      224.327       95.010        0.179      345.411       22.920      855.836
09/16/2013  20:20:00     -257.580      -59.766       -2.923      190.213      130.515       75.489    36181.083    17034.224     5698.623        6.441        2.946      264.423       95.862        0.131      345.412       22.920      855.801
09/16/2013  20:21:00     -451.928      -90.797      -26.296      159.804      145.917       77.437    25537.394    21291.651     5996.565       13.299        2.641      460.958       79.421        0.030      345.402       22.904      855.801
09/16/2013  20:22:00     -509.351      -78.921      -31.324      190.431      189.830       81.610    36263.978    36035.308     6660.157       17.279        3.948      515.429       84.028        0.027      345.409       22.915      855.773
09/16/2013  20:23:00     -413.656      -85.803      -16.909      137.307      122.710       68.787    18853.076    15057.769     4731.681       10.869        1.932      422.461       56.508        0.018      345.364       22.836      855.801
09/16/2013  20:24:00     -465.187     -101.724      -15.764      234.409      225.159       83.004    54947.809    50696.573     6889.653       16.974        5.627      476.179       76.509        0.026      345.369       22.847      855.808
09/16/2013  20:25:00     -378.529     -172.882      -14.375      170.487      173.352       86.284    29065.980    30050.833     7445.005       11.996        3.328      416.140       80.742        0.038      345.371       22.851      855.859
09/16/2013  20:26:00     -474.878      -72.476      -33.014      135.859      158.127       76.415    18457.619    25004.147     5839.212       14.057        2.465      480.377       71.471        0.022      345.369       22.847      855.864
09/16/2013  20:27:00     -473.224      -11.251      -15.068      207.684      229.244       89.587    43132.614    52552.908     8025.762       16.398        5.186      473.358       77.336        0.027      345.363       22.837      855.802
09/16/2013  20:28:00     -653.513      -69.738      -18.556      276.738      216.931      112.745    76584.098    47059.175    12711.323       28.429        6.818      657.223      129.405        0.039      345.359       22.828      855.870
09/16/2013  20:29:00     -320.217      -68.169       -2.664      228.148      159.428       94.411    52051.636    25417.276     8913.446        9.677        4.319      327.393      111.793        0.117      345.321       22.763      855.927
09/16/2013  20:30:00     -512.307      -67.667      -27.285      260.109      200.300      101.377    67656.705    40119.984    10277.233       19.289        5.903      516.756      129.506        0.063      345.343       22.802      855.884
09/16/2013  20:31:00     -351.272      -84.401       -8.868      189.991      123.450       81.975    36096.665    15239.995     6719.886        9.431        2.903      361.269       82.304        0.052      345.310       22.746      855.921
09/16/2013  20:32:00     -423.139     -160.547      -19.970      223.963      139.364       75.798    50159.544    19422.392     5745.289       14.026        3.766      452.573      100.000        0.049      345.319       22.761      855.951
09/16/2013  20:33:00     -274.344     -104.553      -12.243      155.523      140.119       82.257    24187.495    19633.361     6766.200        6.846        2.529      293.591       81.624        0.077      345.311       22.747      855.976
09/16/2013  20:34:00     -486.102     -130.393      -16.264      237.425      171.512       81.226    56370.468    29416.409     6597.604       17.295        4.619      503.286       89.670        0.032      345.289       22.709      855.939
09/16/2013  20:35:00     -415.660     -121.363      -16.742      206.619      189.044       92.659    42691.566    35737.814     8585.756       13.738        4.351      433.016      101.790        0.055      345.292       22.716      856.004
09/16/2013  20:36:00     -225.318      -98.079       11.273      168.319      136.940       84.899    28331.320    18752.648     7207.826        5.739        2.715      245.739       87.261        0.126      345.278       22.690      856.022
09/16/2013  20:37:00     -110.680       14.962       15.326      152.838       78.298       55.020    23359.344     6130.645     3027.212        2.261        1.626      111.686       71.169        0.406      345.071       22.337      856.031
09/16/2013  20:38:00     -572.739      -25.377      -49.355      298.639      183.953       98.751    89185.090    33838.669     9751.824       23.192        6.639      573.301      110.417        0.037      345.219       22.589      856.015
09/16/2013  20:39:00     -547.232     -116.672      -36.555      186.930      173.972       85.706    34942.902    30266.227     7345.523       19.347        3.628      559.532       89.176        0.025      345.255       22.651      856.113
09/16/2013  20:40:00     -236.851     -233.837        2.735      143.283      166.592       89.994    20530.107    27752.872     8098.843        8.357        2.819      332.833       69.840        0.044      345.271       22.678      856.050
09/16/2013  20:41:00     -545.747     -107.991      -44.194      272.132      182.674       94.099    74056.043    33369.616     8854.630       21.384        5.814      556.329      119.916        0.046      345.233       22.613      856.088
09/16/2013  20:42:00     -346.936       -1.785      -22.987      117.862      128.142       61.404    13891.392    16420.371     3770.480        7.748        1.704      346.940       53.749        0.024      345.245       22.635      856.074
09/16/2013  20:43:00     -315.405      -54.624       -3.544      129.954      141.228       65.080    16888.045    19945.293     4235.388        7.176        2.053      320.100       56.079        0.031      345.208       22.570      856.095
09/16/2013  20:44:00     -526.796     -117.191      -26.555      272.342      155.737       88.200    74170.401    24253.880     7779.211       19.906        5.310      539.674      106.336        0.039      345.181       22.525      856.056
09/16/2013  20:45:00     -377.345      -22.133      -15.699      208.440      132.063       83.601    43447.184    17440.568     6989.104       10.549        3.394      377.993       91.977        0.059      345.178       22.519      856.041
09/16/2013  20:46:00     -375.164     -122.089       -4.898      176.378      172.215       86.217    31109.123    29658.011     7433.442       11.193        3.410      394.529       92.360        0.055      345.182       22.526      856.084
09/16/2013  20:47:00     -230.551     -219.449       -2.637      168.446      214.841       70.769    28374.047    46156.838     5008.225        9.041        3.977      318.295       96.159        0.091      345.210       22.573      856.157
09/16/2013  20:48:00     -184.661        9.556       -7.353      117.354       93.677       64.639    13771.923     8775.467     4178.211        3.048        1.336      184.908       56.735        0.094      345.226       22.603      856.060
09/16/2013  20:49:00     -198.516     -117.877       13.953      263.308      123.700       79.963    69331.277    15301.660     6394.018        7.224        4.551      230.876       97.154        0.177      345.170       22.506      856.143
09/16/2013  20:50:00     -415.347      -78.159      -14.761      189.510      157.497       90.524    35914.043    24805.365     8194.544       12.386        3.446      422.637       96.866        0.053      345.154       22.479      856.146
09/16/2013  20:51:00     -407.396     -140.246      -13.323      186.205      133.709       87.341    34672.227    17878.141     7628.432       12.299        3.009      430.860       87.939        0.042      345.146       22.463      856.116
09/16/2013  20:52:00     -475.267      -93.784      -15.094      262.054      164.729       95.175    68672.209    27135.670     9058.227       16.986        5.243      484.432      123.213        0.065      345.095       22.378      856.095
09/16/2013  20:53:00     -246.919     -182.845      -11.081      184.799      128.147       71.692    34150.782    16421.756     5139.760        7.511        2.786      307.248       86.327        0.079      345.107       22.400      856.147
09/16/2013  20:54:00     -408.220      -58.254      -30.910      180.128      176.242       89.017    32445.970    31061.227     7924.035       12.120        3.572      412.356       73.917        0.032      345.112       22.407      856.066
09/16/2013  20:55:00     -188.835      -63.792        5.494      191.551      120.407      102.941    36691.632    14497.876    10596.874        5.076        3.089      199.319      114.397        0.329      345.076       22.346      856.101
09/16/2013  20:56:00     -354.834      -52.192       -9.005      133.810      131.317       66.661    17905.011    17244.213     4443.744        8.414        1.980      358.652       59.609        0.028      345.056       22.311      856.103
09/16/2013  20:57:00     -278.106      -92.871       -5.740      146.632      120.292       70.722    21500.970    14470.218     5001.579        6.348        2.049      293.203       65.439        0.050      345.020       22.249      856.085
09/16/2013  20:58:00     -234.433      -47.594       -3.352      188.447      170.450       98.965    35512.280    29053.209     9794.038        6.578        3.718      239.215      105.431        0.194      345.028       22.263      856.115
09/16/2013  20:59:00     -520.463      105.085      -48.866      172.397      128.989       84.677    29720.854    16638.191     7170.258       16.891        2.676      530.966       63.065        0.014      345.077       22.346      856.129
09/16/2013  21:00:00     -408.269       -3.549      -35.455      211.693      142.549       92.065    44813.886    20320.158     8476.042       12.077        3.681      408.284      104.490        0.065      345.044       22.292      856.099
09/16/2013  21:01:00     -423.361      -45.438      -26.924      116.192      138.205       61.214    13500.647    19100.720     3747.130       10.918        1.817      425.793       57.577        0.018      345.027       22.263      856.111
09/16/2013  21:02:00     -507.642      -69.547       -2.334      269.507      142.255      105.069    72633.980    20236.433    11039.497       18.321        5.195      512.383      130.908        0.065      344.997       22.212      856.068
09/16/2013  21:03:00     -418.285      -95.509      -11.100      232.293      178.228       86.774    53960.261    31765.226     7529.814       13.871        4.663      429.051      107.223        0.062      345.013       22.237      856.082
09/16/2013  21:04:00     -273.815      -99.507       27.031      191.637      188.300       85.425    36724.626    35456.959     7297.483        8.253        3.974      291.335       95.256        0.107      344.974       22.171      856.131
09/16/2013  21:05:00     -466.671     -148.940      -13.798      199.143      189.350       91.943    39657.904    35853.530     8453.500       16.204        4.198      489.862       88.199        0.032      345.015       22.241      856.161
09/16/2013  21:06:00     -505.028      -92.674      -38.952      237.876      163.160       86.829    56585.187    26621.215     7539.311       17.793        4.537      513.461       95.388        0.035      345.030       22.267      856.164
09/16/2013  21:07:00     -536.194      -41.219      -34.596      194.053      280.180      104.005    37656.608    78501.048    10816.936       20.866        6.349      537.776       93.557        0.030      345.034       22.272      856.178
09/16/2013  21:08:00     -583.659      -91.860      -21.550      218.940      170.690      103.561    47934.594    29135.118    10724.876       21.866        4.390      590.844      111.373        0.036      345.002       22.219      856.171
09/16/2013  21:09:00     -358.065      -98.440      -26.802      167.178      156.042       87.734    27948.432    24349.236     7697.319        9.929        3.000      371.350       82.286        0.049      345.037       22.279      856.171
09/16/2013  21:10:00     -475.533     -125.639       -5.336      225.246      183.262      109.182    50735.796    33585.098    11920.660       16.907        4.812      491.850      111.881        0.052      345.054       22.307      856.165
09/16/2013  21:11:00     -308.499     -166.874       -4.325      266.469      156.778       78.682    71005.505    24579.489     6190.882       11.239        5.089      350.740      106.368        0.092      345.101       22.390      856.201
09/16/2013  21:12:00     -136.214      -66.872      -13.445      149.623      109.832       77.965    22387.110    12063.148     6078.465        3.186        2.026      151.743       77.250        0.259      345.070       22.337      856.162
09/16/2013  21:13:00     -558.115     -110.626      -33.188      259.858      241.926       91.699    67526.212    58528.214     8408.715       22.962        6.723      568.973       96.121        0.029      345.009       22.231      856.176
09/16/2013  21:14:00     -389.890      -79.019       -6.308      208.784      202.406       91.892    43590.711    40968.197     8444.108       12.563        4.650      397.816       94.210        0.056      344.997       22.210      856.178
09/16/2013  21:15:00     -469.010      -43.980      -29.622      153.282      152.710       77.909    23495.311    23320.273     6069.847       13.782        2.644      471.067       83.093        0.031      344.983       22.186      856.188
09/16/2013  21:16:00     -276.968      -23.057       -5.261      184.822      130.668       82.232    34159.124    17074.049     6762.142        6.762        2.900      277.926       92.249        0.110      344.958       22.144      856.176
09/16/2013  21:17:00     -298.158     -113.253       24.748      195.958      160.802       89.625    38399.496    25857.381     8032.575        8.730        3.614      318.943       87.400        0.075      344.946       22.122      856.196
09/16/2013  21:18:00     -493.469      -84.742      -10.606      233.936      173.138       94.266    54726.024    29976.900     8886.044       17.218        4.679      500.692       96.978        0.038      345.054       22.308      856.270
09/16/2013  21:19:00     -359.268     -155.968      -13.569      171.421      146.397       80.958    29385.191    21432.075     6554.270       10.547        2.869      391.663       81.307        0.043      345.022       22.252      856.252
09/16/2013  21:20:00     -378.605     -213.147      -21.730      171.912      155.702       84.104    29553.752    24242.985     7073.411       12.505        3.044      434.480       93.216        0.046      345.026       22.261      856.183
09/16/2013  21:21:00     -424.637      -38.099      -31.631      200.176      145.518       90.207    40070.564    21175.475     8137.318       12.606        3.469      426.342       82.040        0.037      344.955       22.138      856.167
09/16/2013  21:22:00     -568.419     -128.798      -36.381      224.688      176.107      102.393    50484.481    31013.508    10484.309       21.648        4.599      582.828      119.084        0.042      344.975       22.172      856.183
09/16/2013  21:23:00     -647.830     -226.920      -27.391      296.026      227.581      108.073    87631.418    51793.170    11679.843       31.149        7.555      686.423      128.692        0.035      345.006       22.227      856.197
09/16/2013  21:24:00     -457.166     -163.672      -20.206      223.968      140.763       78.547    50161.528    19814.320     6169.584       15.616        3.807      485.581       87.305        0.032      345.041       22.285      856.248
09/16/2013  21:25:00     -281.714     -192.142        0.830      224.017      132.336       84.142    50183.735    17512.940     7079.833        9.551        3.739      341.001       98.426        0.083      345.115       22.411      856.281
09/16/2013  21:26:00     -438.200     -213.305      -25.210      248.818      142.704       89.442    61910.366    20364.433     7999.871       16.420        4.514      487.358      104.112        0.046      345.022       22.252      856.238
09/16/2013  21:27:00     -310.127     -236.088      -12.686      135.409      131.186       81.597    18335.498    17209.715     6658.003        9.713        2.110      389.765       77.689        0.040      345.001       22.218      856.202
09/16/2013  21:28:00     -238.297      -51.497        3.093      142.547      102.030       70.061    20319.783    10410.074     4908.498        4.754        1.782      243.798       70.688        0.084      344.931       22.097      856.183
09/16/2013  21:29:00     -212.125      -92.672       -2.994      222.960       95.567       76.240    49710.991     9133.143     5812.482        5.911        3.233      231.485       95.968        0.172      344.909       22.061      856.170
09/16/2013  21:30:00     -469.095     -133.218      -30.173      195.356      165.727       93.123    38164.068    27465.597     8671.955       15.649        3.715      487.645       98.340        0.041      344.893       22.032      856.161
09/16/2013  21:31:00     -526.542      -15.257      -43.096      251.573      179.588      103.936    63289.158    32251.992    10802.633       19.282        5.317      526.763      119.492        0.051      344.944       22.119      856.198
09/16/2013  21:32:00     -343.794     -110.300      -19.882      149.435      122.929       67.834    22330.721    15111.511     4601.503        8.639        2.102      361.055       74.959        0.043      344.933       22.099      856.235
09/16/2013  21:33:00     -467.278     -120.655      -51.799      172.991      132.377       74.339    29925.992    17523.624     5526.241       14.427        2.649      482.604       64.933        0.018      344.965       22.155      856.191
09/16/2013  21:34:00     -352.529      -79.190      -15.833      189.190      159.723       79.911    35792.766    25511.513     6385.718        9.923        3.384      361.314       83.963        0.054      344.887       22.021      856.199
09/16/2013  21:35:00     -397.252       -4.097      -28.019      197.506      162.542       88.043    39008.457    26419.941     7751.500       11.588        3.659      397.273       93.644        0.056      344.915       22.070      856.195
09/16/2013  21:36:00     -464.048      -93.857      -18.042      212.332      133.908       86.810    45084.952    17931.239     7536.057       14.750        3.528      473.445       80.831        0.029      344.842       21.945      856.129
09/16/2013  21:37:00     -402.809      -33.648      -22.450      156.955      128.928       77.104    24634.801    16622.365     5944.992       10.554        2.360      404.212       67.247        0.028      344.871       21.993      856.153
09/16/2013  21:38:00     -375.135      -86.040      -16.506      170.912       96.193       56.904    29210.880     9253.183     3238.114        9.504        2.085      384.876       60.166        0.024      344.920       22.079      856.198
09/16/2013  21:39:00     -272.566      -87.752      -11.091      152.027      123.249       64.541    23112.067    15190.305     4165.596        6.228        2.123      286.344       69.712        0.059      344.923       22.084      856.202
09/16/2013  21:40:00     -323.958      -45.420        5.941      228.530      138.978       91.761    52226.099    19314.846     8420.083        9.349        3.998      327.127      112.542        0.118      344.864       21.981      856.183
09/16/2013  21:41:00     -265.738     -107.622       13.667      140.778      120.697       62.975    19818.411    14567.676     3965.881        6.036        1.918      286.704       51.665        0.032      344.853       21.964      856.211
09/16/2013  21:42:00     -228.815      -32.326       -6.189      159.247      110.961       56.814    25359.554    12312.440     3227.831        4.716        2.045      231.088       60.537        0.069      344.808       21.886      856.190
09/16/2013  21:43:00     -495.114       11.333      -37.442      153.497      149.654       81.514    23561.280    22396.294     6644.503       14.962        2.630      495.244       82.809        0.028      344.781       21.840      856.194
09/16/2013  21:44:00     -334.980      -51.954      -22.719      219.846      102.932       65.622    48332.439    10595.034     4306.259        8.932        3.162      338.985       94.754        0.078      344.792       21.859      856.203
09/16/2013  21:45:00     -345.688     -102.578       -2.930      292.376      170.619       88.405    85483.933    29110.765     7815.363       12.620        6.121      360.586      109.496        0.092      344.884       22.016      856.190
09/16/2013  21:46:00     -296.717      -73.072      -14.280      190.662      123.724       69.485    36352.000    15307.690     4828.149        7.502        2.824      305.582       79.765        0.068      344.830       21.924      856.206
09/16/2013  21:47:00     -224.054      -51.140        4.301      141.553      104.396       61.869    20037.359    10898.537     3827.780        4.379        1.738      229.816       66.012        0.083      344.789       21.855      856.254
09/16/2013  21:48:00     -268.722     -112.343       -7.566      160.012      121.043       60.065    25603.711    14651.364     3607.745        6.437        2.193      291.260       60.408        0.043      344.871       21.996      856.255
09/16/2013  21:49:00     -202.463      -61.678        2.526      136.878      105.710       66.956    18735.682    11174.548     4483.108        3.959        1.720      211.650       76.741        0.131      344.844       21.948      856.263
09/16/2013  21:50:00     -364.716      -76.857        4.862      197.771      145.311       86.910    39113.211    21115.179     7553.400       10.335        3.389      372.726       87.978        0.056      344.804       21.879      856.241
09/16/2013  21:51:00     -466.829     -106.903      -18.834      247.309      181.040       89.484    61161.504    32775.581     8007.349       16.581        5.097      478.913       96.083        0.040      344.873       21.997      856.246
09/16/2013  21:52:00     -272.832      -69.039       17.162      187.915      157.243       72.959    35312.057    24725.355     5323.030        7.242        3.268      281.432       66.819        0.056      344.842       21.945      856.236
09/16/2013  21:53:00     -258.259     -176.033        9.630      204.780      160.109       76.597    41935.053    25634.787     5867.046        8.559        3.672      312.547       82.423        0.070      344.943       22.118      856.306
09/16/2013  21:54:00     -169.037     -174.829       12.158      167.811      133.673       85.756    28160.519    17868.384     7354.054        5.632        2.669      243.184       98.024        0.162      344.879       22.008      856.306
09/16/2013  21:55:00     -258.409      -78.566       -9.848      167.081      124.011       61.587    27915.983    15378.830     3793.011        6.006        2.354      270.089       51.187        0.036      344.834       21.932      856.291
09/16/2013  21:56:00     -220.236      -64.025        1.324      116.256      109.537       55.326    13515.411    11998.409     3060.932        4.058        1.429      229.353       57.031        0.062      344.779       21.838      856.292
09/16/2013  21:57:00     -358.381      -40.656      -10.244      188.907      151.701       76.031    35685.948    23013.301     5780.721        9.732        3.224      360.680       94.301        0.068      344.782       21.842      856.274
09/16/2013  21:58:00     -552.850      -53.050      -39.622      147.762      163.943       75.405    21833.625    26877.301     5685.950       18.220        2.720      555.390       72.230        0.017      344.803       21.877      856.255
09/16/2013  21:59:00     -501.000      -63.445      -48.269      170.190      144.345       82.607    28964.557    20835.534     6823.886       15.698        2.831      505.001       83.146        0.027      344.823       21.912      856.275
09/16/2013  22:00:00     -333.203      -78.077       -1.086      158.861      138.565       71.420    25236.688    19200.129     5100.849        8.332        2.477      342.228       74.872        0.048      344.758       21.800      856.249
09/16/2013  22:01:00     -449.522      -80.653        5.527      222.077      178.130       98.527    49318.101    31730.371     9707.582       14.966        4.538      456.700      111.956        0.060      344.766       21.814      856.238
09/16/2013  22:02:00     -586.773     -132.613      -27.953      255.737      146.480       97.091    65401.537    21456.245     9426.736       22.946        4.814      601.572      128.240        0.045      344.758       21.799      856.227
09/16/2013  22:03:00     -389.595      -79.917      -23.736      167.944      126.501       72.500    28205.240    16002.437     5256.255       10.409        2.473      397.707       72.755        0.033      344.723       21.739      856.247
09/16/2013  22:04:00     -292.649     -133.425      -11.017      133.170      125.095       74.521    17734.120    15648.863     5553.333        7.124        1.947      321.629       68.714        0.046      344.756       21.796      856.261
09/16/2013  22:05:00     -283.193     -150.198      -21.254      138.204      119.366       66.297    19100.364    14248.165     4395.229        7.047        1.887      320.558       74.591        0.054      344.777       21.832      856.266
09/16/2013  22:06:00     -193.860     -102.322       -0.988      141.077       87.171       61.576    19902.733     7598.857     3791.614        3.967        1.565      219.206       71.421        0.106      344.772       21.826      856.253
09/16/2013  22:07:00     -248.819     -135.831      -12.906      133.429      147.889       71.522    17803.304    21871.119     5115.350        6.265        2.239      283.480       67.367        0.056      344.765       21.811      856.252
09/16/2013  22:08:00     -365.385       -1.907      -11.957      241.302      116.607       89.229    58226.480    13597.288     7961.875       10.670        3.989      365.390      116.496        0.102      344.742       21.774      856.290
09/16/2013  22:09:00     -272.116      -23.716      -10.785      145.445      101.903       52.323    21154.291    10384.187     2737.676        5.449        1.714      273.148       64.071        0.055      344.739       21.767      856.312
09/16/2013  22:10:00     -320.482     -117.900       -5.174      182.039      127.517       72.778    33138.237    16260.514     5296.650        8.565        2.735      341.481       78.290        0.053      344.769       21.818      856.297
09/16/2013  22:11:00     -383.978     -194.190      -23.926      170.822      160.644       72.921    29180.133    25806.384     5317.513       12.300        3.015      430.289       79.746        0.034      344.784       21.845      856.264
09/16/2013  22:12:00     -181.344     -104.170       -2.127      157.461      122.458       77.896    24794.021    14995.962     6067.827        4.479        2.293      209.134       83.356        0.159      344.746       21.780      856.248
09/16/2013  22:13:00     -351.083      -96.535       -8.236      186.370      149.144       80.732    34733.938    22243.938     6517.656        9.806        3.175      364.113       84.475        0.054      344.827       21.920      856.268
09/16/2013  22:14:00     -176.208      -74.271       -6.605      106.799      100.810       50.338    11406.120    10162.688     2533.910        3.035        1.205      191.221       49.379        0.067      344.788       21.853      856.286
09/16/2013  22:15:00     -159.452     -160.057       -0.478      115.688      110.484       55.967    13383.694    12206.799     3132.280        3.988        1.436      225.927       62.571        0.077      344.840       21.941      856.288
09/16/2013  22:16:00     -134.107      -73.475       -2.208      111.417       66.160       49.102    12413.674     4377.178     2411.043        2.129        0.960      152.916       41.825        0.075      344.780       21.841      856.280
09/16/2013  22:17:00     -406.120     -179.008      -14.531      122.682      150.423       57.761    15050.939    22627.046     3336.368       11.909        2.051      443.821       57.084        0.017      344.841       21.943      856.273
09/16/2013  22:18:00     -270.962      -40.543       -8.994      171.349      151.235       81.050    29360.380    22872.164     6569.101        6.696        2.940      273.978       94.989        0.120      344.758       21.799      856.282
09/16/2013  22:19:00     -373.184      -42.296      -23.034      138.608      122.567       64.307    19212.156    15022.694     4135.412        8.997        1.919      375.573       58.787        0.025      344.806       21.883      856.327
09/16/2013  22:20:00     -287.065       16.258       -5.317      159.119      139.221       81.880    25318.881    19382.495     6704.318        6.704        2.570      287.525       81.182        0.080      344.733       21.760      856.319
09/16/2013  22:21:00     -260.510      -87.716       -1.671      143.769      134.112       73.188    20669.439    17986.058     5356.488        5.978        2.201      274.881       75.155        0.075      344.686       21.676      856.332
09/16/2013  22:22:00     -280.153      -51.730       -5.410      145.065      109.527       56.501    21043.989    11996.213     3192.335        5.870        1.812      284.889       59.939        0.044      344.696       21.695      856.338
09/16/2013  22:23:00     -245.931      -30.293       -0.964      116.697       69.313       53.712    13618.102     4804.242     2884.986        4.135        1.065      247.789       55.541        0.050      344.657       21.627      856.326
09/16/2013  22:24:00     -211.728      -72.376       -6.402      113.844      105.531       53.798    12960.457    11136.767     2894.173        3.854        1.350      223.757       63.810        0.081      344.635       21.591      856.292
09/16/2013  22:25:00     -323.157      -46.216      -25.825      160.943      122.081       60.153    25902.496    14903.850     3618.346        7.582        2.221      326.445       73.051        0.050      344.631       21.582      856.260
09/16/2013  22:26:00     -192.729      -51.084       14.905      143.086      107.503       67.253    20473.508    11556.792     4522.950        3.826        1.828      199.384       76.302        0.146      344.650       21.617      856.267
09/16/2013  22:27:00     -109.431      -28.614        7.546       83.119       71.233       52.699     6908.819     5074.129     2777.210        1.380        0.738      113.110       41.726        0.136      344.686       21.679      856.269
09/16/2013  22:28:00     -276.879      -58.607      -16.803      177.156      144.622       58.198    31384.252    20915.598     3386.976        6.802        2.784      283.014       58.969        0.043      344.662       21.637      856.263
09/16/2013  22:29:00     -298.266       -3.734        9.150      215.030      147.503       91.412    46237.703    21757.263     8356.108        8.269        3.818      298.289      102.217        0.117      344.670       21.650      856.226
09/16/2013  22:30:00     -234.071     -115.599      -10.231      180.595      154.709       80.504    32614.463    23935.017     6480.945        6.563        3.152      261.060       89.112        0.117      344.723       21.741      856.230
09/16/2013  22:31:00     -398.127       59.212      -28.272      198.761      112.129       66.200    39505.876    12572.817     4382.411       10.962        2.823      402.506       77.561        0.037      344.713       21.724      856.226
09/16/2013  22:32:00     -440.393     -124.596      -12.391      208.391      151.961       87.284    43426.853    23092.068     7618.522       14.187        3.707      457.679       86.919        0.036      344.689       21.683      856.224
09/16/2013  22:33:00     -490.165     -101.731      -16.515      233.746      165.508       88.644    54637.035    27392.746     7857.699       17.037        4.494      500.610      103.831        0.043      344.707       21.712      856.245
09/16/2013  22:34:00     -423.445      -73.227      -27.781      140.429      136.052       69.936    19720.245    18510.224     4891.108       11.427        2.156      429.730       68.810        0.026      344.725       21.743      856.262
09/16/2013  22:35:00     -395.266      -54.465      -21.214      153.027      111.613       64.048    23417.164    12457.408     4102.146        9.981        1.999      399.000       69.556        0.030      344.717       21.729      856.268
09/16/2013  22:36:00     -454.224      -68.509      -28.269      267.693      139.068       82.729    71659.454    19339.834     6844.047       15.481        4.892      459.361      126.229        0.076      344.759       21.803      856.249
09/16/2013  22:37:00     -336.394      -90.859       -9.958      153.845      161.472       67.500    23668.224    26073.063     4556.230        8.790        2.715      348.448       66.969        0.037      344.754       21.793      856.247
09/16/2013  22:38:00     -288.109      -42.205      -20.810      129.263      102.981       61.048    16708.940    10604.991     3726.870        5.812        1.552      291.184       67.519        0.054      344.702       21.704      856.242
09/16/2013  22:39:00     -478.714     -104.373      -28.376      215.684      132.214       80.643    46519.562    17480.528     6503.260       15.567        3.525      489.960       96.117        0.038      344.710       21.719      856.246
09/16/2013  22:40:00     -401.720       -3.683      -25.007      182.193      157.073       78.060    33194.241    24671.906     6093.426       11.298        3.198      401.737       90.115        0.050      344.683       21.672      856.251
09/16/2013  22:41:00     -470.981     -186.432       -7.714      281.229      156.580       98.447    79089.686    24517.164     9691.856       18.495        5.665      506.538      102.519        0.041      344.777       21.833      856.227
09/16/2013  22:42:00     -334.231      -50.316      -17.127      206.075      151.646       94.833    42466.705    22996.576     8993.295        9.448        3.723      337.997       73.797        0.048      344.781       21.839      856.229
09/16/2013  22:43:00     -279.509      -84.143        7.852      225.175      201.829      108.462    50703.633    40734.767    11764.105        9.421        5.160      291.900      127.556        0.191      344.758       21.800      856.268
09/16/2013  22:44:00     -306.792     -122.973       -6.351      189.568      173.509       85.049    35936.067    30105.333     7233.263        9.126        3.664      330.521       96.286        0.085      344.822       21.910      856.295
09/16/2013  22:45:00     -294.994     -200.652        6.691      185.201      180.268       85.005    34299.587    32496.475     7225.804       10.066        3.701      356.767      104.709        0.086      344.785       21.848      856.268
09/16/2013  22:46:00     -356.218       31.423      -16.756      188.665      137.911       72.433    35594.625    19019.396     5246.527        9.400        2.993      357.601       82.350        0.053      344.759       21.801      856.236
09/16/2013  22:47:00     -422.251      -55.268      -18.871      166.801      127.368       74.012    27822.478    16222.561     5477.788       11.560        2.476      425.852       75.448        0.031      344.760       21.803      856.210
09/16/2013  22:48:00     -373.602      -88.626       -6.677      131.752      133.750       76.273    17358.478    17889.144     5817.633        9.426        2.053      383.970       78.951        0.042      344.729       21.750      856.254
09/16/2013  22:49:00     -253.535      -73.827        9.723      164.946      139.891       74.108    27207.060    19569.490     5491.935        6.104        2.613      264.066       76.863        0.085      344.695       21.692      856.253
09/16/2013  22:50:00     -354.871      -45.590      -17.802      203.819      156.281       71.481    41542.062    24423.894     5109.473        9.969        3.554      357.788       60.137        0.028      344.696       21.694      856.276
09/16/2013  22:51:00     -428.314        0.877      -34.729      144.485      164.345       81.072    20875.796    27009.245     6572.600       11.955        2.723      428.315       62.238        0.021      344.710       21.719      856.297
09/16/2013  22:52:00     -298.104      -46.645      -15.029      150.271      123.347       63.153    22581.485    15214.456     3988.356        6.652        2.089      301.731       62.317        0.043      344.687       21.679      856.280
09/16/2013  22:53:00     -351.856       -7.309      -25.298      137.180      121.993       66.147    18818.367    14882.352     4375.471        8.128        1.904      351.932       68.411        0.038      344.674       21.655      856.261
09/16/2013  22:54:00     -168.267       -1.296       18.002      107.048       92.560       66.251    11459.319     8567.298     4389.187        2.652        1.221      168.272       66.772        0.157      344.573       21.486      856.297
09/16/2013  22:55:00     -337.339     -134.151      -20.265      164.461      134.163       79.296    27047.541    17999.718     6287.865        9.176        2.567      363.035       84.118        0.054      344.644       21.606      856.273
09/16/2013  22:56:00     -216.802      -97.080      -11.538      120.946       97.779       61.988    14628.011     9560.753     3842.480        4.229        1.402      237.545       62.948        0.070      344.624       21.571      856.272
09/16/2013  22:57:00     -210.552      -18.432       12.175      157.127      111.398       61.729    24688.877    12409.522     3810.431        4.286        2.045      211.358       76.731        0.132      344.516       21.389      856.272
09/16/2013  22:58:00     -533.527     -185.159      -31.678      265.066      177.174      101.765    70259.755    31390.623    10356.105       21.595        5.600      564.743      131.100        0.054      344.615       21.555      856.300
09/16/2013  22:59:00     -308.270      -61.340       -1.130      157.182      120.208       76.005    24706.072    14450.010     5776.750        7.185        2.247      314.313       84.443        0.072      344.600       21.530      856.342
09/16/2013  23:00:00     -406.970     -130.183      -28.679      173.838      181.756       78.166    30219.630    33035.262     6109.949       12.637        3.468      427.284       85.415        0.040      344.612       21.551      856.328
09/16/2013  23:01:00     -354.327      -81.776       -2.839      179.112      102.852       68.182    32081.204    10578.589     4648.780        8.977        2.365      363.641       82.902        0.052      344.605       21.541      856.357
09/16/2013  23:02:00     -317.231       11.647      -27.228       95.299       69.601       55.515     9081.990     4844.264     3081.861        5.926        0.850      317.445       55.335        0.030      344.578       21.493      856.345
09/16/2013  23:03:00     -238.918      -34.557       -2.033      135.045       91.077       52.119    18237.235     8295.026     2716.369        4.376        1.462      241.405       37.431        0.024      344.556       21.456      856.322
09/16/2013  23:04:00     -196.472      -50.841        5.901      202.627      159.930       84.436    41057.838    25577.468     7129.443        5.748        3.688      202.943      112.514        0.307      344.529       21.409      856.308
09/16/2013  23:05:00     -452.202      -83.093      -23.713      215.727      151.168       77.616    46538.307    22851.807     6024.237       14.367        3.771      459.773       97.745        0.045      344.619       21.563      856.295
09/16/2013  23:06:00     -324.860        6.716      -11.156      124.213      103.243       57.146    15428.817    10659.041     3265.651        6.752        1.468      324.930       63.402        0.038      344.595       21.522      856.312
09/16/2013  23:07:00     -295.713       -8.800      -16.739      133.043      114.478       54.551    17700.487    13105.283     2975.759        6.079        1.689      295.844       57.990        0.038      344.569       21.477      856.291
09/16/2013  23:08:00     -183.996      -49.901        2.122      142.997      136.653       72.731    20448.225    18674.015     5289.802        4.037        2.221      190.643       84.128        0.195      344.502       21.364      856.289
09/16/2013  23:09:00     -217.329      -49.551       -1.477      143.208      117.813       72.058    20508.652    13879.855     5192.383        4.463        1.979      222.907       63.209        0.080      344.551       21.448      856.276
09/16/2013  23:10:00     -233.407      -29.902       -8.255       98.635       88.858       56.548     9728.879     7895.657     3197.667        3.813        1.041      235.315       60.006        0.065      344.578       21.493      856.306
09/16/2013  23:11:00     -284.609      -23.181       -5.018      165.586      112.766       72.906    27418.881    12716.143     5315.272        6.350        2.273      285.551       87.499        0.094      344.533       21.417      856.324
09/16/2013  23:12:00     -187.397       -4.965      -11.758       87.155       66.936       50.106     7596.063     4480.487     2510.600        2.493        0.729      187.463       49.792        0.071      344.549       21.443      856.335
09/16/2013  23:13:00     -130.720      -11.062       -0.552      103.637      116.351       46.136    10740.611    13537.454     2128.554        2.180        1.320      131.187       49.233        0.141      344.545       21.436      856.305
09/16/2013  23:14:00     -162.847      -45.708      -11.588       72.601       86.896       44.987     5270.926     7550.953     2023.863        2.179        0.742      169.140       42.562        0.063      344.592       21.519      856.262
09/16/2013  23:15:00     -363.236     -100.223      -15.591      165.904      137.535       70.919    27524.258    18916.009     5029.542        9.684        2.573      376.809       86.150        0.052      344.653       21.621      856.264
09/16/2013  23:16:00     -439.148      -75.871      -37.295      142.144      137.257       55.918    20204.963    18839.417     3126.833       12.108        2.109      445.654       55.668        0.016      344.645       21.606      856.280
09/16/2013  23:17:00     -336.003     -116.725      -10.801      126.753      136.738       69.055    16066.416    18697.158     4768.586        8.308        1.977      355.701       75.303        0.045      344.615       21.556      856.254
09/16/2013  23:18:00     -351.591      -15.239      -30.565      139.367      137.379       62.702    19423.126    18873.080     3931.533        8.350        2.111      351.921       55.515        0.025      344.601       21.533      856.241
09/16/2013  23:19:00     -320.436      -89.945       -4.927      195.140      130.533       72.741    38079.683    17038.828     5291.305        8.559        3.020      332.820       83.691        0.063      344.572       21.482      856.248
09/16/2013  23:20:00     -239.373      -96.410       -2.763      125.148      148.295       56.910    15661.941    21991.435     3238.710        5.374        2.045      258.059       54.753        0.045      344.566       21.472      856.238
09/16/2013  23:21:00     -281.734        4.233      -12.505      123.911       93.454       62.715    15354.026     8733.700     3933.156        5.378        1.401      281.766       67.218        0.057      344.571       21.481      856.263
09/16/2013  23:22:00     -194.806       -9.896       -9.615      109.592       62.247       44.852    12010.381     3874.666     2011.674        2.801        0.895      195.058       50.646        0.067      344.549       21.444      856.255
09/16/2013  23:23:00     -205.574      -53.736       -1.561      107.059       86.255       55.341    11461.546     7439.879     3062.598        3.355        1.098      212.481       51.835        0.060      344.518       21.392      856.239
09/16/2013  23:24:00     -344.573      -66.700       -4.457      140.509      126.539       62.273    19742.917    16012.158     3877.929        8.141        1.982      350.969       59.129        0.028      344.528       21.407      856.234
09/16/2013  23:25:00     -185.965      -83.148       21.697      160.280      100.940       60.704    25689.673    10188.934     3684.960        4.076        1.978      203.707       69.734        0.117      344.475       21.318      856.248
09/16/2013  23:26:00      -77.721       23.386       13.040       78.626       59.826       42.570     6182.041     3579.102     1812.212        0.916        0.579       81.163       37.581        0.214      344.320       21.055      856.225
09/16/2013  23:27:00     -351.279      -71.281      -24.680      150.609      104.729       72.974    22683.149    10968.267     5325.231        8.402        1.949      358.438       74.919        0.044      344.601       21.533      856.228
09/16/2013  23:28:00     -195.281      -84.648       -6.325       85.100       74.906       44.910     7241.954     5610.900     2016.897        3.010        0.743      212.838       41.208        0.037      344.592       21.518      856.209
09/16/2013  23:29:00     -241.400      -77.558      -21.546      118.991      103.911       60.611    14158.799    10797.433     3673.644        4.669        1.431      253.553       56.224        0.049      344.547       21.442      856.254
09/16/2013  23:30:00     -174.104      -80.120        1.291       92.382       78.400       43.916     8534.473     6146.527     1928.592        2.667        0.830      191.654       38.010        0.039      344.516       21.388      856.284
09/16/2013  23:31:00     -153.207      -41.502        0.394       86.113       80.471       53.483     7415.462     6475.589     2860.413        2.097        0.838      158.729       42.942        0.073      344.477       21.323      856.271
09/16/2013  23:32:00     -332.485      -41.126      -20.718      140.096      139.419       66.916    19626.917    19437.695     4477.789        7.810        2.177      335.019       65.625        0.038      344.578       21.494      856.220
09/16/2013  23:33:00     -290.393      -36.699      -11.578      124.417       94.980       50.820    15479.583     9021.295     2582.682        5.644        1.354      292.703       54.863        0.035      344.550       21.445      856.200
09/16/2013  23:34:00     -330.896      -25.692      -31.829      178.414      198.082       81.621    31831.616    39236.417     6661.953        9.443        3.886      331.892       91.285        0.076      344.571       21.480      856.183
09/16/2013  23:35:00     -144.123      -67.039       21.467      151.500      109.809       59.781    22952.394    12058.053     3573.794        3.215        1.929      158.951       82.262        0.268      344.491       21.344      856.183
09/16/2013  23:36:00     -203.485      -76.373       -5.024      127.907       88.455       47.252    16360.135     7824.335     2232.766        3.684        1.321      217.345       51.835        0.057      344.520       21.394      856.230
09/16/2013  23:37:00     -241.393      -71.073       -0.449      102.057       97.193       58.603    10415.668     9446.477     3434.353        4.330        1.165      251.638       55.319        0.048      344.488       21.338      856.269
09/16/2013  23:38:00     -303.067      -85.927       -3.205      132.835       99.703       61.389    17645.008     9940.606     3768.654        6.529        1.568      315.013       69.533        0.049      344.561       21.463      856.278
09/16/2013  23:39:00     -202.057      -58.200       15.601      124.742       98.309       64.849    15560.552     9664.750     4205.455        3.694        1.472      210.272       60.376        0.082      344.503       21.366      856.284
09/16/2013  23:40:00     -183.611      -68.039        2.118      112.595       81.876       51.751    12677.642     6703.631     2678.138        3.020        1.103      195.812       52.586        0.072      344.471       21.308      856.258
09/16/2013  23:41:00     -250.155      -59.572       -2.185       93.773       84.649       44.325     8793.282     7165.475     1964.677        4.202        0.896      257.150       44.016        0.029      344.497       21.354      856.233
09/16/2013  23:42:00     -299.814      -68.153      -17.091       95.893       89.388       52.305     9195.509     7990.250     2735.810        5.737        0.996      307.463       46.281        0.023      344.503       21.363      856.231
09/16/2013  23:43:00     -141.981      -61.213      -11.797       89.618       71.949       39.590     8031.341     5176.703     1567.330        1.941        0.739      154.615       38.505        0.062      344.511       21.377      856.250
09/16/2013  23:44:00     -300.130       -4.759      -20.527      131.603      115.611       52.212    17319.323    13366.004     2726.106        6.196        1.671      300.168       38.204        0.016      344.565       21.471      856.223
09/16/2013  23:45:00     -414.680     -287.746        1.029      206.697      169.479       95.963    42723.703    28722.971     9208.977       16.769        4.033      504.735      102.796        0.041      344.640       21.598      856.237
09/16/2013  23:46:00     -196.653     -146.850       -9.857      167.924      106.765       57.442    28198.445    11398.698     3299.630        5.161        2.145      245.433       77.384        0.099      344.678       21.664      856.259
09/16/2013  23:47:00     -212.578      -71.569       -2.274       96.048      101.916       53.779     9225.138    10386.901     2892.184        3.641        1.125      224.302       50.205        0.050      344.585       21.505      856.264
09/16/2013  23:48:00      -33.342      -15.072       29.269       73.094       53.826       39.233     5342.687     2897.266     1539.194        0.599        0.489       36.591       37.883        1.072      344.504       21.369      856.310
09/16/2013  23:49:00     -287.765     -122.171      -13.437      205.787      126.569       60.210    42348.491    16019.705     3625.289        7.994        3.100      312.625       67.869        0.047      344.609       21.545      856.354
09/16/2013  23:50:00     -213.688      -75.463      -30.108      112.731       77.774       52.690    12708.280     6048.813     2776.285        3.689        1.077      226.622       53.178        0.055      344.606       21.541      856.400
09/16/2013  23:51:00      -64.894        6.367       -0.891       54.774       54.885       32.385     3000.141     3012.357     1048.757        0.566        0.353       65.206       26.483        0.165      344.642       21.604      856.392
09/16/2013  23:52:00      -55.666      -16.654       -7.893      123.923       37.660       30.068    15356.834     1418.246      904.063        1.056        0.884       58.104       40.088        0.476      344.087       20.655      856.397
09/16/2013  23:53:00     -165.465        7.752       -6.414      122.811       66.781       40.370    15082.447     4459.719     1629.753        2.432        1.059      165.647       59.317        0.128      344.570       21.479      856.432
09/16/2013  23:54:00      -62.645      -79.699       14.613       94.218       93.237       60.767     8876.940     8693.222     3692.677        1.587        1.063      101.372       56.160        0.307      344.523       21.401      856.463
09/16/2013  23:55:00      -58.141     -162.965       10.107       88.771       77.599       58.382     7880.224     6021.581     3408.493        2.367        0.866      173.026       56.133        0.105      344.575       21.490      856.475
09/16/2013  23:56:00      -81.224     -170.311        1.657       82.339       76.503       47.678     6779.688     5852.658     2273.214        2.525        0.745      188.688       36.930        0.038      344.574       21.486      856.442
09/16/2013  23:57:00      -49.786      -33.431        8.657       87.901       63.173       43.224     7726.621     3990.887     1868.336        0.863        0.679       59.969       42.667        0.506      344.492       21.350      856.445
09/16/2013  23:58:00       -5.585      -46.974        5.231       46.338       40.874       29.286     2147.187     1670.688      857.665        0.347        0.234       47.305       23.897        0.255      344.320       21.056      856.444
09/16/2013  23:59:00       43.132      -35.741       26.826       51.249       58.032       34.108     2626.496     3367.714     1163.348        0.551        0.358       56.015       34.660        0.383      344.061       20.612      856.415
